[[{"header":{"parameterUnit":"m.s-1","parameterCategory":1,"la1":30.6,"la2":28.766,"lo1":-90.7593,"lo2":-88.6598,"dy":0.0162,"dx":0.0183,"nx":116,"ny":114,"refTime":"2024-06-28T12:00:00:Z","depth":0,"parameterNumber":2,"parameterNumberName":"U-component_of_WINDS"},"data":[0.0,0.0,0.0,0.0,0.0,0.0,0.0,0.0,0.0,0.0,0.0,0.0,0.0,0.0,0.0,0.0,0.0,0.0,0.0,0.0,0.0,0.0,0.0,0.0,0.0,0.0,0.0,0.0,0.0,0.0,0.0,0.0,0.0,0.0,0.0,0.0,0.0,0.0,0.0,0.0,0.0,0.0,0.0,0.0,0.0,0.0,0.0,0.0,0.0,0.0,0.0,0.0,0.0,0.0,0.0,0.0,0.0,0.0,0.0,0.0,0.0,0.0,0.0,0.0,0.0,0.0,0.0,0.0,0.0,0.0,0.0,0.0,0.0,0.0,0.0,0.0,0.0,0.0,0.0,0.0,0.0,0.0,0.0,0.0,0.0,0.0,0.0,0.0,0.0,0.0,0.0,0.0,0.0,0.0,0.0,0.0,0.0,0.0,0.0,0.0,0.0,0.0,0.0,0.0,0.0,0.0,0.0,0.0,0.0,0.0,0.0,0.0,0.0,0.0,0.0,0.0,0.0,0.0,0.0,0.0,0.0,0.0,0.0,0.0,0.0,0.0,0.0,0.0,0.0,0.0,0.0,0.0,0.0,0.0,0.0,0.0,0.0,0.0,0.0,0.0,0.0,0.0,0.0,0.0,0.0,0.0,0.0,0.0,0.0,0.0,0.0,0.0,0.0,0.0,0.0,0.0,0.0,0.0,0.0,0.0,0.0,0.0,0.0,0.0,0.0,0.0,0.0,0.0,0.0,0.0,0.0,0.0,0.0,0.0,0.0,0.0,0.0,0.0,0.0,0.0,0.0,0.0,0.0,0.0,0.0,0.0,0.0,0.0,0.0,0.0,0.0,0.0,0.0,0.0,0.0,0.0,0.0,0.0,0.0,0.0,0.0,0.0,0.0,0.0,0.0,0.0,0.0,0.0,0.0,0.0,0.0,0.0,0.0,0.0,0.0,0.0,0.0,0.0,0.0,0.0,0.0,0.0,0.0,0.0,0.0,0.0,0.0,0.0,0.0,0.0,0.0,0.0,0.0,0.0,0.0,0.0,0.0,0.0,0.0,0.0,0.0,0.0,0.0,0.0,0.0,0.0,0.0,0.0,0.0,0.0,0.0,0.0,0.0,0.0,0.0,0.0,0.0,0.0,0.0,0.0,0.0,0.0,0.0,0.0,0.0,0.0,0.0,0.0,0.0,0.0,0.0,0.0,0.0,0.0,0.0,0.0,0.0,0.0,0.0,0.0,0.0,0.0,0.0,0.0,0.0,0.0,0.0,0.0,0.0,0.0,0.0,0.0,0.0,0.0,0.0,0.0,0.0,0.0,0.0,0.0,0.0,0.0,0.0,0.0,0.0,0.0,0.0,0.0,0.0,0.0,0.0,0.0,0.0,0.0,0.0,0.0,0.0,0.0,0.0,0.0,0.0,0.0,0.0,0.0,0.0,0.0,0.0,0.0,0.0,0.0,0.0,0.0,0.0,0.0,0.0,0.0,0.0,0.0,0.0,0.0,0.0,0.0,0.0,0.0,0.0,0.0,0.0,0.0,0.0,0.0,0.0,0.0,0.0,0.0,0.0,0.0,0.0,0.0,0.0,0.0,0.0,0.0,0.0,0.0,0.0,0.0,0.0,0.0,0.0,0.0,0.0,0.0,0.0,0.0,0.0,0.0,0.0,0.0,0.0,0.0,0.0,0.0,0.0,0.0,0.0,0.0,0.0,0.0,0.0,0.0,0.0,0.0,0.0,0.0,0.0,0.0,0.0,0.0,0.0,0.0,0.0,0.0,0.0,0.0,0.0,0.0,0.0,0.0,0.0,0.0,0.0,0.0,0.0,0.0,0.0,0.0,0.0,0.0,0.0,0.0,0.0,0.0,0.0,0.0,0.0,0.0,0.0,0.0,0.0,0.0,0.0,0.0,0.0,0.0,0.0,0.0,0.0,0.0,0.0,0.0,0.0,0.0,0.0,0.0,0.0,0.0,0.0,0.0,0.0,0.0,0.0,0.0,0.0,0.0,0.0,0.0,0.0,0.0,0.0,0.0,0.0,0.0,0.0,0.0,0.0,0.0,0.0,0.0,0.0,0.0,0.0,0.0,0.0,0.0,0.0,0.0,0.0,0.0,0.0,0.0,0.0,0.0,0.0,0.0,0.0,0.0,0.0,0.0,0.0,0.0,0.0,0.0,0.0,0.0,0.0,0.0,0.0,0.0,0.0,0.0,0.0,0.0,0.0,0.0,0.0,0.0,0.0,0.0,0.0,0.0,0.0,0.0,0.0,0.0,0.0,0.0,0.0,0.0,0.0,0.0,0.0,0.0,0.0,0.0,0.0,0.0,0.0,0.0,0.0,0.0,0.0,0.0,0.0,0.0,0.0,0.0,0.0,0.0,0.0,0.0,0.0,0.0,0.0,0.0,0.0,0.0,0.0,0.0,0.0,0.0,0.0,0.0,0.0,0.0,0.0,0.0,0.0,0.0,0.0,0.0,0.0,0.0,0.0,0.0,0.0,0.0,0.0,0.0,0.0,0.0,0.0,0.0,0.0,0.0,0.0,0.0,0.0,0.0,0.0,0.0,0.0,0.0,0.0,0.0,0.0,0.0,0.0,0.0,0.0,0.0,0.0,0.0,0.0,0.0,0.0,0.0,0.0,0.0,0.0,0.0,0.0,0.0,0.0,0.0,0.0,0.0,0.0,0.0,0.0,0.0,0.0,0.0,0.0,0.0,0.0,0.0,0.0,0.0,0.0,0.0,0.0,0.0,0.0,0.0,0.0,0.0,0.0,0.0,0.0,0.0,0.0,0.0,0.0,0.0,0.0,0.0,0.0,0.0,0.0,0.0,0.0,0.0,0.0,0.0,0.0,0.0,0.0,0.0,0.0,0.0,0.0,0.0,0.0,0.0,0.0,0.0,0.0,0.0,0.0,0.0,0.0,0.0,0.0,0.0,0.0,0.0,0.0,0.0,0.0,0.0,0.0,0.0,0.0,0.0,0.0,0.0,0.0,0.0,0.0,0.0,0.0,0.0,0.0,0.0,0.0,0.0,0.0,0.0,0.0,0.0,0.0,0.0,0.0,0.0,0.0,0.0,0.0,0.0,0.0,0.0,0.0,0.0,0.0,0.0,0.0,0.0,0.0,0.0,0.0,0.0,0.0,0.0,0.0,0.0,0.0,0.0,0.0,0.0,0.0,0.0,0.0,0.0,0.0,0.0,0.0,0.0,0.0,0.0,0.0,0.0,0.0,0.0,0.0,0.0,0.0,0.0,0.0,0.0,0.0,0.0,0.0,0.0,0.0,0.0,0.0,0.0,0.0,0.0,0.0,0.0,0.0,0.0,0.0,0.0,0.0,0.0,0.0,0.0,0.0,0.0,0.0,0.0,0.0,0.0,0.0,0.0,0.0,0.0,0.0,0.0,0.0,0.0,0.0,0.0,0.0,0.0,0.0,0.0,0.0,0.0,0.0,0.0,0.0,0.0,0.0,0.0,0.0,0.0,0.0,0.0,0.0,0.0,0.0,0.0,0.0,0.0,0.0,0.0,0.0,0.0,0.0,0.0,0.0,0.0,0.0,0.0,0.0,0.0,0.0,0.0,0.0,0.0,0.0,0.0,0.0,0.0,0.0,0.0,0.0,0.0,0.0,0.0,0.0,0.0,0.0,0.0,0.0,0.0,0.0,0.0,0.0,0.0,0.0,0.0,0.0,0.0,0.0,0.0,0.0,0.0,0.0,0.0,0.0,0.0,0.0,0.0,0.0,0.0,0.0,0.0,0.0,0.0,0.0,0.0,0.0,0.0,0.0,0.0,0.0,0.0,0.0,0.0,0.0,0.0,0.0,0.0,0.0,0.0,0.0,0.0,0.0,0.0,0.0,0.0,0.0,0.0,0.0,0.0,0.0,0.0,0.0,0.0,0.0,0.0,0.0,0.0,0.0,0.0,0.0,0.0,0.0,0.0,0.0,0.0,0.0,0.0,0.0,0.0,0.0,0.0,0.0,0.0,0.0,0.0,0.0,0.0,0.0,0.0,0.0,0.0,0.0,0.0,0.0,0.0,0.0,0.0,0.0,0.0,0.0,0.0,0.0,0.0,0.0,0.0,0.0,0.0,0.0,0.0,0.0,0.0,0.0,0.0,0.0,0.0,0.0,0.0,0.0,0.0,0.0,0.0,0.0,0.0,0.0,0.0,0.0,0.0,0.0,0.0,0.0,0.0,0.0,0.0,0.0,0.0,0.0,0.0,0.0,0.0,0.0,0.0,0.0,0.0,0.0,0.0,0.0,0.0,0.0,0.0,0.0,0.0,0.0,0.0,0.0,0.0,0.0,0.0,0.0,0.0,0.0,0.0,0.0,0.0,0.0,0.0,0.0,0.0,0.0,0.0,0.0,0.0,0.0,0.0,0.0,0.0,0.0,0.0,0.0,0.0,0.0,0.0,0.0,0.0,0.0,0.0,0.0,0.0,0.0,0.0,0.0,0.0,0.0,0.0,0.0,0.0,0.0,0.0,0.0,0.0,0.0,0.0,0.0,0.0,0.0,0.0,0.0,0.0,0.0,0.0,0.0,0.0,0.0,0.0,0.0,0.0,0.0,0.0,0.0,0.0,0.0,0.0,0.0,0.0,0.0,0.0,0.0,0.0,0.0,0.0,0.0,0.0,0.0,0.0,0.0,0.0,0.0,0.0,0.0,0.0,0.0,0.0,0.0,0.0,0.0,0.0,0.0,0.0,0.0,0.0,0.0,0.0,0.0,0.0,0.0,0.0,0.0,0.0,0.0,0.0,0.0,0.0,0.0,0.0,0.0,0.0,0.0,0.0,0.0,0.0,0.0,0.0,0.0,0.0,0.0,0.0,0.0,0.0,0.0,0.0,0.0,0.0,0.0,0.0,0.0,0.0,0.0,0.0,0.0,0.0,0.0,0.0,0.0,0.0,0.0,0.0,0.0,0.0,0.0,0.0,0.0,0.0,0.0,0.0,0.0,0.0,0.0,0.0,0.0,0.0,0.0,0.0,0.0,0.0,0.0,0.0,0.0,0.0,0.0,0.0,0.0,0.0,0.0,0.0,0.0,0.0,0.0,0.0,0.0,0.0,0.0,0.0,0.0,0.0,0.0,0.0,0.0,0.0,0.0,0.0,0.0,0.0,0.0,0.0,0.0,0.0,0.0,0.0,0.0,0.0,0.0,0.0,0.0,0.0,0.0,0.0,0.0,0.0,0.0,0.0,0.0,0.0,0.0,0.0,0.0,0.0,0.0,0.0,0.0,0.0,0.0,0.0,0.0,0.0,0.0,0.0,0.0,0.0,0.0,0.0,0.0,0.0,0.0,0.0,0.0,0.0,0.0,0.0,0.0,0.0,0.0,0.0,0.0,0.0,0.0,0.0,0.0,0.0,0.0,0.0,0.0,0.0,0.0,0.0,0.0,0.0,0.0,0.0,0.0,0.0,0.0,0.0,0.0,0.0,0.0,0.0,0.0,0.0,0.0,0.0,0.0,0.0,0.0,0.0,0.0,0.0,0.0,0.0,0.0,0.0,0.0,0.0,0.0,0.0,0.0,0.0,0.0,0.0,0.0,0.0,0.0,0.0,0.0,0.0,0.0,0.0,0.0,0.0,0.0,0.0,0.0,0.0,0.0,0.0,0.0,0.0,0.0,0.0,0.0,0.0,0.0,0.0,0.0,0.0,0.0,0.0,0.0,0.0,0.0,0.0,0.0,0.0,0.0,0.0,0.0,0.0,0.0,0.0,0.0,0.0,0.0,0.0,0.0,0.0,0.0,0.0,0.0,0.0,0.0,0.0,0.0,0.0,0.0,0.0,0.0,0.0,0.0,0.0,0.0,0.0,0.0,0.0,0.0,0.0,0.0,0.0,0.0,0.0,0.0,0.0,0.0,0.0,0.0,0.0,0.0,0.0,0.0,0.0,0.0,0.0,0.0,0.0,0.0,0.0,0.0,0.0,0.0,0.0,0.0,0.0,0.0,0.0,0.0,0.0,0.0,0.0,0.0,0.0,0.0,0.0,0.0,0.0,0.0,0.0,0.0,0.0,0.0,0.0,0.0,0.0,0.0,0.0,0.0,0.0,0.0,0.0,0.0,0.0,0.0,0.0,0.0,0.0,-0.9937,0.0,0.0,0.0,0.0,0.0,0.0,0.0,0.0,0.0,0.0,0.0,0.0,0.0,0.0,0.0,0.0,0.0,0.0,0.0,0.0,0.0,0.0,0.0,0.0,0.1845,0.1862,0.1762,0.1636,0.153,0.1424,0.0,0.0,0.0,0.0,0.0,0.0977,0.0912,0.0909,0.1014,0.1253,0.1479,0.1723,0.2013,0.2248,0.2382,0.0,0.0,0.0,0.0,0.0,0.0,0.0,0.0,0.0,0.0,0.0,0.0,0.0,0.0,0.0,0.0,0.0,0.0,0.0,0.0,0.0,0.0,0.0,0.0,0.0,0.0,0.0,0.0,0.0,0.0,0.0,0.0,0.0,0.0,0.0,0.0,0.0,0.0,0.0,0.0,0.0,0.0,0.0,0.0,0.0,0.0,0.0,0.0,0.0,0.0,0.0,0.0,0.0,0.0,0.0,0.0,0.0,0.0,0.0,0.0,0.0,0.0,0.0,0.0,0.0,0.0,0.0,0.0,0.0,0.0,0.0,-1.0306,0.0,0.0,0.0,0.0,0.0,0.0,0.0,0.0,0.0,0.0,0.0,0.0,0.0,0.0,0.0,0.0,0.0,0.0,0.0,0.0,0.0,0.1544,0.1092,0.128,0.1376,0.1195,0.1071,0.0996,0.0909,0.0,0.0,0.0,0.0,0.02,0.0222,0.0135,0.0235,0.0548,0.0751,0.1008,0.1279,0.147,0.0,0.0,0.2136,0.0,0.0,0.0,0.0,0.0,0.0,0.0,0.0,0.0,0.0,0.0,0.0,0.0,0.0,0.0,0.0,0.0,0.0,0.0,0.0,0.0,0.0,0.0,0.0,0.0,0.0,0.0,0.0,0.0,0.0,0.0,0.0,0.0,0.0,0.0,0.0,0.0,0.0,0.0,0.0,0.0,0.0,0.0,0.0,0.0,0.0,0.0,0.0,0.0,0.0,0.0,0.0,0.0,0.0,0.0,0.0,0.0,0.0,0.0,0.0,0.0,0.0,0.0,-1.2767,-1.2964,-1.2866,-1.3558,-1.3699,-1.3296,-1.1751,-1.1444,-1.1959,0.0,0.0,0.0,0.0,0.0,0.0,0.0,0.0,0.0,0.0,0.0,0.0,0.0,0.0,0.0,0.0,0.0,0.0,0.0,0.0,0.0454,0.0049,0.0299,0.0308,-0.0108,0.0155,0.0275,0.0148,0.0,0.0,0.0,-0.0423,-0.0646,-0.0468,-0.0933,-0.0921,-0.0427,0.006,0.0325,0.0397,0.0,0.0,0.0,0.1757,0.1813,0.0,0.0,0.0,0.0,0.0,0.0,0.0,0.0,0.0,0.0,0.0,0.0,0.0,0.0,0.0,0.0,0.0,0.0,0.0,0.0,0.0,0.0,0.0,0.0,0.0,0.0,0.0,0.0,0.0,0.0,0.0,0.0,0.0,0.0,0.0,0.0,0.0,0.0,0.0,0.0,0.0,0.0,-0.6787,-0.6996,0.0,0.0,0.0,0.0,0.0,0.0,0.0,0.0,0.0,0.0,0.0,0.0,0.0,0.0,-1.3032,-1.4364,-1.4718,-1.4121,-1.5046,-1.5223,-1.4768,-1.4869,-1.4888,-1.4814,-1.4194,0.0,-1.2887,-1.2169,0.0,0.0,0.0,0.0,0.0,0.0,0.0,0.0,0.0,0.0,0.0,0.0,0.0,0.0,0.0,0.0,0.0,0.0,0.0,0.0,0.0,-0.0378,-0.0314,-0.056,-0.0521,-0.0511,0.0,0.0,0.0,-0.0739,-0.1198,-0.1406,-0.1286,-0.157,-0.1496,-0.1004,-0.0647,-0.0382,0.0,0.0,0.0,0.0,0.0,0.0,0.0,0.0,0.0,0.0,0.0,0.0,0.0,0.0,0.0,0.0,0.0,0.0,0.0,0.0,0.0,0.0,0.0,0.0,0.0,0.0,0.0,0.0,0.0,0.0,0.0,0.0,0.0,0.0,0.0,0.0,0.0,0.0,0.0,0.0,0.0,0.0,0.0,0.0,0.0,0.0,0.0,-0.6597,-0.7638,-0.8002,-0.8417,-0.8487,0.0,0.0,0.0,0.0,0.0,0.0,0.0,0.0,0.0,-1.2273,-1.357,-1.4294,-1.4354,-1.5161,-1.5457,-1.5175,-1.5724,-1.5807,-1.5577,-1.5863,-1.5835,-1.5748,-1.5687,-1.5454,-1.4888,-1.3617,-1.2624,-1.1865,0.0,0.0,0.0,0.0,0.0,-1.0988,0.0,0.0,0.0,0.0,0.0,0.0,0.0,0.0,0.0,0.0,0.0,0.0,-0.1211,-0.1003,-0.0924,-0.1082,0.0,0.0,0.0,0.0,0.0,-0.1484,-0.199,-0.2203,-0.2022,-0.2181,-0.2114,0.0,0.0,0.0,0.0,0.0,0.0,0.0,0.0,0.0,0.0,0.0,0.0,0.0,0.0,0.0,0.0,0.0,0.0,0.0,0.0,0.0,0.0,0.0,0.0,0.0,0.0,0.0,0.0,0.0,0.0,0.0,0.0,0.0,0.0,0.0,0.0,0.0,0.0,0.0,0.0,0.0,0.0,0.0,0.0,0.0,0.0,0.0,0.0,0.0,0.0,-0.7739,-0.8688,-0.9291,-0.9856,-1.0083,0.0,0.0,0.0,0.0,0.0,0.0,-1.164,-1.3133,-1.4137,-1.4505,-1.5463,-1.5989,-1.6028,-1.6243,-1.6437,-1.6627,-1.6769,-1.6845,-1.6855,-1.7167,-1.7005,-1.6553,-1.6738,-1.6722,-1.6351,-1.4893,-1.3932,-1.3285,-1.3334,-1.3086,-1.2817,-1.3131,-1.2705,-1.2033,0.0,0.0,0.0,0.0,0.0,0.0,0.0,0.0,0.0,0.0,0.0,-0.1481,0.0,0.0,0.0,0.0,0.0,0.0,0.0,0.0,0.0,-0.1899,-0.2817,-0.3112,-0.2666,-0.2853,0.0,0.0,0.0,0.0,0.0,0.0,0.0,0.0,0.0,0.0,0.0,0.0,0.0,0.0,0.0,0.0,0.0,0.0,0.0,0.0,0.0,0.0,0.0,0.0,0.0,0.0,0.0,0.0,0.0,0.0,0.0,0.0,0.0,0.0,0.0,0.0,0.0,0.0,0.0,0.0,0.0,0.0,0.0,0.0,0.0,0.0,0.0,0.0,0.0,0.0,0.0,0.0,0.0,-1.1564,-1.1379,0.0,0.0,0.0,0.0,-1.0405,-1.1873,-1.3256,-1.427,-1.5199,-1.6313,-1.7706,-1.7805,-1.8066,-1.8486,-1.8152,-1.8349,-1.9121,-1.9121,-1.9111,-1.9121,-1.9141,-1.8567,-1.7403,-1.7422,-1.7,-1.6287,-1.5754,-1.5613,-1.5657,-1.4968,-1.4779,-1.4781,-1.4123,-1.3648,-1.3279,0.0,0.0,0.0,-0.2376,-0.2267,-0.2158,-0.203,-0.1894,-0.1759,-0.1689,-0.1771,0.0,0.0,0.0,0.0,0.0,0.0,0.0,0.0,0.0,0.0,-0.2942,-0.352,-0.394,-0.4187,-0.4297,-0.4158,0.0,0.0,0.0,0.0,0.0,0.0,0.0,0.0,0.0,0.0,0.0,0.0,0.0,0.0,0.0,0.0,0.0,0.0,0.0,0.0,0.0,0.0,0.0,0.0,0.0,0.0,0.0,0.0,0.0,0.0,0.0,0.0,0.0,0.0,0.0,0.0,0.0,0.0,0.0,0.0,0.0,0.0,0.0,0.0,0.0,0.0,0.0,0.0,0.0,0.0,0.0,0.0,-1.1948,-1.2224,0.0,0.0,-1.3086,-1.3588,-1.3439,-1.4831,-1.5848,-1.6203,-1.6838,-1.7481,-1.7961,-1.8547,-1.8663,-1.8328,-1.917,-1.9528,-1.9321,-1.9971,-2.0257,-2.0257,-2.0389,-2.0022,-1.9239,-1.9085,-1.8705,-1.8232,-1.7796,-1.7026,-1.6027,-1.5573,-1.557,-1.5737,-1.5249,-1.4507,-1.3631,-0.2902,-0.2896,0.0,-0.2567,-0.2502,-0.242,-0.2267,-0.2114,-0.2001,-0.1917,-0.2082,0.0,0.0,0.0,0.0,0.0,0.0,0.0,0.0,0.0,-0.3739,-0.3565,-0.4025,-0.4622,-0.5359,-0.5318,0.0,0.0,0.0,0.0,0.0,0.0,0.0,0.0,0.0,0.0,0.0,0.0,0.0,0.0,0.0,0.0,-0.0723,0.0,0.0,0.0,0.0,0.0,0.0,0.0,0.0,0.0,0.0,0.0,0.0,0.0,0.0,0.0,0.0,0.0,0.0,0.0,0.0,0.0,0.0,0.0,0.0,0.0,0.0,0.0,0.0,0.0,0.0,0.0,0.0,0.0,0.0,0.0,-1.2231,-1.3263,-1.3704,-1.398,-1.4218,-1.5189,-1.5802,-1.5802,-1.678,-1.7648,-1.8229,-1.8572,-1.9106,-1.9799,-2.0124,-2.0119,-1.9772,-2.0553,-2.0834,-2.0689,-2.1352,-2.165,-2.1711,-2.1854,-2.1339,-2.0276,-2.0194,-1.9677,-1.8995,-1.8711,-1.7915,-1.6891,-1.6559,-1.6486,-1.6618,-1.629,-1.5344,-1.4062,-0.3208,-0.3208,-0.3159,-0.3041,-0.2896,-0.2789,-0.2724,-0.2599,-0.2521,-0.2506,0.0,0.0,0.0,0.0,0.0,0.0,0.0,0.0,0.0,-0.4416,-0.4487,-0.3789,-0.434,-0.5121,-0.6087,0.0,0.0,0.0,0.0,0.0,0.0,0.0,0.0,0.0,0.0,0.0,0.0,0.0,0.0,0.0,0.0,0.0,-0.0969,0.0,0.0,0.0,0.0,0.0,0.0,0.0,0.0,0.0,0.0,0.0,0.0,0.0,0.0,0.0,0.0,0.0,0.0,0.0,0.0,0.0,0.0,0.0,0.0,0.0,0.0,0.0,0.0,0.0,0.0,0.0,0.0,0.0,-1.3641,-1.3362,-1.3787,-1.5512,-1.5829,-1.5953,-1.6148,-1.6827,-1.7315,-1.7315,-1.7674,-1.8674,-2.0285,-2.0373,-2.1263,-2.3315,-2.2584,-2.2426,-2.299,-2.222,-2.236,-2.3254,-2.3327,-2.339,-2.3514,-2.3526,-2.2453,-2.0511,-2.0511,-1.9762,-1.8443,-1.8443,-1.8434,-1.8387,-1.7987,-1.7727,-1.7508,-1.7351,-1.6281,-1.4721,-0.3541,-0.3493,-0.3395,-0.3374,-0.3247,-0.3147,-0.3074,-0.3031,-0.2896,0.0,0.0,0.0,0.0,0.0,0.0,0.0,0.0,0.0,0.0,0.0,-0.4508,-0.4847,-0.5452,0.0,0.0,0.0,0.0,0.0,0.0,0.0,0.0,0.0,0.0,0.0,0.0,0.0,0.0,0.0,0.0,0.0,0.0,0.0,-0.2314,0.0,0.0,0.0,0.0,0.0,0.0,0.0,0.0,0.0,0.0,0.0,0.0,0.0,0.0,0.0,0.0,0.0,0.0,0.0,0.0,0.0,0.0,0.0,0.0,0.0,0.0,0.0,0.0,0.0,0.0,0.0,0.0,-1.4109,-1.3843,-1.4391,-1.5068,-1.5605,-1.6077,-1.644,-1.6796,-1.8448,-1.9454,-1.9454,-2.0658,-2.1536,-2.2021,-2.1842,-2.1955,-2.254,-2.2703,-2.2552,-2.2145,-2.3054,-2.3361,-2.3065,-2.3655,-2.3959,-2.402,-2.4177,-2.3272,-2.1645,-2.1634,-2.0817,-1.9446,-1.9204,-1.9037,-1.8967,-1.848,-1.8309,-1.8351,-1.8278,-1.7304,-1.5715,-0.3689,-0.364,-0.3563,-0.3515,-0.3437,-0.3359,-0.326,-0.3239,-0.3152,-0.2928,0.0,0.0,0.0,0.0,0.0,0.0,0.0,0.0,-0.5143,-0.5135,-0.5504,0.0,0.0,0.0,0.0,0.0,0.0,0.0,0.0,0.0,0.0,0.0,0.0,0.0,0.0,0.0,0.0,0.0,0.0,0.0,0.0,0.0,-0.3306,-0.2941,-0.2656,-0.2374,-0.1891,-0.1928,-0.2202,-0.2279,0.0,0.0,0.0,0.0,0.0,0.0,0.0,0.0,0.0,0.0,0.0,0.0,0.0,0.0,0.0,0.0,0.0,0.0,0.0,0.0,0.0,0.0,0.0,0.0,-1.6025,-1.6155,-1.609,-1.6023,-1.6233,-1.7016,-1.754,-1.8119,-1.8735,-2.0131,-2.1039,-2.1306,-2.2159,-2.2867,-2.3282,-2.3151,-2.3257,-2.3671,-2.3958,-2.3971,-2.371,-2.4435,-2.4642,-2.4192,-2.4499,-2.4542,-2.449,-2.4574,-2.3959,0.0,-2.266,-2.1756,-2.0323,-2.0079,-1.9712,0.0,0.0,0.0,0.0,0.0,-1.7026,-1.5932,-0.3765,-0.3751,-0.3723,-0.3605,-0.3577,-0.3521,-0.3402,-0.3381,-0.3344,-0.3304,0.0,0.0,0.0,0.0,0.0,0.0,0.0,0.0,0.0,0.0,0.0,0.0,0.0,0.0,0.0,0.0,0.0,0.0,0.0,0.0,0.0,0.0,0.0,0.0,0.0,0.0,0.0,0.0,0.0,0.0,0.0,0.0,-0.4072,-0.3652,-0.3448,-0.3262,-0.2449,-0.2339,-0.2585,-0.2555,0.0,0.0,0.0,0.0,0.0,0.0,0.0,0.0,0.0,0.0,0.0,0.0,0.0,0.0,0.0,0.0,0.0,0.0,0.0,0.0,0.0,0.0,0.0,0.0,-1.7904,-1.8955,-1.9279,-1.8016,-1.7553,-1.902,-1.9552,-2.0197,-2.1078,-2.1675,-2.2226,-2.2731,-2.2937,-2.3398,-2.4235,0.0,0.0,0.0,0.0,-2.6012,-2.6382,-2.6012,-2.5931,-2.5982,-2.5612,-2.523,-2.4966,-2.4966,-2.4507,-2.3687,-2.3601,-2.2584,-2.0936,-2.0858,-2.0205,-1.9344,-1.914,-1.9005,-1.8676,-1.724,-1.6546,-1.6069,-0.4145,-0.4104,-0.4104,-0.4076,-0.4027,-0.3965,-0.3877,-0.3828,-0.3671,-0.3349,-0.366,0.0,0.0,0.0,0.0,0.0,0.0,0.0,0.0,0.0,0.0,0.0,0.0,0.0,0.0,0.0,0.0,0.0,0.0,0.0,0.0,0.0,0.0,0.0,0.0,0.0,0.0,0.0,0.0,0.0,0.0,0.0,-0.5529,-0.4772,-0.4295,-0.388,-0.3253,-0.3134,-0.3249,-0.3343,-0.3289,-0.3261,-0.3384,0.0,0.0,0.0,0.0,0.0,0.0,0.0,0.0,0.0,0.0,0.0,0.0,0.0,0.0,0.0,0.0,0.0,0.0,0.0,0.0,-1.882,-1.9205,-1.954,-2.0341,-2.0008,-1.9678,-1.975,-2.0299,-2.0737,-2.0974,-2.193,-2.2674,-2.2979,-2.4255,-2.4947,-2.4637,-2.5789,0.0,-2.6212,-2.6557,-2.6772,-2.6848,-2.6772,-2.68,-2.6767,0.0,0.0,-2.6012,-2.6012,-2.5383,-2.4282,-2.3488,-2.2487,-2.1134,-2.0443,-1.9854,-1.9548,-1.9474,-1.9547,-1.9627,-1.916,-1.8592,-1.7987,-0.4615,-0.4403,-0.4256,-0.4256,-0.4215,-0.4166,-0.4104,-0.3973,-0.3851,-0.366,-0.3774,0.0,0.0,0.0,0.0,0.0,0.0,0.0,0.0,0.0,0.0,0.0,0.0,0.0,0.0,0.0,0.0,0.0,0.0,0.0,0.0,0.0,0.0,0.0,0.0,0.0,0.0,0.0,0.0,0.0,0.0,0.0,-0.6639,-0.5541,-0.5096,-0.4897,-0.3917,-0.3684,-0.3741,-0.3831,-0.3829,-0.3828,-0.3951,-0.4003,-0.3988,0.0,0.0,0.0,0.0,0.0,0.0,0.0,0.0,0.0,0.0,0.0,0.0,0.0,0.0,-1.5966,0.0,0.0,-1.8518,-1.9623,-2.0182,-2.0722,-2.1428,-2.1436,-2.1146,-2.0606,-2.1079,-2.1705,-2.2227,-2.301,-2.3781,-2.442,-2.5175,-2.569,-2.5889,-2.6629,-2.7055,-2.7082,-2.734,-2.7574,-2.7717,-2.7639,-2.7584,-2.756,-2.7384,-2.7088,-2.6685,-2.6685,-2.6218,-2.5349,-2.4949,-2.3774,-2.204,-2.057,-1.9687,-1.9469,-1.9469,-1.9548,-1.9715,-1.9311,-1.8904,-1.823,-0.5049,-0.4715,-0.4399,-0.4366,-0.4326,-0.4285,-0.4236,-0.4084,-0.3958,-0.3988,-0.3908,-0.3865,-0.3901,-0.4368,-0.4729,0.0,0.0,0.0,0.0,0.0,0.0,0.0,0.0,0.0,0.0,0.0,0.0,0.0,0.0,0.0,0.0,0.0,0.0,0.0,0.0,0.0,0.0,0.0,0.0,0.0,0.0,0.0,-0.741,-0.6097,-0.5731,-0.5673,-0.4447,-0.4037,-0.4144,-0.4188,-0.4289,-0.4401,-0.4459,-0.4503,-0.4451,-0.4353,-0.4481,0.0,0.0,0.0,0.0,0.0,0.0,0.0,0.0,0.0,-1.4891,-1.6023,-1.6854,-1.7678,-1.8575,-1.9344,-1.9874,-2.01,-2.0978,-2.1845,-2.2339,-2.2414,-2.2179,-2.1584,-2.1993,-2.2627,-2.3508,-2.4026,-2.4707,-2.5619,-2.5796,-2.6182,-2.7023,-2.7321,-2.766,-2.803,-2.8122,-2.8283,-2.859,-2.8486,-2.844,-2.8338,-2.8159,-2.7851,-2.7375,-2.7375,-2.7148,-2.6665,-2.6223,-2.4859,-2.2757,-2.0795,-1.9765,-1.9301,-1.9301,-1.939,-1.9478,-1.8984,-1.8656,-1.8256,-0.5328,-0.5078,-0.4774,-0.4593,-0.4419,-0.4305,-0.4285,-0.4215,-0.4112,-0.3934,-0.4201,-0.4377,-0.4257,-0.4716,-0.5315,-0.6025,0.0,0.0,0.0,0.0,0.0,0.0,0.0,0.0,0.0,0.0,0.0,0.0,0.0,0.0,0.0,0.0,0.0,0.0,0.0,0.0,0.0,0.0,0.0,0.0,0.0,0.0,-0.7735,-0.6502,-0.5883,-0.5586,-0.4628,-0.4303,-0.4376,-0.4491,-0.4579,-0.4654,-0.4548,-0.4443,-0.4418,-0.4447,0.0,-0.4884,-0.5318,-0.6795,0.0,-1.0489,-1.1567,-1.2611,0.0,0.0,-1.6494,-1.7112,-1.7874,-1.8601,-1.9182,-1.9598,-2.0125,-2.1142,-2.182,-2.2351,-2.2795,-2.2822,-2.2809,-2.2701,-2.3059,-2.3304,-2.329,-2.389,-2.4566,-2.5324,-2.6253,-2.6752,-2.6799,-2.8138,-2.8755,-2.8431,-2.8749,-2.8973,-2.9052,-2.9197,-2.9238,-2.9254,-2.9447,-2.9344,-2.888,-2.888,-2.8633,-2.8112,-2.6104,-2.405,-2.1942,-2.0878,-1.997,-1.9301,-1.9301,-1.9301,-1.9301,-1.9222,-1.9222,-1.8975,-0.5641,-0.53,-0.4961,-0.4952,-0.4624,-0.4358,-0.4358,-0.4228,-0.4138,-0.4133,-0.4208,-0.4271,-0.4301,-0.4955,-0.5631,-0.6235,-0.6548,0.0,0.0,0.0,0.0,0.0,0.0,0.0,0.0,0.0,0.0,0.0,0.0,0.0,0.0,0.0,0.0,0.0,0.0,0.0,0.0,0.0,0.0,0.0,0.0,0.0,-0.8047,-0.6806,-0.6277,-0.6021,-0.4987,-0.4542,0.0,0.0,-0.4645,-0.4618,-0.4688,-0.4739,-0.475,-0.4822,-0.5127,0.0,-0.6709,0.0,0.0,0.0,-1.2456,-1.3707,-1.446,-1.5656,-1.6934,-1.7867,-1.8571,-1.9245,-1.9953,-2.0604,-2.1116,0.0,-2.2221,-2.2815,-2.2992,-2.2969,-2.2909,-2.2909,-2.3629,-2.4107,-2.3989,-2.4711,-2.5586,-2.6354,-2.6704,-2.7131,-2.7731,-2.8378,-2.8669,-2.851,-2.8657,-2.8736,-2.8736,-2.9052,-2.9197,-2.9197,-2.9624,-2.9624,-2.9275,-2.9275,-2.8961,-2.8235,-2.6473,-2.4589,-2.2615,-2.1688,-2.0528,-1.9301,-1.9301,-1.9301,-1.9301,-1.9301,-1.9301,-1.9054,-0.5856,-0.552,-0.5195,-0.5252,-0.4873,-0.4552,-0.4472,-0.4342,-0.4281,-0.4407,-0.433,-0.4362,-0.4624,-0.5232,-0.5814,-0.6363,-0.6678,-0.7049,0.0,0.0,0.0,0.0,0.0,0.0,0.0,0.0,0.0,0.0,0.0,0.0,0.0,0.0,0.0,0.0,0.0,0.0,0.0,0.0,0.0,0.0,0.0,0.0,-0.8047,-0.6927,-0.6437,-0.6173,-0.5101,-0.4712,0.0,0.0,-0.4737,-0.4754,-0.4868,-0.5018,-0.5174,-0.5301,-0.5835,-0.6608,-0.7673,0.0,0.0,-1.1306,-1.2735,-1.4082,-1.4373,-1.5596,-1.6961,-1.804,-1.8891,-1.9595,-2.0231,-2.1211,0.0,-2.1549,-2.2548,-2.3314,-2.3103,-2.3094,-2.307,-2.2982,-2.3953,-2.4561,-2.4406,-2.5339,-2.6149,-2.6833,-2.6914,-2.7332,-2.8246,-2.8426,-2.851,-2.851,-2.851,-2.851,-2.851,-2.8895,-2.9131,-2.9131,-2.9546,-2.9702,-2.9509,-2.9509,-2.904,-2.8247,-2.7105,-2.5407,-2.3433,-2.2514,-2.106,-1.9539,-1.9381,-1.9301,-1.9301,-1.9301,-1.9301,-1.9054,-0.597,-0.5822,-0.5625,-0.5434,-0.5175,-0.4892,-0.4633,-0.4593,-0.4613,-0.4691,-0.4691,-0.4906,-0.5496,-0.5587,-0.589,-0.6619,-0.6591,-0.681,-0.7466,-0.7311,0.0,0.0,0.0,0.0,0.0,0.0,0.0,0.0,0.0,0.0,0.0,0.0,0.0,0.0,0.0,0.0,0.0,0.0,0.0,0.0,0.0,0.0,-0.7526,-0.6809,-0.6228,-0.5733,-0.491,0.0,0.0,0.0,-0.4841,-0.524,-0.5049,-0.5234,0.0,-0.5867,-0.6702,0.0,0.0,0.0,-1.036,-1.0968,-1.2072,-1.3304,-1.4258,-1.5556,-1.6754,-1.7549,-1.8719,-1.9603,-1.9725,-2.0901,-2.1784,-2.1549,-2.2887,-2.3778,-2.3153,-2.3418,-2.3555,-2.314,-2.4016,-2.4496,0.0,-2.5259,-2.599,-2.6154,-2.6622,-2.7176,-2.7717,-2.8234,-2.851,-2.851,-2.851,-2.851,-2.851,-2.8895,-2.9131,-2.9131,-2.9546,-2.9792,-2.9792,-2.9792,-2.9312,-2.8486,-2.7933,-2.6352,-2.4039,-2.2961,-2.1567,-2.0089,-1.9539,-1.9301,-1.9301,-1.9301,-1.9301,-1.9143,-0.5904,-0.5811,-0.5681,-0.5622,-0.53,-0.5078,-0.5127,-0.4843,-0.468,-0.4928,-0.5194,0.0,0.0,0.0,0.0,0.0,-0.7017,-0.7233,-0.7433,-0.736,0.0,0.0,0.0,0.0,0.0,0.0,0.0,0.0,0.0,0.0,0.0,0.0,0.0,0.0,0.0,0.0,0.0,0.0,0.0,0.0,0.0,0.0,-0.7709,-0.7534,-0.6814,-0.5797,0.0,0.0,0.0,0.0,0.0,0.0,-0.5074,0.0,0.0,-0.632,0.0,0.0,0.0,0.0,-1.044,-1.0919,-1.2478,-1.3903,-1.4183,-1.5417,-1.672,-1.7537,-1.826,-1.9008,-1.9806,-2.0828,-2.1705,-2.2271,-2.3243,-2.3996,-2.4115,-2.4092,-2.4085,-2.3887,-2.4386,0.0,0.0,0.0,0.0,-2.613,-2.6747,-2.7303,-2.7693,-2.8222,-2.851,-2.851,-2.851,-2.851,-2.851,-2.8736,-2.8961,-2.9131,-2.9365,-2.9509,-2.9521,-2.9378,-2.9131,-2.8633,-2.8215,-2.7032,-2.5236,-2.3642,-2.2229,-2.0858,-1.972,-1.9301,-1.9301,-1.9301,-1.9301,-1.9143,-0.5763,-0.5906,-0.5914,-0.5644,-0.5529,0.0,0.0,0.0,0.0,0.0,0.0,0.0,0.0,0.0,0.0,0.0,0.0,-0.7309,-0.7392,0.0,0.0,0.0,0.0,0.0,0.0,0.0,0.0,0.0,0.0,0.0,0.0,0.0,0.0,0.0,0.0,0.0,0.0,0.0,0.0,0.0,0.0,0.0,-0.7852,-0.7702,-0.6961,0.0,0.0,0.0,0.0,0.0,0.0,0.0,0.0,0.0,0.0,0.0,0.0,-0.8098,0.0,-0.9516,-1.0343,-1.0856,-1.2333,-1.3741,-1.4015,-1.5126,-1.629,-1.7194,-1.7774,-1.8372,-1.9336,-2.0261,-2.122,-2.2324,-2.3339,-2.4256,-2.4878,-2.5165,-2.5203,-2.5077,-2.5567,0.0,0.0,0.0,0.0,-2.6154,-2.6854,-2.7496,-2.7705,-2.8222,-2.851,-2.851,-2.851,-2.851,-2.851,-2.8724,-2.8882,-2.9131,-2.9197,-2.9275,-2.9275,-2.9197,-2.904,-2.8803,-2.8566,-2.762,-2.6052,-2.4266,-2.2752,-2.1362,-1.9767,-1.9222,-1.9152,-1.9073,-1.9152,-1.9143,-0.5579,-0.6067,-0.625,0.0,0.0,0.0,0.0,0.0,0.0,0.0,0.0,0.0,0.0,0.0,0.0,0.0,0.0,0.0,0.0,0.0,0.0,0.0,0.0,0.0,-0.8581,-0.8867,0.0,0.0,0.0,0.0,0.0,0.0,0.0,0.0,0.0,0.0,0.0,0.0,0.0,0.0,0.0,0.0,-0.7923,-0.7319,0.0,0.0,0.0,0.0,0.0,0.0,0.0,0.0,0.0,0.0,0.0,0.0,0.0,-0.8551,-0.9074,-0.9505,-1.0,-1.0772,-1.1748,-1.28,-1.3778,-1.4653,-1.5529,-1.6622,-1.7273,-1.7821,0.0,0.0,-2.0561,-2.1813,-2.3349,-2.4718,-2.5612,-2.6467,-2.69,0.0,0.0,0.0,0.0,0.0,0.0,-2.6433,0.0,-2.7717,-2.7717,-2.8222,-2.851,-2.851,-2.851,-2.851,-2.851,-2.8724,-2.8882,-2.9052,-2.9131,-2.9131,-2.9131,-2.9275,-2.9184,-2.8791,-2.8973,-2.8186,-2.6697,-2.4722,-2.3129,-2.1748,-1.9767,-1.9002,-1.8922,-1.8772,-1.8851,-1.9002,0.0,0.0,0.0,0.0,0.0,0.0,0.0,0.0,0.0,0.0,0.0,0.0,0.0,0.0,0.0,0.0,0.0,0.0,0.0,0.0,0.0,0.0,0.0,0.0,0.0,0.0,0.0,0.0,0.0,0.0,0.0,0.0,0.0,0.0,0.0,0.0,0.0,0.0,0.0,0.0,0.0,0.0,-0.8033,0.0,0.0,0.0,0.0,0.0,0.0,0.0,0.0,0.0,0.0,0.0,-0.7688,0.0,0.0,-0.874,-0.9354,-0.9622,-0.998,-1.0584,-1.1705,-1.2749,-1.3056,-1.4125,-1.5303,-1.6149,-1.664,-1.7398,-1.8879,0.0,0.0,-2.3008,-2.4525,0.0,-2.6599,-2.7256,0.0,0.0,0.0,-2.8499,-2.9072,-2.9489,0.0,0.0,-2.8349,-2.7859,-2.7717,-2.8222,-2.851,-2.851,-2.851,-2.851,-2.851,-2.8724,-2.8803,-2.8882,-2.9052,-2.9131,-2.9131,-2.9131,-2.9131,-2.9052,-2.8736,-2.804,-2.6866,-2.506,-2.3387,-2.1748,-2.0222,-1.9301,-1.8772,-1.87,-1.87,-1.8772,0.0,0.0,0.0,0.0,0.0,0.0,0.0,0.0,0.0,0.0,0.0,0.0,0.0,0.0,0.0,0.0,0.0,0.0,0.0,0.0,0.0,0.0,0.0,0.0,0.0,0.0,0.0,0.0,0.0,0.0,0.0,0.0,0.0,0.0,0.0,0.0,0.0,0.0,0.0,0.0,0.0,0.0,0.0,0.0,0.0,0.0,0.0,0.0,0.0,0.0,0.0,-0.6587,-0.6789,-0.7395,-0.8003,-0.8282,0.0,-0.9019,-0.973,-1.0109,-1.0446,-1.0718,-1.1859,-1.2912,-1.3046,-1.4087,-1.5255,-1.6181,-1.6497,0.0,0.0,0.0,0.0,0.0,0.0,0.0,-2.6858,-2.7714,-2.8492,0.0,-2.9672,0.0,-3.0759,-3.0891,-3.0996,0.0,-2.9605,-2.8728,-2.8574,-2.85,-2.851,-2.851,-2.851,-2.851,-2.851,-2.8578,-2.8657,-2.8657,-2.8816,-2.8828,-2.8828,-2.8895,-2.8961,-2.8949,0.0,-2.7981,-2.7179,-2.5237,-2.3675,-2.2366,-2.0527,-1.9529,-1.9073,-1.8603,-1.8451,-1.8531,0.0,0.0,0.0,0.0,0.0,0.0,0.0,0.0,0.0,0.0,0.0,0.0,0.0,0.0,0.0,0.0,0.0,0.0,0.0,0.0,0.0,0.0,0.0,0.0,0.0,0.0,0.0,0.0,0.0,0.0,0.0,0.0,0.0,0.0,0.0,0.0,0.0,0.0,0.0,0.0,0.0,0.0,0.0,0.0,0.0,0.0,0.0,0.0,0.0,0.0,-0.6749,-0.7126,-0.7144,-0.7653,-0.8318,-0.8579,-0.8848,-0.9255,-1.0018,-1.0616,-1.0964,-1.0871,-1.1926,-1.2998,-1.323,-1.4083,-1.5177,-1.6368,0.0,0.0,-1.7855,0.0,-1.9487,-2.1105,0.0,-2.4751,-2.6776,-2.802,-2.9181,-3.0502,-3.1148,-3.1766,-3.2386,-3.2315,-3.2232,-3.2232,-3.082,-2.9922,-2.9704,-2.9106,-2.8736,-2.8657,-2.8657,-2.8578,-2.851,-2.851,-2.851,-2.851,-2.851,-2.851,-2.851,-2.8585,-2.8652,-2.8767,0.0,0.0,-2.7382,-2.5291,-2.3928,-2.2881,-2.0576,-1.9599,-1.9283,-1.8353,-1.8121,-1.8273,0.0,0.0,0.0,0.0,0.0,0.0,0.0,0.0,0.0,0.0,0.0,0.0,0.0,0.0,0.0,0.0,0.0,0.0,0.0,0.0,0.0,0.0,0.0,0.0,0.0,0.0,0.0,0.0,0.0,0.0,0.0,0.0,0.0,0.0,0.0,0.0,0.0,0.0,0.0,0.0,0.0,0.0,0.0,0.0,0.0,0.0,0.0,0.0,0.0,0.0,-0.7104,-0.7159,-0.7448,-0.7725,-0.8059,-0.8482,-0.8756,-0.9023,-0.9703,-1.0028,-1.0285,-1.0667,-1.142,-1.2199,-1.2482,-1.3392,0.0,0.0,0.0,-1.6964,-1.8433,-1.9255,0.0,-2.2054,0.0,0.0,0.0,0.0,-2.935,0.0,0.0,0.0,0.0,0.0,0.0,0.0,0.0,0.0,-2.9768,-3.0228,-3.0152,-2.9471,-2.9471,-2.9184,-2.851,-2.851,-2.851,-2.851,-2.851,-2.851,-2.8498,-2.8053,-2.8168,-2.853,0.0,0.0,-2.6464,-2.5327,-2.3578,-2.1436,-2.0634,-1.952,-1.8273,-1.8031,-1.804,-1.804,0.0,0.0,0.0,0.0,0.0,0.0,0.0,-0.6313,-0.6836,-0.7455,-0.7512,-0.7449,0.0,0.0,0.0,0.0,0.0,0.0,0.0,0.0,0.0,0.0,0.0,0.0,0.0,0.0,0.0,0.0,0.0,0.0,0.0,0.0,0.0,0.0,0.0,0.0,0.0,0.0,0.0,0.0,0.0,0.0,0.0,0.0,0.0,0.0,0.0,0.0,0.0,0.0,-0.7647,-0.7778,-0.7604,-0.7787,-0.8103,-0.8421,-0.8521,-0.8778,-0.9658,-1.0115,-1.0423,-1.0964,-1.1678,-1.2363,-1.2919,0.0,0.0,0.0,0.0,-1.7118,-1.8355,0.0,0.0,0.0,0.0,0.0,0.0,0.0,0.0,0.0,0.0,0.0,0.0,0.0,0.0,0.0,0.0,0.0,-3.1044,-3.0895,-3.0745,-3.038,-3.0291,-3.0152,-2.9781,-2.9328,-2.9106,-2.9106,-2.8736,-2.851,-2.8498,-2.8246,-2.8126,-2.8053,-2.7272,0.0,-2.6146,-2.5048,-2.3549,-2.1931,-2.0904,-1.9756,-1.8594,-1.8193,-1.804,-1.804,0.0,0.0,0.0,0.0,0.0,0.0,0.0,-0.6822,-0.7364,-0.8167,-0.8477,-0.8429,-0.7975,-0.7698,-0.7577,0.0,0.0,0.0,0.0,0.0,0.0,0.0,0.0,0.0,0.0,0.0,0.0,0.0,0.0,0.0,0.0,0.0,0.0,0.0,0.0,0.0,0.0,0.0,0.0,0.0,0.0,0.0,0.0,0.0,0.0,0.0,0.0,0.0,0.0,0.0,-0.7969,-0.8216,-0.7741,-0.7958,-0.8421,-0.8527,-0.858,-0.8784,-0.9762,-1.0269,-1.0728,-1.1318,-1.1977,-1.2618,-1.342,-1.4107,0.0,0.0,0.0,-1.7312,-1.8226,0.0,0.0,0.0,0.0,0.0,0.0,0.0,0.0,0.0,0.0,0.0,0.0,0.0,0.0,0.0,0.0,0.0,-3.239,-3.1563,-3.1193,-3.1193,-3.1193,-3.1031,-3.0895,-3.0075,-2.9704,-2.9704,-2.8882,-2.845,-2.833,-2.8222,-2.7945,-2.7512,-2.6863,0.0,0.0,-2.476,-2.3717,-2.2776,-2.1135,-2.0001,-1.9222,-1.8353,-1.804,-1.8121,0.0,0.0,0.0,0.0,0.0,0.0,0.0,-0.7351,-0.8123,-0.8514,-0.8745,-0.8866,-0.8949,-0.8844,-0.8645,0.0,0.0,0.0,0.0,0.0,0.0,0.0,0.0,0.0,0.0,0.0,0.0,0.0,0.0,0.0,0.0,0.0,0.0,0.0,0.0,0.0,0.0,0.0,0.0,0.0,0.0,0.0,0.0,0.0,0.0,0.0,0.0,0.0,0.0,0.0,0.0,-0.77,-0.7842,-0.8343,-0.8928,-0.9099,0.0,0.0,-0.9865,-1.0182,-1.06,-1.1318,-1.1828,-1.2412,-1.3389,0.0,0.0,0.0,-1.6811,-1.745,-1.8539,-1.9107,0.0,0.0,0.0,0.0,0.0,0.0,0.0,0.0,0.0,0.0,0.0,0.0,0.0,0.0,0.0,0.0,0.0,-3.239,-3.2001,-3.2001,-3.2001,-3.1636,-3.0895,-3.0075,-2.9704,-2.9704,-2.8882,-2.8258,-2.7777,-2.7296,-2.7055,-2.6947,0.0,0.0,0.0,-2.476,-2.3717,-2.2776,-2.1135,-2.0001,-1.9222,-1.8353,-1.8112,-1.8362,0.0,0.0,0.0,0.0,0.0,0.0,-0.669,-0.7424,-0.8154,-0.8875,-0.9134,-0.9376,-0.9658,-0.9751,-0.9446,-0.8565,0.0,0.0,0.0,0.0,0.0,0.0,0.0,0.0,0.0,0.0,0.0,0.0,0.0,0.0,0.0,0.0,0.0,0.0,0.0,0.0,0.0,0.0,0.0,0.0,0.0,0.0,0.0,0.0,0.0,0.0,0.0,0.0,0.0,0.0,0.0,0.0,-0.8476,-0.8864,0.0,0.0,-0.8903,-0.9187,-1.0219,-1.074,-1.1264,-1.2057,-1.2526,-1.3015,-1.3794,0.0,0.0,-1.6281,-1.7271,-1.812,-1.8693,-1.9354,-1.9935,0.0,0.0,0.0,0.0,0.0,0.0,0.0,0.0,0.0,0.0,0.0,0.0,0.0,0.0,0.0,0.0,-3.2708,-3.251,-3.2081,-3.2581,-3.2453,-3.1629,-3.1316,-3.0895,-3.0443,-2.9301,-2.8362,-2.7705,-2.7176,-2.6755,-2.6406,0.0,0.0,0.0,-2.456,-2.3401,-2.2081,-2.0904,-1.9687,-1.8514,-1.8112,-1.804,-1.8201,0.0,0.0,0.0,0.0,0.0,-0.6513,-0.6886,-0.7467,-0.8209,-0.9105,-0.9365,-0.9619,-1.0031,-1.0273,-0.9965,-0.9027,-0.8947,0.0,0.0,0.0,0.0,0.0,0.0,0.0,0.0,0.0,0.0,0.0,0.0,0.0,0.0,0.0,0.0,0.0,0.0,0.0,0.0,0.0,0.0,0.0,0.0,0.0,0.0,0.0,0.0,0.0,0.0,0.0,0.0,0.0,0.0,0.0,0.0,0.0,0.0,0.0,-0.9091,-0.943,-1.0559,-1.1173,-1.1688,-1.2582,-1.2989,-1.3362,0.0,0.0,-1.5576,-1.6324,-1.7517,-1.8486,-1.8745,-1.9507,-2.0143,0.0,-2.0736,-2.1607,0.0,0.0,0.0,0.0,0.0,0.0,0.0,0.0,0.0,0.0,0.0,0.0,0.0,-3.2556,-3.2431,-3.1763,-3.2318,-3.2416,-3.2082,-3.184,-3.1455,-3.0856,-2.9725,-2.8562,-2.7451,-2.7063,-2.6529,-2.5865,0.0,0.0,0.0,-2.4467,-2.3497,-2.2285,-2.0991,-1.9756,-1.8665,-1.8193,-1.8121,-1.8201,0.0,0.0,0.0,0.0,0.0,0.0,-0.6959,-0.7576,-0.8314,-0.9169,-0.9318,-0.9507,-1.004,-1.0205,-1.0222,-0.9995,-0.9699,0.0,0.0,0.0,0.0,0.0,0.0,0.0,0.0,0.0,0.0,0.0,0.0,0.0,0.0,0.0,0.0,0.0,0.0,0.0,0.0,0.0,0.0,0.0,0.0,0.0,0.0,0.0,0.0,0.0,0.0,0.0,0.0,0.0,0.0,0.0,0.0,0.0,0.0,0.0,-0.9881,-1.0246,-1.0923,-1.1276,-1.1678,-1.248,-1.2852,-1.3208,0.0,-1.4698,-1.5454,-1.6337,-1.7409,-1.8313,-1.8731,-1.9681,-2.041,-2.0494,-2.1498,0.0,0.0,0.0,0.0,0.0,0.0,0.0,0.0,0.0,0.0,0.0,0.0,0.0,0.0,-3.2082,-3.1735,-3.0936,-3.0908,-3.1266,-3.2068,-3.1289,-3.0922,-3.0864,-3.0059,-2.8724,-2.6875,-2.6875,-2.6306,0.0,0.0,0.0,0.0,-2.4467,-2.4173,-2.3948,-2.1492,-2.0469,-2.0304,-1.8585,-1.8282,-1.87,0.0,0.0,0.0,0.0,0.0,0.0,0.0,-0.7109,-0.7754,-0.8564,-0.8736,-0.9043,-0.9802,-0.9918,-0.9969,-0.9985,-0.9699,0.0,0.0,0.0,0.0,0.0,0.0,0.0,0.0,0.0,0.0,0.0,0.0,0.0,0.0,0.0,0.0,0.0,0.0,0.0,0.0,0.0,0.0,0.0,0.0,0.0,0.0,0.0,0.0,0.0,0.0,0.0,0.0,0.0,0.0,0.0,0.0,0.0,0.0,-0.9814,0.0,0.0,-1.172,-1.2214,-1.2633,-1.3301,-1.3591,-1.3983,-1.4834,-1.5365,-1.5928,-1.6795,-1.7867,-1.8788,-1.9148,-2.0093,-2.1163,-2.225,0.0,0.0,0.0,0.0,0.0,0.0,0.0,0.0,0.0,0.0,0.0,0.0,0.0,0.0,0.0,-3.1669,-3.1244,-3.0168,-3.062,-3.0798,-3.051,-3.0774,-3.0608,-3.0037,-2.9525,-2.8569,-2.742,-2.6748,0.0,0.0,0.0,0.0,0.0,-2.4467,-2.3824,-2.3139,-2.1231,-2.0157,-1.9529,-1.8434,-1.8201,-1.8434,0.0,0.0,0.0,0.0,0.0,0.0,0.0,-0.68,-0.7389,-0.8108,-0.8365,-0.8721,-0.9457,-0.9685,-0.9856,-1.0021,-0.9827,0.0,0.0,0.0,0.0,0.0,0.0,0.0,0.0,0.0,0.0,0.0,0.0,0.0,0.0,0.0,0.0,0.0,0.0,0.0,0.0,0.0,0.0,0.0,0.0,0.0,-0.9398,0.0,0.0,0.0,0.0,0.0,0.0,0.0,0.0,0.0,0.0,0.0,0.0,0.0,-1.1283,-1.1584,0.0,-1.2406,-1.2982,-1.3442,-1.4073,-1.4653,-1.5154,-1.5808,-1.6489,-1.716,-1.808,-1.893,-1.9456,-2.0265,-2.1197,-2.2258,0.0,0.0,0.0,0.0,0.0,0.0,0.0,0.0,0.0,0.0,0.0,0.0,0.0,0.0,0.0,0.0,-3.1073,-2.9433,-2.9761,-2.9951,-2.98,-3.0237,-3.0214,-2.9726,-2.94,-2.8695,-2.7673,-2.6831,0.0,0.0,0.0,0.0,0.0,-2.4694,-2.3909,-2.2863,-2.1385,-2.0294,-1.945,-1.8594,-1.8451,-1.8514,0.0,0.0,0.0,0.0,0.0,0.0,0.0,-0.6582,-0.7187,-0.7771,-0.8158,-0.855,-0.8997,-0.9477,-0.9872,-1.0093,0.0,0.0,0.0,0.0,0.0,0.0,0.0,0.0,0.0,0.0,0.0,0.0,-1.0687,-1.1084,-1.1805,0.0,0.0,0.0,0.0,0.0,0.0,0.0,0.0,0.0,0.0,-0.9654,0.0,0.0,0.0,0.0,0.0,0.0,0.0,0.0,0.0,0.0,0.0,0.0,0.0,0.0,0.0,0.0,0.0,-1.2035,-1.2918,-1.3208,-1.4226,-1.5197,-1.5187,-1.6139,0.0,-1.7476,-1.8094,-1.886,-1.9777,-2.0273,-2.0744,-2.1199,0.0,0.0,0.0,0.0,0.0,0.0,0.0,0.0,0.0,0.0,0.0,0.0,0.0,0.0,0.0,0.0,-3.1375,-2.8862,-2.8678,-2.8988,-2.9731,-2.9745,-2.9745,-2.9679,-2.9672,-2.8996,-2.7857,-2.7205,0.0,0.0,0.0,0.0,0.0,-2.4849,-2.4185,-2.3154,-2.1863,-2.074,-1.9825,-1.8913,-1.8772,-1.8763,0.0,0.0,0.0,0.0,0.0,0.0,0.0,0.0,0.0,0.0,-0.7684,-0.8148,-0.867,-0.9097,-0.9636,0.0,0.0,0.0,0.0,0.0,0.0,0.0,0.0,0.0,0.0,0.0,0.0,-1.106,-1.1488,-1.1705,-1.1814,-1.1197,0.0,0.0,0.0,0.0,0.0,0.0,0.0,0.0,-1.0272,-1.0284,0.0,0.0,0.0,0.0,-1.0117,-1.0311,0.0,0.0,0.0,0.0,0.0,0.0,0.0,0.0,-1.236,-1.2148,-1.2146,0.0,-1.3303,-1.41,-1.464,-1.5164,0.0,-1.6509,0.0,0.0,0.0,-1.9127,-2.0804,-2.0824,-2.1351,0.0,0.0,0.0,0.0,0.0,0.0,0.0,0.0,0.0,0.0,0.0,0.0,0.0,0.0,0.0,0.0,0.0,-3.1878,-3.0474,-2.937,-2.8784,-2.8855,-2.8855,-2.8855,-2.8855,-2.8874,-2.8703,-2.8311,-2.7411,0.0,0.0,0.0,0.0,-2.5241,-2.425,-2.3677,-2.315,-2.1181,-2.0246,-1.9778,-1.8488,-1.8,-1.7806,0.0,0.0,0.0,0.0,0.0,0.0,0.0,0.0,0.0,0.0,0.0,0.0,0.0,0.0,0.0,0.0,0.0,0.0,0.0,0.0,0.0,0.0,0.0,0.0,0.0,0.0,0.0,0.0,0.0,-1.2516,0.0,0.0,0.0,0.0,0.0,0.0,0.0,0.0,0.0,0.0,-1.0458,0.0,0.0,0.0,0.0,0.0,-1.0758,-1.0954,0.0,-1.178,-1.1823,-1.1724,0.0,0.0,0.0,0.0,-1.2607,-1.253,-1.2816,-1.3337,-1.3972,-1.4597,-1.5287,-1.5996,-1.6454,0.0,0.0,0.0,0.0,0.0,-2.0794,0.0,0.0,0.0,0.0,0.0,0.0,0.0,0.0,0.0,0.0,0.0,0.0,0.0,0.0,0.0,0.0,0.0,0.0,0.0,-3.2047,-3.019,-2.9232,-2.8732,-2.8716,-2.8716,-2.8716,-2.8665,-2.8385,-2.8216,-2.8145,-2.6804,-2.6233,0.0,0.0,0.0,-2.4539,-2.3664,-2.2816,-2.1991,-2.0575,-1.9716,-1.9031,-1.7804,-1.7424,-1.7371,0.0,0.0,0.0,0.0,0.0,0.0,0.0,0.0,0.0,0.0,0.0,0.0,0.0,0.0,0.0,0.0,0.0,0.0,0.0,0.0,0.0,0.0,0.0,0.0,0.0,0.0,0.0,0.0,0.0,0.0,0.0,0.0,0.0,0.0,0.0,0.0,0.0,0.0,0.0,0.0,0.0,0.0,0.0,0.0,0.0,0.0,0.0,0.0,0.0,-1.1888,-1.1834,-1.1819,-1.2769,0.0,0.0,0.0,0.0,0.0,-1.3541,-1.4122,-1.4669,-1.4898,-1.5997,-1.7034,-1.6989,0.0,0.0,0.0,0.0,0.0,0.0,0.0,0.0,0.0,0.0,0.0,0.0,0.0,0.0,0.0,0.0,0.0,0.0,0.0,0.0,0.0,0.0,0.0,0.0,0.0,0.0,-2.9406,-2.8819,-2.8577,-2.857,-2.8589,-2.8748,-2.8858,-2.8264,-2.7885,-2.7665,-2.6124,-2.5384,0.0,0.0,0.0,-2.3597,-2.3059,-2.192,-2.045,-1.994,-1.9139,-1.815,-1.697,-1.6826,-1.696,0.0,0.0,0.0,0.0,0.0,0.0,0.0,0.0,0.0,0.0,0.0,0.0,0.0,0.0,0.0,0.0,0.0,0.0,0.0,0.0,0.0,0.0,0.0,0.0,0.0,0.0,0.0,0.0,0.0,0.0,-1.3978,-1.3132,-1.2512,0.0,0.0,0.0,0.0,0.0,0.0,0.0,0.0,0.0,0.0,0.0,0.0,0.0,0.0,0.0,0.0,-1.223,-1.228,-1.2399,-1.3198,0.0,0.0,0.0,0.0,0.0,-1.4198,-1.4762,-1.5142,-1.5274,-1.6287,-1.7229,0.0,0.0,0.0,0.0,0.0,0.0,0.0,0.0,0.0,0.0,0.0,0.0,0.0,0.0,0.0,0.0,0.0,0.0,0.0,0.0,0.0,0.0,0.0,0.0,0.0,0.0,0.0,-3.0291,-2.88,-2.7813,-2.7399,-2.7804,-2.8373,-2.9035,-2.8926,-2.8369,-2.7278,-2.6565,-2.5632,0.0,0.0,-2.3435,-2.2805,-2.2252,-2.1086,-1.9735,-1.9127,-1.8441,-1.7573,-1.6378,-1.5835,-1.5478,0.0,0.0,0.0,0.0,0.0,0.0,0.0,0.0,0.0,0.0,0.0,0.0,0.0,0.0,0.0,0.0,0.0,0.0,0.0,0.0,0.0,0.0,0.0,0.0,0.0,0.0,0.0,0.0,0.0,-1.4046,-1.449,-1.4247,-1.3768,-1.2993,0.0,0.0,0.0,0.0,0.0,0.0,0.0,0.0,0.0,0.0,0.0,0.0,0.0,0.0,0.0,0.0,-1.2826,-1.3037,-1.3307,0.0,0.0,0.0,0.0,0.0,-1.4117,-1.4904,-1.5537,-1.5951,-1.713,-1.8206,0.0,0.0,0.0,0.0,0.0,0.0,0.0,0.0,0.0,0.0,0.0,0.0,0.0,0.0,0.0,0.0,0.0,0.0,0.0,0.0,0.0,0.0,0.0,0.0,0.0,0.0,0.0,0.0,-2.8008,-2.7127,-2.6644,-2.6845,-2.733,-2.7996,-2.7359,-2.6775,-2.6168,-2.5023,-2.4267,-2.3676,0.0,-2.2562,-2.192,-2.1417,-2.0404,-1.9172,-1.8325,-1.7576,-1.6867,-1.5386,-1.4388,-1.3689,0.0,0.0,0.0,0.0,0.0,0.0,0.0,0.0,0.0,0.0,0.0,0.0,0.0,0.0,0.0,0.0,0.0,0.0,0.0,0.0,0.0,0.0,0.0,0.0,0.0,0.0,-1.3687,-1.4325,-1.4176,-1.4362,-1.4858,-1.5142,-1.4845,0.0,0.0,0.0,0.0,0.0,0.0,-1.3868,0.0,0.0,0.0,0.0,0.0,0.0,0.0,0.0,0.0,0.0,0.0,0.0,0.0,0.0,0.0,-1.3433,-1.3421,-1.3581,-1.4193,-1.5133,-1.6028,-1.6625,0.0,-1.8988,0.0,0.0,0.0,0.0,0.0,0.0,0.0,0.0,0.0,0.0,0.0,0.0,0.0,0.0,0.0,0.0,0.0,0.0,0.0,0.0,0.0,0.0,0.0,0.0,0.0,0.0,0.0,0.0,-2.7241,-2.654,-2.5955,-2.5942,-2.637,-2.7111,-2.6109,-2.5469,-2.5139,-2.3827,-2.3071,-2.2819,-2.2402,-2.1761,-2.1076,-2.0711,-1.9846,-1.8576,-1.7628,-1.6625,-1.5657,-1.4395,-1.3198,-1.2345,0.0,0.0,0.0,0.0,0.0,0.0,0.0,0.0,0.0,0.0,0.0,0.0,0.0,0.0,0.0,0.0,0.0,0.0,0.0,0.0,0.0,0.0,0.0,0.0,0.0,-1.4845,-1.5119,-1.5644,-1.522,-1.4915,-1.4709,-1.4628,-1.4479,-1.4297,0.0,0.0,0.0,0.0,0.0,-1.3619,-1.3729,0.0,0.0,0.0,0.0,0.0,0.0,0.0,0.0,0.0,0.0,0.0,0.0,0.0,-1.3735,-1.4026,-1.4273,-1.4529,-1.5052,-1.582,-1.6584,-1.7117,0.0,0.0,0.0,0.0,0.0,0.0,0.0,0.0,0.0,0.0,0.0,0.0,0.0,0.0,0.0,0.0,0.0,0.0,0.0,0.0,0.0,0.0,0.0,0.0,0.0,0.0,0.0,0.0,0.0,0.0,0.0,-2.6179,-2.5073,-2.5186,-2.5931,-2.7248,-2.6769,-2.5866,-2.4706,-2.4177,-2.3294,-2.2258,-2.2209,-2.1411,-2.0237,-2.0506,-1.9507,-1.7706,-1.6991,-1.5359,-1.3455,-1.3294,-1.2847,-1.2305,0.0,0.0,0.0,0.0,0.0,0.0,0.0,0.0,0.0,0.0,0.0,0.0,0.0,0.0,0.0,0.0,0.0,0.0,0.0,0.0,0.0,0.0,0.0,-1.4287,-1.5047,-1.4957,-1.5222,-1.5792,-1.557,-1.5108,-1.4398,-1.5006,0.0,0.0,0.0,0.0,0.0,0.0,0.0,0.0,-1.4444,-1.418,0.0,0.0,0.0,0.0,0.0,0.0,0.0,0.0,-1.3635,-1.3914,-1.398,-1.4144,-1.4351,-1.4479,-1.4624,-1.4839,-1.5202,-1.6075,-1.7004,-1.7563,0.0,0.0,0.0,0.0,0.0,0.0,0.0,0.0,0.0,0.0,0.0,0.0,0.0,0.0,0.0,0.0,0.0,0.0,0.0,0.0,0.0,0.0,0.0,0.0,0.0,0.0,0.0,0.0,0.0,0.0,0.0,-2.5425,-2.5005,-2.5061,-2.5222,-2.541,-2.5057,-2.4403,-2.3548,-2.3071,-2.2603,-2.2185,-2.1726,-2.1083,-2.0377,-2.0129,-1.9396,-1.8385,-1.6688,-1.5005,-1.352,-1.2886,-1.2526,-1.2224,0.0,0.0,0.0,0.0,0.0,0.0,0.0,0.0,0.0,0.0,0.0,0.0,0.0,0.0,0.0,0.0,0.0,0.0,0.0,0.0,0.0,0.0,0.0,-1.4521,-1.5082,-1.499,-1.5252,-1.5844,-1.6015,-1.5724,-1.5107,0.0,0.0,0.0,0.0,0.0,0.0,0.0,0.0,0.0,-1.4877,-1.4442,0.0,0.0,0.0,0.0,0.0,0.0,0.0,0.0,-1.3947,-1.4222,-1.4287,-1.4433,-1.4655,-1.4732,-1.5032,-1.5344,-1.5496,-1.6564,-1.7705,0.0,0.0,0.0,0.0,0.0,0.0,0.0,0.0,0.0,0.0,0.0,0.0,0.0,0.0,0.0,0.0,0.0,0.0,0.0,0.0,0.0,0.0,0.0,0.0,0.0,0.0,0.0,0.0,0.0,0.0,0.0,0.0,-2.5174,-2.5005,-2.5061,-2.4708,-2.4047,-2.3859,-2.3471,-2.2909,-2.2432,-2.2197,-2.2135,-2.14,-2.088,-2.0377,-1.9868,-1.9065,-1.8027,-1.6131,-1.4593,-1.3397,-1.2592,-1.2305,-1.215,0.0,0.0,0.0,0.0,0.0,0.0,0.0,0.0,0.0,0.0,0.0,0.0,0.0,0.0,0.0,0.0,0.0,0.0,0.0,0.0,0.0,0.0,0.0,-1.4398,-1.5095,-1.5044,-1.5337,-1.6002,-1.6594,-1.6934,-1.698,-1.6934,0.0,0.0,0.0,0.0,0.0,0.0,0.0,0.0,-1.4801,-1.4174,-1.3229,0.0,0.0,0.0,0.0,0.0,0.0,0.0,-1.4032,-1.4052,-1.4406,-1.4501,-1.4578,-1.4814,-1.5518,-1.6213,-1.6134,-1.7375,0.0,0.0,0.0,0.0,0.0,0.0,0.0,0.0,0.0,0.0,0.0,0.0,0.0,0.0,0.0,0.0,0.0,0.0,0.0,0.0,0.0,0.0,0.0,0.0,0.0,0.0,0.0,0.0,0.0,0.0,0.0,0.0,0.0,-2.5619,-2.5005,-2.5118,-2.4637,-2.3577,-2.3741,-2.3471,-2.2848,-2.2432,-2.2197,-2.2135,-2.1388,-2.0741,-2.0107,-1.9736,-1.8297,-1.6158,-1.5029,-1.389,-1.2893,-1.2452,-1.2305,-1.215,0.0,0.0,0.0,0.0,0.0,0.0,0.0,0.0,0.0,0.0,0.0,0.0,0.0,0.0,0.0,0.0,0.0,0.0,0.0,0.0,0.0,0.0,0.0,0.0,0.0,0.0,-1.5207,-1.5286,-1.5858,-1.6055,0.0,0.0,0.0,-1.5765,0.0,0.0,0.0,0.0,0.0,0.0,0.0,-1.5132,-1.4398,0.0,0.0,0.0,0.0,0.0,0.0,0.0,0.0,0.0,-1.4752,-1.5281,-1.5773,-1.5355,-1.6411,-1.7546,-1.6908,0.0,0.0,0.0,0.0,0.0,0.0,0.0,0.0,0.0,0.0,0.0,0.0,0.0,0.0,0.0,0.0,0.0,0.0,0.0,0.0,0.0,0.0,0.0,0.0,0.0,0.0,0.0,0.0,0.0,0.0,0.0,0.0,0.0,-2.5728,-2.5174,-2.5005,-2.5061,-2.458,-2.3577,-2.3636,-2.3233,-2.2371,-2.2247,-2.2197,-2.2123,-2.0944,-2.0431,-2.0377,-1.9594,-1.824,-1.6655,-1.572,-1.453,-1.3273,-1.2526,-1.1929,-1.1329,0.0,0.0,0.0,0.0,0.0,0.0,0.0,0.0,0.0,0.0,0.0,0.0,0.0,0.0,0.0,0.0,0.0,0.0,0.0,0.0,0.0,0.0,0.0,0.0,0.0,-1.5101,-1.5313,0.0,0.0,0.0,0.0,0.0,0.0,-1.6185,0.0,-1.646,0.0,0.0,0.0,0.0,0.0,-1.5818,-1.5319,0.0,0.0,0.0,0.0,0.0,0.0,0.0,0.0,0.0,-1.5043,0.0,-1.5961,-1.5904,-1.6861,-1.7878,-1.7582,0.0,0.0,0.0,0.0,0.0,0.0,0.0,0.0,0.0,0.0,0.0,0.0,0.0,0.0,0.0,0.0,0.0,0.0,0.0,0.0,0.0,0.0,0.0,0.0,0.0,0.0,0.0,0.0,0.0,0.0,0.0,0.0,0.0,-2.5397,-2.5005,-2.5005,-2.5005,-2.4523,-2.3577,-2.3577,-2.3125,-2.2197,-2.2197,-2.2061,-2.1663,-2.0291,-1.9715,-1.9649,-1.8499,-1.759,-1.6798,-1.5579,-1.441,-1.3433,-1.2774,-1.1942,-1.0962,0.0,0.0,-0.9632,-0.975,0.0,0.0,0.0,0.0,0.0,0.0,0.0,-1.0146,0.0,0.0,0.0,-1.0949,0.0,0.0,0.0,0.0,0.0,0.0,0.0,0.0,0.0,0.0,0.0,0.0,0.0,0.0,0.0,0.0,-1.7408,-1.7518,0.0,-1.7591,0.0,0.0,0.0,0.0,-1.6338,-1.6166,-1.5886,-1.5923,0.0,0.0,0.0,0.0,0.0,0.0,0.0,0.0,-1.5239,-1.5373,-1.5579,-1.6336,-1.7033,-1.7644,0.0,0.0,0.0,0.0,0.0,0.0,0.0,0.0,0.0,0.0,0.0,0.0,0.0,0.0,0.0,0.0,0.0,0.0,0.0,0.0,0.0,0.0,0.0,0.0,0.0,0.0,0.0,0.0,0.0,0.0,0.0,0.0,0.0,0.0,-2.5119,-2.4842,-2.4842,-2.4896,-2.4456,0.0,-2.35,-2.305,-2.2125,-2.2173,-2.1788,-2.0933,-1.9694,-1.8921,-1.8405,-1.7001,-1.666,-1.6725,-1.4887,-1.3943,-1.3528,-1.3029,-1.219,-1.1031,0.0,0.0,-0.9579,-0.9555,0.0,0.0,0.0,0.0,-0.9514,-0.975,-0.9736,-0.9773,-1.0002,-0.9929,0.0,-1.0002,-1.0148,0.0,0.0,0.0,0.0,0.0,0.0,0.0,0.0,0.0,0.0,0.0,0.0,0.0,0.0,0.0,0.0,-1.7594,0.0,-1.7126,0.0,0.0,0.0,-1.5797,-1.6158,-1.6028,-1.5588,-1.5608,-1.5296,0.0,0.0,0.0,0.0,0.0,0.0,0.0,-1.5668,-1.5995,-1.6322,-1.6215,-1.7364,-1.8654,0.0,0.0,0.0,0.0,0.0,0.0,0.0,0.0,0.0,0.0,0.0,0.0,0.0,0.0,0.0,0.0,0.0,0.0,0.0,0.0,0.0,0.0,0.0,0.0,0.0,0.0,0.0,0.0,0.0,0.0,0.0,0.0,0.0,-2.4346,-2.3843,-2.3568,-2.3568,-2.4082,-2.3787,0.0,-2.2981,-2.2472,-2.1584,-2.2005,-2.1537,-2.0291,-2.0302,-1.9594,-1.8482,-1.7901,-1.7326,-1.6757,-1.55,-1.453,-1.3855,-1.3169,-1.2338,-1.1409,0.0,0.0,0.0,0.0,0.0,0.0,0.0,0.0,-0.9764,-0.9969,-0.9969,-0.9969,-1.0021,-1.0046,0.0,0.0,-1.0135,-1.0273,0.0,0.0,0.0,0.0,0.0,0.0,0.0,0.0,0.0,0.0,0.0,0.0,0.0,0.0,0.0,-1.8007,0.0,-1.7192,0.0,0.0,0.0,-1.5755,-1.6045,-1.607,-1.5919,-1.597,-1.5616,-1.5163,-1.5329,0.0,0.0,0.0,0.0,0.0,0.0,0.0,-1.6613,-1.6668,-1.7638,-1.8747,0.0,0.0,0.0,0.0,0.0,0.0,0.0,0.0,0.0,0.0,0.0,0.0,0.0,0.0,0.0,0.0,0.0,0.0,0.0,0.0,0.0,0.0,0.0,0.0,0.0,0.0,0.0,0.0,0.0,0.0,0.0,-2.4737,-2.412,-2.3412,-2.3286,-2.3189,-2.3189,-2.3313,-2.3025,-2.2347,-2.2166,-2.1724,-2.1043,-2.1185,-2.0717,-1.9704,-1.9868,-1.9386,-1.8414,-1.7638,-1.7176,-1.6797,-1.5463,-1.4561,-1.4038,-1.3375,-1.2532,-1.1527,0.0,0.0,0.0,0.0,0.0,0.0,0.0,0.0,0.0,-1.0173,-1.0224,-1.0274,-1.0249,-1.0299,-1.0299,0.0,0.0,0.0,-1.0424,0.0,0.0,0.0,0.0,0.0,0.0,0.0,0.0,0.0,0.0,0.0,0.0,0.0,0.0,-1.8679,0.0,0.0,0.0,0.0,-1.5463,-1.5705,-1.5624,-1.575,-1.6038,-1.6069,-1.5758,-1.5326,-1.5445,-1.5547,-1.559,-1.5739,0.0,0.0,0.0,0.0,-1.6653,-1.7061,-1.763,-1.8238,0.0,0.0,0.0,0.0,0.0,0.0,0.0,0.0,0.0,0.0,0.0,0.0,0.0,0.0,0.0,0.0,0.0,0.0,0.0,0.0,0.0,0.0,0.0,0.0,0.0,0.0,0.0,0.0,0.0,0.0,-2.4551,-2.3844,-2.3298,-2.2929,-2.2899,-2.2877,-2.2877,-2.2697,-2.2298,-2.1758,-2.1262,-2.0778,-2.0289,-2.0252,-1.9855,-1.9225,-1.9222,-1.8882,-1.8185,-1.702,-1.6587,-1.6531,-1.5188,-1.4425,-1.4042,-1.3717,-1.2952,-1.1877,0.0,0.0,0.0,0.0,0.0,0.0,0.0,0.0,0.0,0.0,-1.0122,-1.0097,-1.0059,-1.0059,-1.0034,-0.9957,-1.0224,-1.0449,0.0,0.0,0.0,0.0,0.0,0.0,0.0,0.0,0.0,0.0,0.0,0.0,0.0,0.0,0.0,-1.9406,0.0,0.0,0.0,0.0,0.0,-1.4892,-1.4272,-1.4195,-1.4506,-1.45,-1.4514,-1.4612,-1.5211,-1.5464,-1.5598,-1.6191,-1.6448,0.0,0.0,0.0,0.0,0.0,0.0,0.0,0.0,0.0,0.0,0.0,0.0,0.0,0.0,0.0,0.0,0.0,0.0,0.0,0.0,0.0,0.0,0.0,0.0,0.0,0.0,0.0,0.0,0.0,0.0,0.0,0.0,0.0,0.0,0.0,0.0,0.0,-2.4357,-2.3467,-2.2975,-2.2884,-2.2082,-2.1654,-2.1654,-2.2219,-2.2056,-2.1128,-2.0372,-1.9703,-1.9227,-1.9689,-1.9483,-1.8785,-1.889,-1.8371,-1.7339,-1.6683,-1.6178,-1.5814,-1.5233,-1.4662,-1.4125,-1.4068,-1.3674,-1.3105,0.0,0.0,0.0,0.0,0.0,0.0,0.0,0.0,0.0,0.0,0.0,-0.9893,-0.9828,-1.0021,-1.0135,-1.0072,-1.0411,0.0,0.0,0.0,0.0,0.0,0.0,0.0,0.0,0.0,0.0,0.0,0.0,0.0,0.0,-1.8439,-1.9081,0.0,0.0,0.0,0.0,0.0,0.0,-1.4883,-1.4569,-1.4993,-1.5745,0.0,-1.5124,-1.6452,-1.5599,0.0,0.0,-1.6407,-1.6633,-1.6799,0.0,0.0,0.0,0.0,0.0,0.0,0.0,0.0,0.0,0.0,0.0,0.0,0.0,0.0,0.0,0.0,0.0,0.0,0.0,0.0,0.0,0.0,0.0,0.0,0.0,0.0,0.0,0.0,0.0,0.0,0.0,0.0,0.0,0.0,0.0,-2.4385,-2.4078,-2.3377,-2.2904,-2.2632,-2.1983,-2.1616,-2.1616,-2.173,-2.1305,-2.0332,-1.9964,-1.9523,-1.8999,-1.9227,-1.8948,-1.8283,-1.8725,-1.8251,-1.7169,-1.6646,-1.6128,-1.5661,-1.5035,-1.4424,-1.3837,-1.378,-1.3528,-1.3094,0.0,0.0,0.0,0.0,0.0,0.0,0.0,0.0,0.0,0.0,0.0,-1.0008,-0.9905,0.0,0.0,0.0,-1.0594,0.0,0.0,0.0,0.0,0.0,0.0,0.0,0.0,0.0,0.0,0.0,0.0,0.0,-1.8665,-1.8838,-1.9941,0.0,-2.0908,0.0,0.0,0.0,0.0,-1.5342,-1.5174,-1.5802,-1.6713,-1.5464,-1.6231,-1.7766,0.0,0.0,0.0,0.0,0.0,0.0,0.0,0.0,0.0,0.0,0.0,0.0,0.0,0.0,0.0,0.0,0.0,0.0,0.0,0.0,0.0,0.0,0.0,0.0,0.0,0.0,0.0,0.0,0.0,0.0,0.0,0.0,0.0,0.0,0.0,0.0,0.0,0.0,0.0,0.0,0.0,-2.4359,-2.3994,-2.3465,-2.3038,-2.2678,-2.2123,-2.1841,-2.1902,-2.1423,-2.0871,-2.0207,-1.9952,-1.9592,-1.9198,-1.904,-1.8639,-1.7999,-1.8306,-1.7948,-1.7073,-1.651,-1.5942,-1.5323,-1.4903,-1.4212,-1.349,-1.3515,-1.3391,-1.3048,0.0,0.0,0.0,0.0,0.0,0.0,0.0,0.0,0.0,0.0,0.0,-1.0608,-1.046,-1.0474,-1.0436,-1.031,-1.0667,0.0,0.0,0.0,0.0,0.0,0.0,0.0,0.0,0.0,0.0,0.0,0.0,0.0,-1.9061,-1.978,-2.0813,-2.2045,-2.1093,-1.9698,-1.7943,0.0,0.0,0.0,-1.563,-1.5578,-1.6014,-1.7237,-1.7396,-1.7055,0.0,0.0,0.0,0.0,0.0,0.0,0.0,0.0,0.0,0.0,0.0,0.0,0.0,0.0,0.0,0.0,0.0,0.0,0.0,0.0,0.0,0.0,0.0,0.0,0.0,0.0,0.0,0.0,0.0,0.0,0.0,0.0,0.0,0.0,0.0,0.0,0.0,0.0,0.0,0.0,0.0,-2.4416,-2.4223,-2.3696,-2.3363,-2.3363,-2.248,-2.2044,-2.2184,-2.152,-2.1229,-2.1313,-2.0308,-1.9798,-1.9747,-1.9251,-1.8667,-1.8073,-1.7545,-1.7132,-1.6779,-1.6148,-1.5381,-1.457,-1.4894,-1.425,-1.3165,-1.3467,-1.3554,-1.3452,0.0,0.0,0.0,0.0,0.0,0.0,0.0,0.0,0.0,0.0,0.0,0.0,0.0,-1.0559,-1.0681,-1.0619,-1.0944,0.0,0.0,0.0,0.0,0.0,0.0,0.0,0.0,0.0,0.0,0.0,0.0,-1.4854,-1.7631,-1.8335,-1.9108,-1.9972,-2.1116,-2.0732,-1.9186,-1.8806,0.0,0.0,0.0,-1.7813,0.0,-1.77,-1.8738,-2.0671,0.0,0.0,0.0,0.0,0.0,0.0,0.0,-1.6338,-1.6338,-1.5998,0.0,0.0,0.0,0.0,0.0,0.0,0.0,0.0,0.0,0.0,0.0,0.0,0.0,0.0,0.0,0.0,0.0,0.0,0.0,0.0,0.0,0.0,0.0,0.0,0.0,0.0,0.0,0.0,0.0,0.0,0.0,0.0,-2.4276,-2.3754,-2.3436,-2.3436,-2.2889,-2.2495,-2.2324,-2.1841,-2.1458,-2.1153,-2.0746,-2.0245,-1.9656,-1.9448,-1.9146,-1.8655,-1.8038,-1.739,-1.6751,-1.6239,-1.5652,-1.5079,-1.4805,-1.4134,-1.3344,-1.3317,-1.3084,-1.2821,0.0,0.0,0.0,-1.0764,0.0,-1.051,-1.0556,-1.0581,-1.0605,-1.0605,0.0,0.0,0.0,0.0,-1.1093,-1.0887,-1.1062,0.0,0.0,0.0,0.0,0.0,0.0,0.0,0.0,0.0,0.0,0.0,0.0,0.0,0.0,-1.6749,-1.7504,-1.8395,-1.9701,-2.0098,0.0,0.0,0.0,-1.8451,0.0,0.0,-2.0464,0.0,-2.0305,0.0,0.0,0.0,0.0,0.0,0.0,0.0,0.0,-1.6216,-1.5855,-1.5583,0.0,0.0,0.0,0.0,0.0,0.0,0.0,0.0,0.0,0.0,0.0,0.0,0.0,0.0,0.0,0.0,0.0,0.0,0.0,0.0,0.0,0.0,0.0,0.0,0.0,0.0,0.0,0.0,0.0,0.0,0.0,0.0,-2.3559,-2.319,-2.2924,-2.2797,-2.2569,-2.2251,-2.1778,-2.1749,-2.1476,-2.105,-2.0997,-2.0597,-1.9862,-1.9656,-1.9408,-1.8987,-1.8429,-1.7776,-1.7078,-1.657,-1.5999,-1.5352,-1.4942,-1.441,-1.3761,-1.3369,-1.3149,-1.2953,-1.2252,-1.1691,-1.1241,-1.1226,-1.0948,-1.0818,-1.1094,-1.1174,-1.1221,-1.1235,0.0,0.0,0.0,0.0,0.0,0.0,0.0,-1.1019,-1.1015,0.0,0.0,0.0,0.0,0.0,0.0,0.0,0.0,0.0,0.0,0.0,0.0,0.0,-1.6281,0.0,-1.6869,-1.7748,-1.9736,0.0,-1.9767,-1.9799,0.0,-1.9846,-2.0115,0.0,0.0,0.0,-2.2508,-2.2163,0.0,0.0,0.0,0.0,0.0,-1.6911,-1.5662,-1.5638,0.0,0.0,0.0,0.0,0.0,0.0,0.0,0.0,0.0,0.0,0.0,0.0,0.0,0.0,0.0,0.0,0.0,0.0,0.0,0.0,0.0,0.0,0.0,0.0,0.0,0.0,0.0,0.0,0.0,0.0,0.0,-2.2355,-2.2033,-2.1994,-2.1822,-2.1421,-2.1515,-2.1259,-2.0641,-2.1197,-2.1334,-2.1063,-2.1009,-2.0756,-2.0396,-1.9837,-1.9396,-1.8987,-1.8494,-1.8104,-1.7667,-1.7078,-1.6285,-1.541,-1.541,-1.5059,-1.4428,-1.377,-1.368,-1.38,-1.2193,-1.2313,-1.2318,-1.1658,-1.1486,-1.1571,-1.198,-1.1772,-1.1688,0.0,0.0,0.0,0.0,0.0,0.0,0.0,0.0,-1.1489,-1.1313,-1.1362,-1.1497,-1.1674,-1.2039,0.0,0.0,0.0,0.0,0.0,0.0,0.0,0.0,0.0,0.0,0.0,-1.6311,-1.7046,-1.8061,-1.8165,0.0,0.0,-1.9688,-2.0634,0.0,0.0,0.0,0.0,0.0,-2.3386,0.0,0.0,-2.1961,-2.0257,0.0,0.0,0.0,-1.4424,-1.5286,0.0,-1.6454,0.0,0.0,0.0,0.0,0.0,0.0,0.0,0.0,0.0,0.0,0.0,0.0,0.0,0.0,0.0,0.0,0.0,0.0,0.0,0.0,0.0,0.0,0.0,0.0,0.0,0.0,0.0,-2.2187,-2.2071,-2.1862,-2.1955,-2.1955,-2.1862,-2.1595,-2.138,-2.1178,-2.084,-2.0684,-2.0612,-2.0398,-2.0259,-2.0167,-1.9716,-1.9485,-1.9408,-1.8987,-1.8548,-1.805,-1.729,-1.6637,-1.6077,-1.5594,-1.5294,-1.5059,-1.4043,-1.3666,-1.3495,-1.1716,-1.2468,-1.29,-1.1869,-1.1924,-1.2157,-1.2399,-1.2224,-1.2184,0.0,0.0,0.0,0.0,0.0,0.0,0.0,0.0,-1.1642,-1.1575,-1.1459,-1.1541,-1.1826,-1.2123,-1.2302,0.0,0.0,0.0,0.0,0.0,0.0,0.0,0.0,0.0,0.0,0.0,-1.5284,-1.6373,-1.6246,0.0,0.0,-2.0317,0.0,0.0,-2.2607,-2.3275,0.0,0.0,0.0,-2.3923,-2.4014,-2.2619,0.0,0.0,0.0,-1.5785,-1.5164,0.0,0.0,0.0,0.0,0.0,0.0,0.0,0.0,0.0,0.0,0.0,0.0,0.0,0.0,0.0,0.0,0.0,0.0,0.0,0.0,0.0,0.0,0.0,0.0,0.0,0.0,0.0,0.0,0.0,-2.1345,-2.1234,-2.1122,-2.0956,-2.1106,-2.1218,-2.1218,-2.1054,-2.0888,-2.0721,-2.0422,-2.02,-2.0089,-2.0032,-1.9925,-1.9807,-1.9561,-1.9384,-1.9269,-1.9064,-1.8718,-1.8278,-1.7722,-1.7179,-1.6581,-1.6066,-1.5836,-1.5652,-1.4483,-1.401,-1.3761,0.0,-1.232,-1.313,-1.2047,-1.2307,-1.2701,-1.2779,-1.2713,-1.2756,0.0,-1.3438,0.0,0.0,0.0,0.0,0.0,0.0,-1.1761,-1.2004,-1.166,-1.1601,-1.1933,-1.2241,-1.2419,-1.2495,0.0,0.0,0.0,0.0,0.0,0.0,0.0,0.0,0.0,-1.2387,-1.3153,-1.4749,-1.4525,0.0,-1.9389,-2.0884,-2.1676,0.0,0.0,-2.3512,0.0,-2.4562,-2.4571,-2.4018,-2.3939,-2.2663,0.0,0.0,-1.8095,-1.7804,-1.7135,-1.742,0.0,0.0,0.0,0.0,0.0,0.0,0.0,-1.8843,-1.8734,0.0,0.0,0.0,0.0,0.0,0.0,0.0,0.0,0.0,0.0,0.0,0.0,0.0,0.0,0.0,0.0,0.0,-2.015,-1.9995,-1.9919,-1.9955,-1.9919,-1.9797,-1.9975,-2.008,-2.01,-2.022,-2.015,-1.9874,-2.0004,-1.9938,-1.9666,-1.9824,-1.9702,-1.9373,-1.9329,-1.9179,-1.8943,-1.8845,-1.8617,-1.8277,-1.8216,-1.7731,-1.6955,-1.6591,-1.6431,-1.6259,-1.5069,-1.4647,-1.4396,-1.1465,-1.2143,-1.2784,-1.2837,-1.3014,-1.3444,-1.4286,-1.3695,-1.3664,-1.5023,0.0,0.0,0.0,0.0,0.0,0.0,0.0,-1.2864,-1.3456,-1.2425,-1.1933,-1.2205,-1.2266,-1.2323,-1.2343,-1.2323,0.0,0.0,0.0,0.0,0.0,0.0,0.0,0.0,-1.2073,-1.2507,-1.3416,-1.516,0.0,-1.7819,-1.8718,0.0,-2.2613,-2.2896,-2.368,-2.4641,-2.491,-2.4926,-2.4681,0.0,-2.3275,-2.2236,0.0,0.0,0.0,0.0,0.0,-1.9369,-1.8835,-1.9119,-1.9293,0.0,0.0,0.0,0.0,-1.7345,0.0,0.0,0.0,0.0,0.0,0.0,0.0,0.0,0.0,0.0,0.0,0.0,0.0,0.0,0.0,0.0,0.0,-1.963,-1.9645,-1.953,-1.9726,-1.9848,-1.9797,-1.9955,-2.0045,-2.01,-2.015,-2.015,-2.0185,-1.9959,-1.9708,-1.9455,-1.9214,-1.9148,-1.9238,-1.8913,-1.8976,-1.9265,-1.8567,-1.8188,-1.8118,-1.78,-1.7427,-1.7011,-1.6899,-1.6694,-1.6316,-1.5672,-1.5196,-1.4688,-1.1562,-1.2466,-1.3263,-1.3195,-1.3525,-1.4087,-1.491,-1.4547,-1.4554,0.0,0.0,0.0,0.0,0.0,0.0,0.0,0.0,0.0,0.0,-1.2861,-1.2288,-1.2262,-1.2241,-1.2241,-1.2246,-1.1905,0.0,0.0,0.0,0.0,0.0,0.0,0.0,0.0,0.0,0.0,0.0,0.0,-1.6455,-1.7884,-1.9418,0.0,-2.2243,-2.2588,-2.3393,-2.4382,-2.4382,-2.4421,-2.4334,-2.3638,-2.2959,0.0,0.0,-2.0573,-2.0225,0.0,-2.0052,-2.0289,0.0,0.0,-2.0083,-1.8933,0.0,0.0,0.0,0.0,0.0,0.0,0.0,0.0,0.0,0.0,0.0,0.0,0.0,0.0,0.0,0.0,0.0,0.0,0.0,0.0,0.0,-1.9229,-1.9258,-1.9398,-1.969,-1.9884,-1.9797,-1.9919,-1.999,-1.994,-2.0045,-2.015,-2.0185,-1.9945,-1.9732,-1.9603,-1.9273,-1.9109,-1.9033,-1.8859,-1.8852,-1.8967,-1.8345,-1.8055,-1.8097,-1.7639,-1.7381,-1.7222,-1.7081,-1.6909,-1.6581,-1.5836,-1.5362,-1.4914,-1.1496,-1.2662,-1.3588,-1.3306,-1.383,-1.4504,-1.5101,-1.4985,-1.509,0.0,0.0,0.0,0.0,0.0,0.0,0.0,0.0,0.0,0.0,0.0,0.0,-1.258,-1.2318,-1.2241,-1.237,-1.1726,-1.1664,0.0,0.0,0.0,0.0,0.0,0.0,0.0,0.0,0.0,0.0,0.0,0.0,-1.8392,0.0,-2.1408,-2.1706,-2.2217,-2.2911,-2.3598,-2.3598,-2.3714,-2.3774,-2.3117,0.0,-2.2137,-2.1268,-2.1,0.0,0.0,0.0,0.0,0.0,0.0,0.0,0.0,0.0,-1.9673,0.0,0.0,0.0,-1.9973,0.0,0.0,0.0,0.0,0.0,0.0,0.0,0.0,0.0,0.0,0.0,0.0,0.0,0.0,0.0,-1.8755,-1.8784,-1.9207,-1.9579,-1.9808,-1.9797,-1.9884,-1.9919,-1.9869,-1.9975,-2.0065,-2.015,-1.9945,-1.9823,-1.9788,-1.9566,-1.9325,-1.8988,-1.8936,-1.8821,-1.863,-1.8179,-1.7976,-1.7899,-1.7542,-1.7398,-1.7333,-1.7189,-1.7036,-1.6877,-1.5944,-1.5448,-1.5051,-1.1242,-1.2017,-1.2676,-1.2993,-1.3735,-1.4471,-1.5025,-1.4681,-1.4735,0.0,0.0,0.0,0.0,0.0,0.0,0.0,0.0,0.0,-1.671,0.0,0.0,-1.3888,-1.279,-1.2457,-1.2984,-1.2395,-1.2107,-1.221,0.0,0.0,0.0,0.0,-1.2157,-1.2865,-1.3376,0.0,0.0,0.0,-1.7228,0.0,-1.9211,-2.0496,0.0,-2.1772,-2.2227,-2.2912,-2.2912,-2.3305,-2.373,0.0,-2.3243,-2.3465,0.0,-2.1774,0.0,0.0,0.0,0.0,0.0,0.0,0.0,0.0,-1.9325,0.0,0.0,0.0,-1.7843,-1.8016,0.0,0.0,0.0,0.0,0.0,0.0,0.0,0.0,0.0,0.0,0.0,0.0,0.0,0.0,0.0,0.0,-1.8001,-1.8645,-1.8935,-1.9316,-1.9782,-1.9797,-1.9904,-2.0065,-1.9904,-1.9975,-2.027,-2.015,-1.998,-1.9788,-1.9767,-1.9588,-1.9339,-1.9026,-1.8903,-1.8807,-1.8138,-1.7608,-1.7294,-1.7448,-1.7235,-1.693,-1.7275,-1.7232,-1.6957,-1.6417,-1.5858,-1.5284,-1.1189,-1.1777,-1.2242,-1.2479,-1.3387,-1.4178,-1.452,-1.5501,-1.6364,0.0,0.0,0.0,0.0,0.0,0.0,0.0,0.0,-1.7501,0.0,0.0,0.0,-1.5391,-1.4437,-1.3698,-1.3183,-1.2534,-1.1994,-1.155,-1.1475,0.0,0.0,0.0,-1.2847,-1.4708,-1.4591,0.0,-1.738,0.0,0.0,0.0,0.0,0.0,0.0,-2.0839,-2.1366,-2.204,-2.252,-2.265,-2.2546,0.0,-2.2165,0.0,0.0,0.0,0.0,0.0,0.0,0.0,0.0,0.0,0.0,0.0,0.0,0.0,0.0,0.0,-1.8511,0.0,0.0,0.0,0.0,0.0,0.0,0.0,0.0,0.0,0.0,0.0,0.0,0.0,0.0,0.0,0.0,0.0,0.0,0.0,0.0,-1.8872,-1.9752,-1.9884,-1.9919,-1.9869,-1.9919,-1.999,-2.0131,-2.0115,-2.01,-2.01,-2.01,-1.9925,-1.9639,-1.9325,-1.9064,-1.8784,-1.8108,-1.7557,-1.717,-1.7106,-1.7005,-1.6944,-1.7111,-1.6997,-1.6583,-1.6112,-1.5423,-1.4648,-1.1441,0.0,0.0,0.0,-1.3271,-1.4026,-1.4206,-1.5894,-1.7249,0.0,0.0,0.0,-1.8495,-1.8577,0.0,0.0,0.0,-1.8777,0.0,0.0,-1.7195,-1.6734,-1.5918,0.0,0.0,-1.3167,-1.2384,-1.1652,-1.1429,0.0,0.0,0.0,0.0,-1.5533,0.0,-1.6512,-1.8556,0.0,0.0,-1.8777,-1.9245,-1.9671,-2.0002,-2.0289,-2.0717,-2.1182,-2.1781,-2.1873,-2.1647,-2.1475,-2.1295,0.0,-2.1458,0.0,0.0,0.0,0.0,0.0,-2.0794,0.0,0.0,0.0,0.0,0.0,0.0,0.0,0.0,0.0,0.0,0.0,0.0,0.0,0.0,0.0,0.0,0.0,0.0,0.0,0.0,0.0,0.0,0.0,0.0,0.0,0.0,0.0,0.0,0.0,-1.9381,-1.9612,-1.9773,-1.9854,-1.9919,-1.9955,-2.0025,-2.0061,-2.0115,-2.027,-2.027,-2.0185,-1.9909,-1.953,-1.9213,-1.8936,-1.8226,-1.772,-1.7365,-1.7005,-1.6921,-1.6958,-1.6732,-1.6444,-1.6064,-1.5742,-1.4956,-1.4121,-1.2076,-1.2179,0.0,0.0,0.0,-1.414,-1.4284,-1.5369,-1.6454,0.0,0.0,0.0,0.0,0.0,0.0,0.0,0.0,-2.0643,-1.9945,0.0,-1.8052,0.0,-1.6797,-1.6148,0.0,-1.4745,-1.3782,-1.3023,-1.2366,-1.2353,0.0,0.0,0.0,0.0,0.0,-1.6232,-1.7061,-1.8215,-1.9322,-2.0265,-1.9582,-1.9853,-2.0662,0.0,-2.0441,-2.0335,-2.0435,0.0,0.0,-2.0944,-2.1232,0.0,0.0,0.0,0.0,0.0,0.0,0.0,0.0,0.0,0.0,-1.9057,0.0,0.0,0.0,0.0,-1.7934,0.0,0.0,0.0,0.0,0.0,0.0,0.0,0.0,0.0,0.0,0.0,0.0,0.0,0.0,0.0,0.0,0.0,0.0,0.0,0.0,0.0,-1.8451,-1.8781,-1.9356,-2.0254,-1.9975,-1.9904,-2.01,-2.0025,-2.0025,-2.01,-2.0235,-2.0304,-2.027,-1.9551,-1.9273,-1.9339,-1.8592,-1.8068,-1.7747,-1.7407,-1.7144,-1.6816,-1.6125,-1.5638,-1.5325,-1.5317,-1.4866,-1.4188,0.0,0.0,0.0,0.0,0.0,-1.4117,-1.4725,-1.661,0.0,0.0,0.0,0.0,0.0,0.0,-2.0915,0.0,0.0,-2.1515,-2.1469,-2.0599,0.0,0.0,0.0,-1.767,0.0,0.0,-1.4862,-1.3757,-1.3448,-1.3377,0.0,0.0,0.0,0.0,0.0,-1.6908,0.0,0.0,0.0,0.0,0.0,-2.0,-2.0693,0.0,0.0,-2.0354,-2.0339,-2.0528,0.0,-2.0569,-2.0715,-2.0957,-2.0789,-2.0744,-2.0744,-2.0794,-2.0794,0.0,0.0,0.0,-2.0556,-1.9657,0.0,0.0,0.0,0.0,0.0,0.0,0.0,0.0,0.0,0.0,0.0,0.0,0.0,0.0,0.0,0.0,0.0,0.0,0.0,0.0,0.0,0.0,0.0,0.0,0.0,0.0,0.0,-1.8396,-1.8882,-1.9889,-1.9919,-1.9955,-2.0025,-2.0061,-2.008,-2.01,-2.0235,-2.027,-2.015,-1.95,-1.9207,-1.9221,-1.8577,-1.8121,-1.7828,-1.7449,-1.716,-1.6921,-1.6392,-1.5869,-1.5334,-1.476,-1.4115,-1.3391,-1.3712,0.0,0.0,0.0,0.0,0.0,0.0,0.0,0.0,0.0,-1.9842,0.0,-2.0962,0.0,-2.1808,0.0,-2.2342,-2.2118,-2.2048,-2.1637,0.0,-2.0628,-2.0056,0.0,0.0,0.0,-1.6059,-1.4734,-1.4414,-1.4231,0.0,0.0,0.0,0.0,0.0,0.0,0.0,0.0,-2.0091,0.0,0.0,-2.035,0.0,0.0,-2.0423,-2.0388,0.0,-2.0339,-2.0388,-2.0388,-2.0441,-2.0527,-2.061,-2.0644,-2.0726,-2.0744,-2.0761,-2.0794,-2.0811,-2.086,0.0,-1.9988,-1.9466,0.0,-1.8219,0.0,0.0,0.0,0.0,0.0,0.0,0.0,0.0,0.0,0.0,0.0,0.0,0.0,0.0,0.0,0.0,0.0,0.0,0.0,-1.4509,-1.5035,0.0,0.0,0.0,0.0,-1.8436,-1.9401,-1.9763,-1.9955,-2.0005,-2.0045,-2.008,-2.01,-2.0185,-2.0185,-2.0065,-1.9551,-1.9258,-1.9147,-1.8693,-1.8319,-1.8016,-1.7625,-1.7284,-1.6951,-1.6466,-1.5901,-1.5289,-1.4686,-1.3789,-1.2832,0.0,0.0,0.0,0.0,-1.4569,0.0,0.0,0.0,-1.9044,0.0,-2.0156,-2.089,-2.1495,-2.1989,-2.2554,-2.326,-2.3041,0.0,-2.1958,-2.1976,0.0,0.0,-2.0606,-2.039,-1.8895,0.0,0.0,0.0,-1.5294,0.0,0.0,0.0,0.0,0.0,-1.5499,0.0,-1.7182,-1.9195,-2.0224,-2.0527,-2.0728,-2.0794,-2.0794,-2.0595,0.0,-2.0388,-2.0339,-2.0339,-2.0388,-2.0388,-2.0441,-2.0494,-2.0527,-2.061,-2.0693,-2.0693,-2.0744,-2.0827,-2.0861,-2.0893,-2.075,-2.0114,0.0,0.0,0.0,0.0,-1.9815,0.0,0.0,0.0,0.0,0.0,0.0,0.0,0.0,0.0,0.0,0.0,0.0,0.0,0.0,0.0,0.0,0.0,-1.3965,-1.4387,-1.4095,0.0,0.0,0.0,-1.7948,-1.8838,-1.9466,-1.9848,-2.0005,-2.0005,-2.0025,-2.0115,-2.0115,-2.01,-2.0115,-1.9711,-1.9384,-1.9101,-1.8898,-1.863,-1.8266,-1.7948,-1.7503,-1.6951,-1.6281,-1.5635,-1.5108,-1.4915,-1.3931,-1.2627,-1.5042,-1.5229,-1.5504,0.0,-1.5943,-1.6075,0.0,0.0,0.0,0.0,-2.1744,-2.2732,-2.2539,-2.2951,-2.3387,-2.3653,-2.3588,0.0,0.0,0.0,0.0,-2.1302,-2.0971,-2.0414,-1.9572,-1.8432,0.0,-1.7393,0.0,0.0,-1.486,0.0,0.0,0.0,0.0,0.0,-1.7945,-1.8906,-1.9743,-2.0527,-2.0728,-2.0794,0.0,0.0,-2.066,-2.0592,-2.0373,-2.0304,-2.0339,-2.0388,-2.0423,-2.0441,-2.061,-2.066,-2.0726,-2.0777,-2.0827,-2.0877,-2.0893,-2.0958,-2.0974,-2.0687,-2.0273,-1.9829,0.0,0.0,0.0,0.0,0.0,0.0,0.0,0.0,0.0,0.0,0.0,0.0,0.0,0.0,0.0,0.0,0.0,0.0,0.0,-1.4808,-1.4667,-1.3618,-1.4397,0.0,0.0,0.0,0.0,-1.8565,-1.931,-1.9762,-1.9848,-1.9955,-2.0005,-2.0025,-2.0166,-2.027,-2.0235,-1.9874,-1.9588,-1.9384,-1.902,-1.8693,-1.8425,-1.7962,-1.7503,-1.6951,-1.6552,-1.5913,-1.5119,-1.4165,-1.3351,-1.2735,-1.5731,0.0,0.0,-1.7137,0.0,0.0,-1.7369,0.0,0.0,-2.0297,-2.17,0.0,-2.2513,-2.3156,-2.3638,-2.3696,-2.3696,0.0,0.0,0.0,0.0,-2.13,-2.1195,-2.0715,-1.9735,-1.8991,0.0,-1.7844,0.0,0.0,-1.4505,0.0,0.0,0.0,0.0,-1.6516,0.0,-1.9179,-2.0069,-2.061,-2.0728,0.0,0.0,-2.0726,-2.0693,-2.066,-2.0475,-2.0407,-2.0407,-2.0388,-2.0423,-2.0441,-2.0543,-2.0626,-2.0693,-2.0744,-2.0876,-2.1006,-2.1006,-2.1071,-2.1151,-2.1055,-2.0735,-2.04,-2.0385,-2.0305,-2.0289,0.0,0.0,0.0,0.0,0.0,0.0,0.0,0.0,0.0,0.0,0.0,0.0,0.0,0.0,0.0,0.0,-1.453,-1.4408,-1.3553,-1.4253,0.0,0.0,0.0,0.0,-1.8013,-1.8802,-1.937,-1.9797,-1.9884,-1.9919,-2.0005,-2.0096,-2.0166,-2.0166,-1.9818,-1.95,-1.9207,-1.8983,-1.8669,-1.8361,-1.8055,-1.7503,-1.6672,-1.5932,-1.5468,-1.5017,-1.4071,-1.3457,-1.3016,0.0,0.0,0.0,0.0,0.0,0.0,0.0,-1.8798,0.0,-2.0358,0.0,-2.1742,-2.2163,-2.3036,-2.3595,-2.3595,0.0,-2.337,-2.2832,-2.3438,-2.2813,-2.0718,-2.135,-2.109,-1.9641,-1.9579,0.0,0.0,0.0,0.0,0.0,0.0,0.0,0.0,0.0,0.0,0.0,-1.9765,-2.0693,0.0,-2.0777,-2.0794,-2.0794,-2.0744,-2.0711,-2.0693,-2.0577,-2.0494,-2.046,-2.0457,-2.0475,-2.0494,-2.0441,-2.0577,-2.0711,-2.0711,-2.0892,-2.107,-2.1119,-2.1183,-2.1262,-2.1199,-2.1167,-2.1103,-2.1119,-2.1006,-2.0893,-2.0893,-2.0893,-2.0877,0.0,0.0,0.0,0.0,0.0,0.0,0.0,0.0,0.0,0.0,0.0,0.0,0.0,-1.4311,-1.4058,-1.3968,0.0,0.0,0.0,0.0,0.0,-1.7316,-1.8072,0.0,-1.9626,0.0,-1.9848,-1.997,-2.0005,-2.0005,-2.0041,-1.9675,-1.9332,-1.8968,-1.8846,-1.8567,-1.8189,-1.8189,-1.7489,-1.6262,-1.5096,-1.4754,-1.4858,-1.4455,-1.3978,-1.3457,0.0,0.0,0.0,0.0,0.0,-1.9825,-2.0076,-2.0798,-2.1254,-2.1179,-2.2353,-2.3243,-2.3301,-2.3492,-2.3595,-2.3595,-2.3595,0.0,0.0,0.0,0.0,-2.1401,-2.1446,-2.095,-1.9641,-1.9131,-1.8493,0.0,-1.7165,-1.5911,0.0,0.0,0.0,0.0,0.0,0.0,-1.8006,-1.9953,0.0,-2.0561,-2.0728,-2.0794,-2.0794,-2.0794,-2.0761,-2.0761,-2.0677,-2.0559,-2.0441,-2.0592,-2.0577,-2.0527,-2.0662,-2.0761,-2.0761,-2.0761,-2.086,-2.0958,-2.107,-2.1167,-2.1199,-2.1215,-2.1183,-2.1151,-2.1103,-2.1006,-2.0893,-2.0893,-2.0844,-2.0827,-2.0794,0.0,0.0,0.0,0.0,0.0,0.0,0.0,0.0,0.0,0.0,0.0,0.0,0.0,0.0,0.0,0.0,0.0,0.0,0.0,0.0,0.0,0.0,0.0,0.0,0.0,-1.9705,-1.9848,-1.9955,-2.0111,-2.0235,-1.9833,-1.953,-1.9281,-1.902,-1.8563,-1.8042,-1.8149,-1.7462,-1.6225,-1.5153,-1.48,-1.4903,-1.4915,-1.4651,-1.4082,0.0,0.0,0.0,0.0,0.0,0.0,0.0,-2.183,0.0,-2.1758,-2.2294,-2.2787,-2.2787,-2.3271,-2.3595,-2.3595,-2.3595,-2.346,-2.3131,-2.3074,-2.2408,-2.0981,-2.0937,0.0,-1.9516,-1.934,-1.8985,-1.8371,-1.7486,-1.6192,0.0,0.0,0.0,0.0,0.0,-1.7005,0.0,0.0,0.0,-2.0662,-2.0761,-2.0794,-2.0794,-2.0777,-2.0777,-2.0794,-2.0644,-2.0543,-2.0475,-2.0525,-2.0577,-2.061,-2.0628,-2.0728,-2.0794,-2.0794,-2.0909,-2.1006,-2.1006,-2.1135,-2.123,-2.1215,-2.1183,-2.1167,-2.1167,-2.1023,-2.0893,-2.0893,-2.0861,-2.0844,-2.0794,-2.0558,0.0,0.0,0.0,0.0,0.0,0.0,0.0,0.0,0.0,0.0,0.0,0.0,0.0,0.0,0.0,0.0,0.0,0.0,0.0,0.0,0.0,0.0,0.0,0.0,0.0,-1.9762,-1.9848,-1.9955,-2.001,-1.9515,-1.9258,-1.9199,-1.8563,-1.8147,-1.7895,-1.7325,-1.674,-1.6064,-1.5176,-1.4846,-1.4903,-1.496,-1.4731,-1.428,0.0,-1.97,0.0,0.0,-2.0959,0.0,0.0,-2.2366,-2.3243,-2.2164,-2.2236,-2.2365,-2.2365,-2.3066,-2.3595,-2.3595,-2.3475,-2.3191,-2.2753,-2.245,-2.1758,-2.0469,-2.0386,-2.0114,-1.9465,-1.9639,-1.9502,0.0,0.0,0.0,0.0,0.0,-1.4964,-1.4271,0.0,0.0,0.0,0.0,-2.0711,-2.0728,-2.0728,-2.0728,-2.0728,-2.0677,-2.0677,-2.0695,-2.0527,-2.0494,-2.0494,-2.0407,-2.0509,-2.0644,-2.0595,-2.0662,-2.0794,-2.0827,-2.0941,-2.1054,-2.0974,-2.1119,-2.1262,-2.123,-2.1151,-2.1135,-2.1183,-2.1055,-2.0893,-2.0893,-2.0893,-2.0844,-2.0761,-2.0761,0.0,0.0,0.0,0.0,0.0,0.0,0.0,0.0,0.0,0.0,0.0,0.0,0.0,0.0,0.0,0.0,0.0,0.0,0.0,0.0,0.0,-1.7684,-1.8357,0.0,-1.969,0.0,-1.9762,-1.9797,-1.9762,-1.9132,-1.8869,-1.8936,-1.8028,-1.7693,-1.772,-1.6557,-1.6051,-1.5901,-1.5119,-1.4834,-1.4903,-1.4949,-1.4777,-1.4466,0.0,0.0,0.0,0.0,0.0,0.0,0.0,-2.2586,-2.3275,-2.2331,-2.2936,-2.3462,-2.3462,-2.3522,-2.3595,-2.3595,-2.3086,-2.2783,-2.2724,-2.2113,-2.1376,-2.0454,-2.0386,-2.019,-1.9705,-1.9523,-1.934,0.0,0.0,0.0,0.0,0.0,-1.6976,-1.6987,0.0,0.0,0.0,-2.0297,-2.0644,-2.0527,-2.0527,-2.0527,-2.0527,-2.0527,-2.0527,-2.0527,-2.0441,-2.0441,-2.0494,-2.0407,-2.0441,-2.0561,-2.0728,-2.0794,-2.0827,-2.0861,-2.0893,-2.0942,-2.1135,-2.1183,-2.1215,-2.1294,-2.123,-2.1183,-2.1215,-2.1055,-2.0893,-2.0893,-2.0844,-2.0761,-2.0561,-2.0695,-2.0745,0.0,0.0,0.0,0.0,0.0,0.0,0.0,0.0,0.0,0.0,0.0,0.0,0.0,0.0,0.0,0.0,0.0,0.0,-1.5294,0.0,-1.7344,-1.7619,-1.8951,0.0,-1.969,-1.9726,-1.9726,-1.9762,-1.9011,-1.864,-1.8612,-1.7868,-1.7502,-1.735,-1.6423,-1.5988,-1.5944,-1.5175,-1.4903,-1.4903,-1.5051,-1.5062,-1.4971,0.0,0.0,0.0,0.0,0.0,0.0,0.0,-2.2611,-2.329,-2.248,-2.3246,-2.3839,-2.3839,-2.3839,-2.3839,-2.3839,-2.3083,-2.2461,-2.2113,-2.1337,-2.0605,-1.9953,-1.9811,-1.9716,-1.969,-1.9741,-1.9783,0.0,0.0,0.0,0.0,0.0,0.0,0.0,0.0,-1.9498,-1.9577,-2.0229,-2.0509,-2.0494,-2.0494,-2.0494,-2.0494,-2.0494,-2.0561,-2.061,-2.0509,-2.0543,-2.061,-2.0592,-2.0577,-2.0644,-2.0711,-2.0777,-2.0827,-2.0877,-2.0893,-2.0926,-2.1007,-2.1103,-2.1183,-2.1183,-2.1167,-2.1135,-2.1135,-2.0974,-2.0844,-2.0844,-2.0827,-2.0794,-2.0695,-2.0761,-2.0794,0.0,0.0,0.0,0.0,0.0,0.0,0.0,0.0,0.0,0.0,0.0,0.0,0.0,0.0,-1.4251,-1.3814,0.0,0.0,-1.4587,0.0,-1.7382,-1.7497,-1.8941,-1.9654,-1.969,-1.969,-1.9581,-1.9362,-1.8936,-1.8422,-1.7935,-1.757,-1.7378,-1.7212,-1.6565,-1.6219,-1.6057,-1.5546,-1.5187,-1.5017,-1.5062,-1.5108,-1.5017,-2.1212,0.0,-2.0422,0.0,-2.1203,-2.1195,-2.1615,-2.2844,-2.3508,-2.292,-2.3595,-2.4135,-2.4094,-2.4024,-2.4024,-2.4067,-2.2987,-2.2173,-2.1828,-2.0833,-2.0087,-1.9662,-1.9523,0.0,-1.9818,-1.9919,-2.0061,-2.0339,-1.9826,0.0,0.0,-1.86,0.0,0.0,-1.951,-1.9762,-1.9858,-2.0273,-2.0475,-2.0494,-2.0494,-2.0494,-2.046,-2.046,-2.0509,-2.0577,-2.0475,-2.0543,-2.0644,-2.0644,-2.0677,-2.0711,-2.0711,-2.0777,-2.0827,-2.0877,-2.0893,-2.0909,-2.0958,-2.1071,-2.1183,-2.1135,-2.1103,-2.1119,-2.1119,-2.0957,-2.0794,-2.0794,-2.0794,-2.0794,-2.0794,-2.0794,-2.0794,-2.0827,0.0,0.0,0.0,0.0,0.0,0.0,0.0,-1.7018,0.0,0.0,0.0,0.0,0.0,-1.3838,-1.3878,0.0,0.0,0.0,0.0,0.0,0.0,-1.8962,-1.9639,-1.9566,-1.9566,-1.9347,-1.8988,-1.8669,-1.8147,-1.7557,-1.7378,-1.7337,-1.7227,-1.682,-1.6448,-1.6156,-1.578,-1.5412,-1.5108,-1.5108,-1.5108,-1.5017,-2.1758,-2.1332,-2.1082,-2.1375,-2.1908,-2.2314,-2.237,-2.3304,-2.3882,-2.3595,-2.4162,-2.4508,-2.4317,-2.4109,-2.4067,-2.4261,-2.2753,-2.1901,-2.2079,-2.0771,-1.9935,0.0,0.0,-1.9904,-2.01,-1.9904,-1.999,-2.0388,0.0,0.0,-1.9302,-1.9173,-1.9559,-2.0357,-2.0323,-2.0339,-2.0407,-2.046,-2.0494,-2.0494,-2.0494,-2.0475,-2.0388,-2.0388,-2.0354,-2.0304,-2.0304,-2.0407,-2.0494,-2.0494,-2.0628,-2.0794,-2.0794,-2.0794,-2.0827,-2.0877,-2.0893,-2.0942,-2.1054,-2.1167,-2.1215,-2.1215,-2.1167,-2.1119,-2.1119,-2.0957,-2.0794,-2.0794,-2.0794,-2.0794,-2.0794,-2.0794,-2.0827,-2.0893,0.0,0.0,0.0,0.0,0.0,0.0,0.0,-1.6742,-1.6072,0.0,0.0,0.0,0.0,0.0,0.0,0.0,0.0,-1.5149,-1.6644,0.0,-1.7497,-1.8962,-1.953,-1.9207,-1.9207,-1.9058,-1.8784,-1.8108,-1.7747,-1.7679,-1.7352,-1.7323,-1.7475,-1.7086,-1.662,-1.6156,-1.578,-1.5412,-1.5108,-1.5108,-1.5108,-1.5108,-2.156,-2.1496,-2.1471,-2.118,-2.1908,-2.2374,-2.203,-2.3172,-2.3982,-2.3653,-2.4135,-2.4564,-2.4645,-2.4523,-2.4426,0.0,-2.3446,-2.2806,0.0,-2.15,-2.0695,-2.0761,-2.0125,-1.9904,-2.0115,-2.0045,-2.0115,-2.0388,0.0,0.0,0.0,-1.9999,-2.019,-2.0388,-2.0441,-2.0441,-2.0388,-2.0407,-2.0407,-2.0357,-2.0357,-2.0339,-2.0339,-2.0388,-2.0373,-2.0308,-2.0392,-2.046,-2.0527,-2.061,-2.0677,-2.0744,-2.0794,-2.0794,-2.0827,-2.0877,-2.0877,-2.0844,-2.0958,-2.099,-2.1023,-2.1103,-2.1038,-2.1006,-2.107,-2.0957,-2.0794,-2.0794,-2.0794,-2.0794,-2.0794,-2.0794,-2.0794,-2.0811,-2.0761,0.0,0.0,0.0,0.0,0.0,0.0,-1.7868,0.0,-1.6563,0.0,0.0,0.0,0.0,0.0,0.0,0.0,0.0,-1.6378,0.0,-1.7497,-1.8962,-1.9639,-1.953,-1.9332,-1.8921,-1.8372,-1.7841,-1.757,-1.7502,-1.7447,-1.7602,-1.7899,-1.7514,-1.7118,-1.6716,-1.6296,-1.5728,-1.5154,-1.5487,-1.5395,-1.5108,-2.2014,-2.2074,-2.2156,-2.1921,-2.242,-2.2785,-2.2466,-2.3421,-2.4067,-2.3797,-2.4219,-2.4564,-2.4726,-2.4686,0.0,-2.4766,-2.3887,-2.3341,-2.346,-2.2293,-2.1495,-2.1301,-2.1008,-2.0793,-2.0588,0.0,0.0,-2.0794,-2.0462,-2.0304,-2.0239,-2.0392,-2.0441,-2.0388,-2.0407,-2.0407,-2.0354,-2.0388,-2.0388,-2.0339,-2.0373,-2.0373,-2.0339,-2.0388,-2.0373,-2.0308,-2.0392,-2.046,-2.0527,-2.061,-2.0677,-2.0744,-2.0794,-2.0794,-2.0827,-2.0844,-2.0811,-2.0827,-2.0844,-2.0877,-2.0942,-2.107,-2.1054,-2.099,-2.1006,-2.0909,-2.0794,-2.0794,-2.086,-2.0893,-2.0893,-2.0958,-2.0958,-2.0827,-2.0794,-2.0761,-2.0695,0.0,0.0,0.0,0.0,0.0,0.0,-1.7513,0.0,0.0,0.0,0.0,0.0,0.0,0.0,-1.4963,-1.6556,0.0,-1.7903,-1.9081,-1.9639,-1.953,-1.9058,-1.8539,-1.7949,-1.7625,-1.7461,-1.7419,-1.7365,-1.7652,-1.8205,-1.793,-1.7599,-1.7282,-1.7048,-1.6421,-1.5716,-1.6026,-1.5946,-1.5622,-2.2985,-2.2898,0.0,0.0,-2.3334,0.0,-2.3406,-2.3909,-2.4219,-2.4067,-2.4343,-2.4589,-2.4589,-2.4726,-2.4822,-2.4966,0.0,0.0,0.0,-2.313,-2.2368,-2.1605,-2.2222,-2.2222,-2.1414,-2.1383,-2.1368,-2.1321,-2.0682,-2.0407,-2.0494,-2.0407,-2.0388,-2.0388,-2.0339,-2.0304,-2.0304,-2.0388,-2.0388,-2.0388,-2.046,-2.0441,-2.0388,-2.0423,-2.0454,-2.0466,-2.045,-2.0537,-2.0639,-2.072,-2.0838,-2.0923,-2.0923,-2.0923,-2.0907,-2.0843,-2.0827,-2.0794,-2.0827,-2.0844,-2.0909,-2.1054,-2.107,-2.1054,-2.0974,-2.0877,-2.0827,-2.0844,-2.1023,-2.1151,-2.1151,-2.1262,-2.1214,-2.0893,-2.0827,-2.0745,-2.0499,0.0,0.0,0.0,0.0,0.0,0.0,-1.8051,-1.8316,0.0,0.0,0.0,0.0,0.0,-1.4948,-1.6259,-1.7056,-1.7821,-1.8584,-1.9325,-1.953,-1.9169,-1.8577,-1.8042,-1.7475,-1.7432,-1.7432,-1.7434,-1.7157,-1.7525,-1.8352,-1.817,-1.7956,-1.781,-1.7799,-1.7301,-1.6585,-1.6658,-1.6658,-1.6523,0.0,0.0,-2.3334,-2.3024,-2.329,-2.3551,-2.3551,-2.3994,-2.4261,-2.4234,-2.4302,-2.44,-2.4523,-2.4605,-2.467,-2.467,-2.4649,-2.465,-2.4729,-2.3966,-2.3434,-2.3224,-2.2827,-2.2222,-2.1414,-2.1383,-2.11,-2.057,-2.0416,-2.0339,-2.0339,-2.0339,-2.0304,-2.0339,-2.0354,-2.0354,-2.0304,-2.0388,-2.0388,-2.0339,-2.0339,-2.0339,-2.0354,-2.0675,-2.1252,-2.1927,-2.1937,-2.1955,-2.2085,-2.2834,-2.2704,-2.2248,-2.2295,-2.2327,-2.2166,-2.136,-2.0974,-2.0827,-2.1038,-2.0974,-2.0844,-2.0925,-2.0958,-2.1023,-2.123,-2.123,-2.1246,-2.1509,-2.1601,-2.1631,-2.1631,-2.1617,-2.1495,-2.1214,-2.1135,-2.0831,-2.0083,-2.0448,0.0,0.0,-1.963,-1.9713,-1.9028,-1.9067,-1.8913,0.0,0.0,0.0,0.0,-1.696,-1.6574,-1.6303,-1.76,-1.8401,-1.8599,-1.9325,-1.942,-1.8898,-1.8577,-1.8082,-1.7432,-1.7295,-1.7128,-1.6876,-1.7073,-1.744,-1.7867,-1.779,-1.7817,-1.7799,-1.7556,-1.7109,-1.6669,-1.706,-1.6956,-1.6631,-2.329,-2.3595,-2.3824,-2.3595,-2.3739,-2.3909,-2.3909,-2.4135,-2.4302,-2.4302,-2.4302,-2.4317,-2.44,-2.4482,-2.4564,-2.4564,-2.4766,-2.4902,-2.4902,-2.4516,-2.4131,-2.3802,-2.37,-2.3248,-2.2508,-2.2493,-2.2129,-2.1337,-2.0976,-2.0786,-2.0786,-2.0443,-2.0304,-2.0304,-2.0339,-2.0339,-2.0304,-2.0509,-2.0577,-2.0527,-2.0712,-2.0968,-2.1286,-2.1518,-2.2343,-2.3369,-2.3078,-2.2736,-2.2573,-2.3539,-2.3111,-2.2241,-2.2665,-2.2518,-2.211,-2.1655,-2.1277,-2.1006,-2.1151,-2.1103,-2.1087,-2.1308,-2.137,-2.1401,-2.1584,-2.157,-2.1587,-2.1708,-2.1781,-2.184,-2.184,-2.184,-2.1751,-2.1462,-2.1464,-2.1241,-2.0574,-2.0667,0.0,-2.0031,-2.0095,-2.002,-1.9609,-1.9566,-1.9381,-1.8882,0.0,0.0,-1.791,-1.8258,-1.814,-1.7324,-1.8159,-1.8768,-1.9116,-1.951,-1.9457,-1.8997,-1.8745,-1.8319,-1.7666,-1.7323,-1.7044,-1.6791,-1.6863,-1.7183,-1.769,-1.7756,-1.7847,-1.787,-1.7762,-1.7355,-1.6831,-1.73,-1.7312,-1.7099,-2.3767,-2.4036,-2.4302,-2.4302,-2.4302,-2.4302,-2.4302,-2.4302,-2.4302,-2.4302,-2.4302,-2.4302,-2.4302,-2.44,-2.4457,-2.4457,-2.4661,-2.4742,-2.4782,-2.4782,-2.4516,-2.3936,-2.4469,-2.4453,-2.3763,-2.3653,-2.3271,-2.2586,-2.1921,-2.1528,-2.1383,-2.0756,-2.0431,-2.0373,-2.0447,-2.0478,-2.0562,-2.0962,-2.1144,-2.1177,-2.1472,-2.1956,-2.2573,-2.2769,-2.3588,-2.4595,-2.4048,-2.3457,-2.3096,-2.4001,-2.3241,-2.2104,-2.2824,-2.2495,-2.1807,-2.1886,-2.1601,-2.1294,-2.1294,-2.1325,-2.1433,-2.1811,-2.1869,-2.1899,-2.1957,-2.1899,-2.184,-2.1827,-2.1915,-2.1986,-2.1986,-2.2044,-2.1969,-2.1718,-2.1735,-2.1658,-2.1193,0.0,-2.0566,-2.0703,-2.013,-1.9776,-1.9849,-1.9803,-1.966,-1.9465,-1.9538,-1.9286,0.0,-1.9269,-1.94,-1.8688,-1.8763,-1.9086,-1.9675,-1.969,-1.953,-1.9132,-1.8884,-1.8461,-1.7908,-1.7352,-1.7031,-1.6876,-1.6607,-1.6885,-1.7549,-1.7759,-1.7842,-1.7865,-1.7939,-1.7593,-1.7029,-1.7373,-1.7484,-1.7491,-2.4219,-2.4261,-2.4302,-2.4302,-2.4302,-2.4302,-2.4302,-2.4302,-2.4302,-2.4302,-2.4302,-2.4302,-2.4302,-2.4317,-2.4317,-2.4317,-2.4441,-2.458,-2.4645,-2.463,-2.4583,-2.4474,-2.4583,-2.4278,-2.3569,-2.2994,-2.2652,-2.2506,-2.244,-2.2082,-2.1383,-2.129,-2.1039,-2.076,-2.1085,-2.137,-2.1679,-2.2436,-2.2725,-2.2745,-2.2794,-2.301,-2.3438,-2.4381,-2.488,-2.5063,-2.5261,-2.5242,-2.5259,-2.6199,-2.5435,-2.4137,-2.4286,-2.3799,-2.3013,-2.2153,-2.184,-2.1781,-2.1781,-2.1615,-2.1524,-2.1751,-2.1768,-2.1827,-2.222,-2.2186,-2.2141,-2.2398,-2.2443,-2.2415,-2.2415,-2.2377,-2.2248,-2.1969,-2.1911,-2.1536,-2.0589,0.0,-2.1105,-2.0081,-2.0257,-2.034,-2.0085,-1.969,-1.9487,-1.9574,-1.9574,-1.9566,-1.9504,-1.963,-1.9645,-1.9504,-1.9525,-1.9585,-1.969,-1.969,-1.942,-1.886,-1.8669,-1.8226,-1.7557,-1.7005,-1.6765,-1.6723,-1.6565,-1.6627,-1.6883,-1.7327,-1.7343,-1.7088,-1.7459,-1.7265,-1.6846,-1.7015,-1.7088,-1.71,-2.4302,-2.4302,-2.4302,-2.4302,-2.4302,-2.4302,-2.4302,-2.4302,-2.4302,-2.4302,-2.4302,-2.4302,-2.4302,-2.4302,-2.4302,-2.4302,-2.4359,-2.44,-2.4426,-2.4523,-2.4564,-2.4589,-2.4564,-2.4424,-2.4098,-2.3787,-2.3616,-2.3616,-2.3281,-2.2938,-2.2574,-2.2201,-2.1931,-2.1792,-2.1962,-2.2232,-2.2582,-2.3128,-2.3464,-2.3618,-2.3786,-2.4165,-2.4697,-2.5227,-2.5647,-2.6,-2.6184,-2.5963,-2.5727,-2.6621,-2.5601,-2.4011,-2.4462,-2.3786,-2.2762,-2.2264,-2.2003,-2.1911,-2.194,-2.2015,-2.2073,-2.2203,-2.2231,-2.2287,-2.2497,-2.248,-2.2436,-2.2525,-2.2515,-2.2487,-2.246,-2.2377,-2.2321,-2.2231,-2.2147,0.0,0.0,-2.167,-2.1619,-2.0959,-2.1035,-2.0926,-2.0376,-2.0115,-1.9904,-1.9669,-1.9669,-1.9669,-1.969,-1.969,-1.969,-1.969,-1.969,-1.969,-1.969,-1.969,-1.9545,-1.9213,-1.8669,-1.8226,-1.7908,-1.7005,-1.668,-1.6778,-1.6565,-1.6565,-1.6816,-1.7058,-1.7073,-1.6967,-1.695,-1.6776,-1.6536,-1.6539,-1.6597,-1.6728,-2.4302,-2.4302,-2.4302,-2.4302,-2.4302,-2.4302,-2.4302,-2.4302,-2.4302,-2.4302,-2.4302,-2.4302,-2.4302,-2.4302,-2.4302,-2.4302,-2.4302,-2.4302,-2.4302,-2.44,-2.4482,-2.4508,-2.4482,-2.4482,-2.4508,-2.4549,-2.4564,-2.4564,-2.406,-2.3795,-2.37,-2.3183,-2.2949,-2.2936,-2.3038,-2.3283,-2.3635,-2.4058,-2.4363,-2.4564,-2.4888,-2.5338,-2.5862,-2.5862,-2.6201,-2.6691,-2.6691,-2.6336,-2.5947,-2.6639,-2.5537,-2.3985,-2.4448,-2.3655,-2.253,-2.2361,-2.2135,-2.1986,-2.2044,-2.226,-2.2487,-2.2569,-2.2623,-2.2659,-2.2685,-2.2685,-2.2659,-2.2525,-2.2515,-2.246,-2.2405,-2.2338,-2.231,-2.2366,0.0,0.0,0.0,-2.2101,-2.194,-2.1827,-2.1634,-2.1277,-2.0712,-2.0561,-2.0323,-1.9833,-1.9782,-1.9762,-1.969,-1.969,-1.969,-1.969,-1.969,-1.969,-1.969,-1.969,-1.956,-1.9376,-1.8669,-1.8266,-1.8068,-1.7089,-1.6735,-1.6876,-1.662,-1.6663,-1.6888,-1.7044,-1.696,-1.6791,-1.665,-1.638,-1.6113,-1.6099,-1.6149,-1.6289,-2.4302,-2.4302,-2.4302,-2.4302,-2.4302,-2.4302,-2.4302,-2.4302,-2.4302,-2.4302,-2.4302,-2.4302,-2.4302,-2.4302,-2.4302,-2.4302,-2.4302,-2.4302,-2.4302,-2.4302,-2.4317,-2.4302,-2.4317,-2.4317,-2.4302,-2.4441,-2.4498,-2.4498,-2.4502,-2.4383,-2.4058,-2.401,-2.3939,-2.3918,-2.4356,-2.4736,-2.5078,-2.5808,-2.6108,-2.6164,-2.6438,-2.6556,-2.6623,-2.6623,-2.664,-2.6691,-2.6691,-2.6657,-2.6623,-2.6674,-2.615,-2.5338,-2.4709,-2.3951,-2.3173,-2.2513,-2.2282,-2.2265,-2.2282,-2.231,-2.2338,-2.2487,-2.2515,-2.2542,-2.2659,-2.2659,-2.2605,-2.2579,-2.2487,-2.2422,-2.2405,-2.2338,-2.231,-2.231,0.0,0.0,-2.2056,-2.2027,-2.194,-2.1827,-2.1448,-2.1198,-2.1135,-2.0761,-2.0392,-2.01,-2.0065,-1.996,-1.9711,-1.969,-1.969,-1.969,-1.969,-1.969,-1.969,-1.9632,-1.9288,-1.8669,-1.8553,-1.8147,-1.7557,-1.7269,-1.7086,-1.6876,-1.6876,-1.6803,-1.6761,-1.7196,-1.6931,-1.6275,-1.6705,-1.6349,-1.5603,-1.5739,-1.5852,-1.5852,-2.4394,-2.4302,-2.4302,-2.4302,-2.4302,-2.4302,-2.4302,-2.4302,-2.4302,-2.4302,-2.4302,-2.4302,-2.4302,-2.4302,-2.4385,-2.4639,-2.4679,-2.4799,-2.502,-2.5044,-2.4823,-2.4302,-2.4533,-2.4679,-2.4679,-2.4958,-2.5114,-2.5114,-2.523,-2.5217,-2.5109,-2.5163,-2.5216,-2.5168,-2.5376,-2.5615,-2.5912,-2.6175,-2.6415,-2.6556,-2.6657,-2.6691,-2.6691,-2.6691,-2.6691,-2.6691,-2.6691,-2.6691,-2.6691,-2.6691,-2.6201,-2.5558,-2.527,-2.4678,-2.3934,-2.3148,-2.2596,-2.2225,-2.2225,-2.231,-2.2377,-2.2487,-2.2542,-2.2596,-2.2685,-2.2685,-2.2659,-2.2605,-2.2569,-2.2515,-2.2422,-2.2394,-2.2366,-2.231,0.0,-2.2265,-2.2192,-2.2192,-2.2106,-2.1827,-2.1661,-2.1448,-2.1071,-2.0828,-2.0646,-2.0392,-2.0204,-2.008,-1.996,-1.9797,-1.969,-1.969,-1.969,-1.969,-1.9632,-1.9611,-1.9413,-1.9026,-1.864,-1.8212,-1.7787,-1.7297,-1.7018,-1.6876,-1.6663,-1.6663,-1.6846,-1.6931,-1.6931,-1.6778,-1.6577,-1.6318,-1.6088,-1.5736,-1.5659,-1.576,-2.4671,-2.4456,-2.4302,-2.4302,-2.4302,-2.4343,-2.4451,-2.4492,-2.4533,-2.4639,-2.4679,-2.4679,-2.4679,-2.4679,-2.4799,-2.5044,-2.5098,-2.5198,-2.5465,-2.5503,-2.5237,-2.4719,-2.4942,-2.5098,-2.5098,-2.5351,-2.5503,-2.5503,-2.5594,-2.5721,-2.5832,-2.5921,-2.6046,-2.6154,-2.6154,-2.626,-2.6435,-2.6434,-2.6521,-2.6691,-2.6691,-2.6691,-2.6691,-2.6691,-2.6691,-2.6691,-2.6691,-2.6691,-2.6691,-2.6691,-2.6353,-2.5913,-2.5676,-2.4932,-2.4005,-2.3456,-2.2769,-2.2152,-2.2185,-2.2271,-2.2366,-2.2432,-2.2515,-2.2596,-2.2659,-2.2685,-2.2685,-2.2632,-2.2605,-2.2569,-2.246,-2.2405,-2.2394,-2.231,-2.231,-2.231,-2.231,-2.231,-2.218,-2.1899,-2.1869,-2.1661,-2.1166,-2.1103,-2.1007,-2.0679,-2.0376,-2.0135,-1.996,-1.9797,-1.969,-1.969,-1.969,-1.9654,-1.9611,-1.9574,-1.9413,-1.9161,-1.8679,-1.833,-1.8042,-1.7421,-1.7102,-1.696,-1.665,-1.6607,-1.6791,-1.6761,-1.6735,-1.6735,-1.6548,-1.6291,-1.6013,-1.578,-1.5655,-1.5659,-2.5265,-2.4764,-2.4302,-2.4302,-2.4302,-2.4451,-2.4823,-2.4902,-2.5044,-2.5465,-2.5503,-2.5503,-2.5503,-2.5503,-2.5503,-2.5503,-2.5503,-2.5503,-2.5503,-2.5503,-2.5503,-2.5503,-2.5503,-2.5503,-2.5503,-2.5503,-2.5503,-2.5503,-2.5503,-2.5726,-2.6087,-2.6087,-2.6315,-2.6691,-2.6691,-2.6691,-2.6691,-2.6691,-2.6691,-2.6691,-2.6691,-2.6691,-2.6691,-2.6691,-2.6691,-2.6691,-2.6691,-2.6691,-2.6691,-2.6691,-2.6691,-2.6573,-2.5845,-2.4548,-2.3291,-2.3308,-2.2677,-2.2044,-2.2168,-2.2214,-2.2242,-2.2366,-2.246,-2.2515,-2.2579,-2.2659,-2.2712,-2.2712,-2.2632,-2.2579,-2.2515,-2.2432,-2.2394,-2.231,-2.231,-2.231,-2.231,-2.231,-2.2237,-2.2027,-2.1998,-2.1882,-2.162,-2.1589,-2.1433,-2.1039,-2.0697,-2.0289,-1.9726,-1.9711,-1.969,-1.969,-1.969,-1.9654,-1.9611,-1.9465,-1.9236,-1.8893,-1.8693,-1.8436,-1.8189,-1.7733,-1.7393,-1.7199,-1.685,-1.6637,-1.6522,-1.6791,-1.6466,-1.5881,-1.6765,-1.6281,-1.5211,-1.5916,-1.5915,-1.5513,-2.5744,-2.5578,-2.5454,-2.5373,-2.5335,-2.5335,-2.5313,-2.5449,-2.5561,-2.5709,-2.5803,-2.5839,-2.5709,-2.5709,-2.5783,-2.5908,-2.5908,-2.6052,-2.6315,-2.635,-2.635,-2.635,-2.6052,-2.5908,-2.5908,-2.621,-2.635,-2.635,-2.635,-2.6385,-2.6505,-2.6505,-2.659,-2.6691,-2.6691,-2.6691,-2.6691,-2.6691,-2.6691,-2.6691,-2.6691,-2.6691,-2.6691,-2.6691,-2.6691,-2.6691,-2.6691,-2.6691,-2.6691,-2.6691,-2.6691,-2.6657,-2.6437,-2.4856,-2.3207,-2.3804,-2.302,-2.1957,-2.2044,-2.2123,-2.2242,-2.2366,-2.2422,-2.2432,-2.2515,-2.2542,-2.2569,-2.2569,-2.2525,-2.2515,-2.2432,-2.2405,-2.2394,-2.231,-2.231,-2.231,-2.231,-2.231,-2.2237,-2.2027,-2.1928,-2.1797,-2.162,-2.1511,-2.1417,-2.1276,-2.1103,-2.073,-2.0085,-2.005,-1.9945,-1.9726,-1.969,-1.9654,-1.9611,-1.9413,-1.9288,-1.9161,-1.8965,-1.862,-1.8202,-1.8069,-1.7693,-1.7199,-1.6947,-1.6905,-1.6989,-1.696,-1.682,-1.6663,-1.6554,-1.621,-1.5703,-1.5611,-1.5485,-1.539,-2.6278,-2.6036,-2.5911,-2.5803,-2.5819,-2.5819,-2.5892,-2.5999,-2.6125,-2.6317,-2.6386,-2.6351,-2.6317,-2.6298,-2.6315,-2.6436,-2.6436,-2.6521,-2.6742,-2.6742,-2.6691,-2.6691,-2.647,-2.635,-2.635,-2.659,-2.6691,-2.6691,-2.6691,-2.6691,-2.6691,-2.6691,-2.6691,-2.6691,-2.6691,-2.6691,-2.6691,-2.6691,-2.6691,-2.6691,-2.6691,-2.6691,-2.6691,-2.6691,-2.6691,-2.6691,-2.6691,-2.6691,-2.6691,-2.6691,-2.6758,-2.6825,-2.6725,-2.5542,-2.4166,-2.4271,-2.3374,-2.2265,-2.2024,-2.2061,-2.2135,-2.2282,-2.2366,-2.2405,-2.246,-2.2487,-2.2515,-2.2515,-2.2515,-2.2487,-2.2405,-2.2405,-2.2394,-2.231,-2.231,-2.231,-2.231,-2.231,-2.2237,-2.2032,-2.1928,-2.1827,-2.162,-2.1542,-2.1448,-2.1324,-2.1261,-2.0926,-2.0243,-2.0208,-2.005,-1.9726,-1.969,-1.9654,-1.9611,-1.9413,-1.9302,-1.9302,-1.9116,-1.8851,-1.8542,-1.8214,-1.7814,-1.7434,-1.7086,-1.696,-1.7073,-1.7002,-1.6863,-1.6705,-1.666,-1.6272,-1.5715,-1.5749,-1.552,-1.5255,-2.6784,-2.6372,-2.5964,-2.5928,-2.5928,-2.6071,-2.6471,-2.6573,-2.6707,-2.7149,-2.712,-2.7055,-2.7103,-2.7055,-2.7007,-2.7007,-2.6942,-2.6926,-2.6926,-2.6792,-2.6725,-2.6725,-2.6725,-2.6725,-2.6725,-2.6691,-2.6691,-2.6691,-2.6691,-2.6691,-2.6691,-2.6691,-2.6691,-2.6691,-2.6691,-2.6691,-2.6691,-2.6691,-2.6691,-2.6691,-2.6691,-2.6691,-2.6691,-2.6691,-2.6725,-2.6725,-2.6725,-2.6725,-2.6725,-2.6691,-2.6824,-2.6967,-2.6774,-2.6247,-2.5493,-2.4585,-2.3687,-2.2809,-2.217,-2.2027,-2.2101,-2.2237,-2.2349,-2.2432,-2.2405,-2.2432,-2.2487,-2.2487,-2.2487,-2.246,-2.2405,-2.2377,-2.2366,-2.231,-2.231,-2.231,-2.231,-2.231,-2.2225,-2.2053,-2.2003,-2.1869,-2.1634,-2.1664,-2.1556,-2.1261,-2.1309,-2.1039,-2.0311,-2.0277,-2.0085,-1.9762,-1.9726,-1.9669,-1.9574,-1.9376,-1.9302,-1.9302,-1.9153,-1.9064,-1.8988,-1.8201,-1.7787,-1.772,-1.7157,-1.696,-1.696,-1.696,-1.6735,-1.6405,-1.6851,-1.6339,-1.5474,-1.6114,-1.587,-1.5246,-2.7144,-2.7107,-2.7068,-2.6922,-2.6889,-2.6906,-2.6875,-2.6989,-2.7068,-2.7181,-2.7324,-2.7341,-2.7181,-2.7166,-2.7103,-2.7007,-2.6992,-2.6992,-2.6992,-2.6942,-2.6942,-2.6942,-2.6942,-2.6942,-2.6942,-2.6775,-2.6691,-2.6691,-2.6691,-2.6691,-2.6691,-2.6691,-2.6674,-2.664,-2.6674,-2.6674,-2.664,-2.6674,-2.6691,-2.6691,-2.6691,-2.6691,-2.6691,-2.6691,-2.6825,-2.7021,-2.7021,-2.7021,-2.6989,-2.6758,-2.6451,-2.6204,-2.6589,-2.5438,-2.4011,-2.4479,-2.3704,-2.2668,-2.2623,-2.2615,-2.2642,-2.2738,-2.2764,-2.2712,-2.2377,-2.2338,-2.2338,-2.2338,-2.2338,-2.2338,-2.2338,-2.231,-2.231,-2.231,-2.231,-2.231,-2.231,-2.231,-2.2282,-2.2254,-2.1915,-2.1721,-2.1768,-2.1664,-2.1603,-2.1587,-2.1648,-2.1479,-2.0991,-2.0778,-2.0478,-2.003,-1.9777,-1.956,-1.9465,-1.9339,-1.9302,-1.9302,-1.913,-1.8788,-1.8386,-1.8189,-1.7814,-1.7323,-1.7308,-1.7295,-1.7365,-1.7308,-1.717,-1.6947,-1.643,-1.6275,-1.6289,-1.5973,-1.6049,-1.6244,-2.7264,-2.7327,-2.7359,-2.7264,-2.7247,-2.7215,-2.7218,-2.7264,-2.731,-2.7355,-2.7355,-2.7324,-2.731,-2.723,-2.7198,-2.7186,-2.7087,-2.7055,-2.7055,-2.7007,-2.7007,-2.7007,-2.7007,-2.7007,-2.7007,-2.6892,-2.6859,-2.6859,-2.6825,-2.6792,-2.6792,-2.6742,-2.664,-2.6606,-2.6623,-2.6623,-2.6606,-2.6775,-2.6858,-2.6891,-2.7021,-2.7006,-2.6891,-2.7021,-2.6989,-2.6923,-2.7053,-2.7103,-2.7103,-2.7103,-2.6954,-2.6849,-2.7029,-2.6402,-2.5467,-2.5011,-2.4384,-2.369,-2.2937,-2.2773,-2.2816,-2.2825,-2.2893,-2.2825,-2.2632,-2.2596,-2.2596,-2.2649,-2.2632,-2.2632,-2.2668,-2.2694,-2.2694,-2.2694,-2.2487,-2.231,-2.231,-2.231,-2.2237,-2.2077,-2.1991,-2.1886,-2.1768,-2.1694,-2.1634,-2.1634,-2.1694,-2.1526,-2.1119,-2.0958,-2.0663,-2.0115,-1.9884,-1.9683,-1.9413,-1.9339,-1.9265,-1.9176,-1.9078,-1.8889,-1.8606,-1.845,-1.8135,-1.7693,-1.7693,-1.7611,-1.7475,-1.7461,-1.7419,-1.7323,-1.6863,-1.6523,-1.6315,-1.6371,-1.6466,-1.6554,-2.7299,-2.7299,-2.7299,-2.7299,-2.7299,-2.733,-2.7376,-2.7376,-2.7407,-2.7452,-2.7341,-2.7247,-2.7376,-2.7279,-2.7247,-2.7376,-2.7215,-2.7135,-2.7135,-2.7072,-2.704,-2.704,-2.704,-2.7072,-2.7137,-2.712,-2.7072,-2.7007,-2.6942,-2.6926,-2.6926,-2.6808,-2.6742,-2.6674,-2.6708,-2.6691,-2.6742,-2.6973,-2.707,-2.7103,-2.7341,-2.7293,-2.7103,-2.7324,-2.7198,-2.6923,-2.7149,-2.7244,-2.7324,-2.7465,-2.763,-2.776,-2.7569,-2.7584,-2.7399,-2.5823,-2.5255,-2.4803,-2.3432,-2.2989,-2.2919,-2.2919,-2.297,-2.3003,-2.3003,-2.2944,-2.2919,-2.297,-2.2995,-2.3003,-2.3084,-2.3091,-2.3091,-2.3091,-2.2747,-2.2432,-2.2377,-2.2338,-2.2237,-2.2044,-2.2163,-2.2094,-2.1708,-2.1648,-2.1634,-2.1573,-2.1589,-2.1433,-2.1103,-2.1023,-2.078,-2.0239,-2.0045,-1.9812,-1.9472,-1.9325,-1.9213,-1.9101,-1.9101,-1.9064,-1.9026,-1.8745,-1.8397,-1.8109,-1.8042,-1.7787,-1.7516,-1.7516,-1.7516,-1.7475,-1.7337,-1.6842,-1.6284,-1.6843,-1.686,-1.6455,-2.7299,-2.7299,-2.7299,-2.7299,-2.7299,-2.7282,-2.733,-2.7313,-2.733,-2.733,-2.7313,-2.7282,-2.7313,-2.7282,-2.7282,-2.7313,-2.7282,-2.7282,-2.7282,-2.725,-2.7267,-2.7267,-2.7267,-2.7359,-2.7612,-2.7612,-2.7417,-2.7007,-2.6975,-2.6992,-2.6975,-2.7023,-2.7006,-2.6942,-2.707,-2.7117,-2.7135,-2.7261,-2.7215,-2.7006,-2.707,-2.7038,-2.7006,-2.707,-2.7307,-2.7672,-2.7683,-2.7864,-2.7996,-2.7617,-2.763,-2.776,-2.7569,-2.7204,-2.6823,-2.6611,-2.5711,-2.4717,-2.4551,-2.3969,-2.3424,-2.3424,-2.3407,-2.3407,-2.3407,-2.3144,-2.2902,-2.2919,-2.297,-2.3003,-2.3003,-2.306,-2.3091,-2.3091,-2.306,-2.2935,-2.2756,-2.247,-2.246,-2.2867,-2.2398,-2.1919,-2.1631,-2.1509,-2.1448,-2.1417,-2.1542,-2.1542,-2.1355,-2.1134,-2.0942,-2.0795,-2.0174,-1.9803,-1.9767,-1.9347,-1.9101,-1.9101,-1.9101,-1.8936,-1.8669,-1.863,-1.8319,-1.776,-1.7908,-1.7787,-1.7516,-1.7516,-1.7516,-1.7434,-1.6976,-1.6928,-1.7107,-1.6884,-1.6642,-1.6255,-2.7509,-2.739,-2.7299,-2.7299,-2.7299,-2.7299,-2.7299,-2.7299,-2.7299,-2.7299,-2.7299,-2.7299,-2.7299,-2.7299,-2.7376,-2.7526,-2.7407,-2.7376,-2.7526,-2.7509,-2.7452,-2.733,-2.7434,-2.7496,-2.7465,-2.7465,-2.7465,-2.7386,-2.7491,-2.7565,-2.7565,-2.7565,-2.7413,-2.7181,-2.7378,-2.7409,-2.7289,-2.7636,-2.7754,-2.7678,-2.784,-2.7811,-2.7678,-2.7858,-2.7886,-2.7886,-2.7982,-2.811,-2.8183,-2.8063,-2.8063,-2.8119,-2.7979,-2.7804,-2.7585,-2.7147,-2.6287,-2.5392,-2.492,-2.4129,-2.343,-2.343,-2.3424,-2.3383,-2.3383,-2.3241,-2.3126,-2.3217,-2.3289,-2.3336,-2.3336,-2.3412,-2.3504,-2.3504,-2.3394,-2.3277,-2.314,-2.291,-2.2721,-2.2668,-2.2377,-2.2065,-2.1721,-2.1661,-2.154,-2.1371,-2.1419,-2.1419,-2.134,-2.123,-2.1103,-2.0893,-2.0563,-2.0189,-1.9788,-1.9566,-1.9325,-1.9101,-1.9101,-1.9026,-1.886,-1.895,-1.8745,-1.8305,-1.8344,-1.8161,-1.7895,-1.7788,-1.7733,-1.7693,-1.731,-1.7084,-1.6895,-1.6479,-1.6322,-1.6294]},{"header":{"parameterUnit":"m.s-1","parameterCategory":1,"la1":30.6,"la2":28.766,"lo1":-90.7593,"lo2":-88.6598,"dy":0.0162,"dx":0.0183,"nx":116,"ny":114,"refTime":"2024-06-28T12:00:00:Z","depth":0,"parameterNumber":3,"parameterNumberName":"V-component_of_WINDS"},"data":[0.0,0.0,0.0,0.0,0.0,0.0,0.0,0.0,0.0,0.0,0.0,0.0,0.0,0.0,0.0,0.0,0.0,0.0,0.0,0.0,0.0,0.0,0.0,0.0,0.0,0.0,0.0,0.0,0.0,0.0,0.0,0.0,0.0,0.0,0.0,0.0,0.0,0.0,0.0,0.0,0.0,0.0,0.0,0.0,0.0,0.0,0.0,0.0,0.0,0.0,0.0,0.0,0.0,0.0,0.0,0.0,0.0,0.0,0.0,0.0,0.0,0.0,0.0,0.0,0.0,0.0,0.0,0.0,0.0,0.0,0.0,0.0,0.0,0.0,0.0,0.0,0.0,0.0,0.0,0.0,0.0,0.0,0.0,0.0,0.0,0.0,0.0,0.0,0.0,0.0,0.0,0.0,0.0,0.0,0.0,0.0,0.0,0.0,0.0,0.0,0.0,0.0,0.0,0.0,0.0,0.0,0.0,0.0,0.0,0.0,0.0,0.0,0.0,0.0,0.0,0.0,0.0,0.0,0.0,0.0,0.0,0.0,0.0,0.0,0.0,0.0,0.0,0.0,0.0,0.0,0.0,0.0,0.0,0.0,0.0,0.0,0.0,0.0,0.0,0.0,0.0,0.0,0.0,0.0,0.0,0.0,0.0,0.0,0.0,0.0,0.0,0.0,0.0,0.0,0.0,0.0,0.0,0.0,0.0,0.0,0.0,0.0,0.0,0.0,0.0,0.0,0.0,0.0,0.0,0.0,0.0,0.0,0.0,0.0,0.0,0.0,0.0,0.0,0.0,0.0,0.0,0.0,0.0,0.0,0.0,0.0,0.0,0.0,0.0,0.0,0.0,0.0,0.0,0.0,0.0,0.0,0.0,0.0,0.0,0.0,0.0,0.0,0.0,0.0,0.0,0.0,0.0,0.0,0.0,0.0,0.0,0.0,0.0,0.0,0.0,0.0,0.0,0.0,0.0,0.0,0.0,0.0,0.0,0.0,0.0,0.0,0.0,0.0,0.0,0.0,0.0,0.0,0.0,0.0,0.0,0.0,0.0,0.0,0.0,0.0,0.0,0.0,0.0,0.0,0.0,0.0,0.0,0.0,0.0,0.0,0.0,0.0,0.0,0.0,0.0,0.0,0.0,0.0,0.0,0.0,0.0,0.0,0.0,0.0,0.0,0.0,0.0,0.0,0.0,0.0,0.0,0.0,0.0,0.0,0.0,0.0,0.0,0.0,0.0,0.0,0.0,0.0,0.0,0.0,0.0,0.0,0.0,0.0,0.0,0.0,0.0,0.0,0.0,0.0,0.0,0.0,0.0,0.0,0.0,0.0,0.0,0.0,0.0,0.0,0.0,0.0,0.0,0.0,0.0,0.0,0.0,0.0,0.0,0.0,0.0,0.0,0.0,0.0,0.0,0.0,0.0,0.0,0.0,0.0,0.0,0.0,0.0,0.0,0.0,0.0,0.0,0.0,0.0,0.0,0.0,0.0,0.0,0.0,0.0,0.0,0.0,0.0,0.0,0.0,0.0,0.0,0.0,0.0,0.0,0.0,0.0,0.0,0.0,0.0,0.0,0.0,0.0,0.0,0.0,0.0,0.0,0.0,0.0,0.0,0.0,0.0,0.0,0.0,0.0,0.0,0.0,0.0,0.0,0.0,0.0,0.0,0.0,0.0,0.0,0.0,0.0,0.0,0.0,0.0,0.0,0.0,0.0,0.0,0.0,0.0,0.0,0.0,0.0,0.0,0.0,0.0,0.0,0.0,0.0,0.0,0.0,0.0,0.0,0.0,0.0,0.0,0.0,0.0,0.0,0.0,0.0,0.0,0.0,0.0,0.0,0.0,0.0,0.0,0.0,0.0,0.0,0.0,0.0,0.0,0.0,0.0,0.0,0.0,0.0,0.0,0.0,0.0,0.0,0.0,0.0,0.0,0.0,0.0,0.0,0.0,0.0,0.0,0.0,0.0,0.0,0.0,0.0,0.0,0.0,0.0,0.0,0.0,0.0,0.0,0.0,0.0,0.0,0.0,0.0,0.0,0.0,0.0,0.0,0.0,0.0,0.0,0.0,0.0,0.0,0.0,0.0,0.0,0.0,0.0,0.0,0.0,0.0,0.0,0.0,0.0,0.0,0.0,0.0,0.0,0.0,0.0,0.0,0.0,0.0,0.0,0.0,0.0,0.0,0.0,0.0,0.0,0.0,0.0,0.0,0.0,0.0,0.0,0.0,0.0,0.0,0.0,0.0,0.0,0.0,0.0,0.0,0.0,0.0,0.0,0.0,0.0,0.0,0.0,0.0,0.0,0.0,0.0,0.0,0.0,0.0,0.0,0.0,0.0,0.0,0.0,0.0,0.0,0.0,0.0,0.0,0.0,0.0,0.0,0.0,0.0,0.0,0.0,0.0,0.0,0.0,0.0,0.0,0.0,0.0,0.0,0.0,0.0,0.0,0.0,0.0,0.0,0.0,0.0,0.0,0.0,0.0,0.0,0.0,0.0,0.0,0.0,0.0,0.0,0.0,0.0,0.0,0.0,0.0,0.0,0.0,0.0,0.0,0.0,0.0,0.0,0.0,0.0,0.0,0.0,0.0,0.0,0.0,0.0,0.0,0.0,0.0,0.0,0.0,0.0,0.0,0.0,0.0,0.0,0.0,0.0,0.0,0.0,0.0,0.0,0.0,0.0,0.0,0.0,0.0,0.0,0.0,0.0,0.0,0.0,0.0,0.0,0.0,0.0,0.0,0.0,0.0,0.0,0.0,0.0,0.0,0.0,0.0,0.0,0.0,0.0,0.0,0.0,0.0,0.0,0.0,0.0,0.0,0.0,0.0,0.0,0.0,0.0,0.0,0.0,0.0,0.0,0.0,0.0,0.0,0.0,0.0,0.0,0.0,0.0,0.0,0.0,0.0,0.0,0.0,0.0,0.0,0.0,0.0,0.0,0.0,0.0,0.0,0.0,0.0,0.0,0.0,0.0,0.0,0.0,0.0,0.0,0.0,0.0,0.0,0.0,0.0,0.0,0.0,0.0,0.0,0.0,0.0,0.0,0.0,0.0,0.0,0.0,0.0,0.0,0.0,0.0,0.0,0.0,0.0,0.0,0.0,0.0,0.0,0.0,0.0,0.0,0.0,0.0,0.0,0.0,0.0,0.0,0.0,0.0,0.0,0.0,0.0,0.0,0.0,0.0,0.0,0.0,0.0,0.0,0.0,0.0,0.0,0.0,0.0,0.0,0.0,0.0,0.0,0.0,0.0,0.0,0.0,0.0,0.0,0.0,0.0,0.0,0.0,0.0,0.0,0.0,0.0,0.0,0.0,0.0,0.0,0.0,0.0,0.0,0.0,0.0,0.0,0.0,0.0,0.0,0.0,0.0,0.0,0.0,0.0,0.0,0.0,0.0,0.0,0.0,0.0,0.0,0.0,0.0,0.0,0.0,0.0,0.0,0.0,0.0,0.0,0.0,0.0,0.0,0.0,0.0,0.0,0.0,0.0,0.0,0.0,0.0,0.0,0.0,0.0,0.0,0.0,0.0,0.0,0.0,0.0,0.0,0.0,0.0,0.0,0.0,0.0,0.0,0.0,0.0,0.0,0.0,0.0,0.0,0.0,0.0,0.0,0.0,0.0,0.0,0.0,0.0,0.0,0.0,0.0,0.0,0.0,0.0,0.0,0.0,0.0,0.0,0.0,0.0,0.0,0.0,0.0,0.0,0.0,0.0,0.0,0.0,0.0,0.0,0.0,0.0,0.0,0.0,0.0,0.0,0.0,0.0,0.0,0.0,0.0,0.0,0.0,0.0,0.0,0.0,0.0,0.0,0.0,0.0,0.0,0.0,0.0,0.0,0.0,0.0,0.0,0.0,0.0,0.0,0.0,0.0,0.0,0.0,0.0,0.0,0.0,0.0,0.0,0.0,0.0,0.0,0.0,0.0,0.0,0.0,0.0,0.0,0.0,0.0,0.0,0.0,0.0,0.0,0.0,0.0,0.0,0.0,0.0,0.0,0.0,0.0,0.0,0.0,0.0,0.0,0.0,0.0,0.0,0.0,0.0,0.0,0.0,0.0,0.0,0.0,0.0,0.0,0.0,0.0,0.0,0.0,0.0,0.0,0.0,0.0,0.0,0.0,0.0,0.0,0.0,0.0,0.0,0.0,0.0,0.0,0.0,0.0,0.0,0.0,0.0,0.0,0.0,0.0,0.0,0.0,0.0,0.0,0.0,0.0,0.0,0.0,0.0,0.0,0.0,0.0,0.0,0.0,0.0,0.0,0.0,0.0,0.0,0.0,0.0,0.0,0.0,0.0,0.0,0.0,0.0,0.0,0.0,0.0,0.0,0.0,0.0,0.0,0.0,0.0,0.0,0.0,0.0,0.0,0.0,0.0,0.0,0.0,0.0,0.0,0.0,0.0,0.0,0.0,0.0,0.0,0.0,0.0,0.0,0.0,0.0,0.0,0.0,0.0,0.0,0.0,0.0,0.0,0.0,0.0,0.0,0.0,0.0,0.0,0.0,0.0,0.0,0.0,0.0,0.0,0.0,0.0,0.0,0.0,0.0,0.0,0.0,0.0,0.0,0.0,0.0,0.0,0.0,0.0,0.0,0.0,0.0,0.0,0.0,0.0,0.0,0.0,0.0,0.0,0.0,0.0,0.0,0.0,0.0,0.0,0.0,0.0,0.0,0.0,0.0,0.0,0.0,0.0,0.0,0.0,0.0,0.0,0.0,0.0,0.0,0.0,0.0,0.0,0.0,0.0,0.0,0.0,0.0,0.0,0.0,0.0,0.0,0.0,0.0,0.0,0.0,0.0,0.0,0.0,0.0,0.0,0.0,0.0,0.0,0.0,0.0,0.0,0.0,0.0,0.0,0.0,0.0,0.0,0.0,0.0,0.0,0.0,0.0,0.0,0.0,0.0,0.0,0.0,0.0,0.0,0.0,0.0,0.0,0.0,0.0,0.0,0.0,0.0,0.0,0.0,0.0,0.0,0.0,0.0,0.0,0.0,0.0,0.0,0.0,0.0,0.0,0.0,0.0,0.0,0.0,0.0,0.0,0.0,0.0,0.0,0.0,0.0,0.0,0.0,0.0,0.0,0.0,0.0,0.0,0.0,0.0,0.0,0.0,0.0,0.0,0.0,0.0,0.0,0.0,0.0,0.0,0.0,0.0,0.0,0.0,0.0,0.0,0.0,0.0,0.0,0.0,0.0,0.0,0.0,0.0,0.0,0.0,0.0,0.0,0.0,0.0,0.0,0.0,0.0,0.0,0.0,0.0,0.0,0.0,0.0,0.0,0.0,0.0,0.0,0.0,0.0,0.0,0.0,0.0,0.0,0.0,0.0,0.0,0.0,0.0,0.0,0.0,0.0,0.0,0.0,0.0,0.0,0.0,0.0,0.0,0.0,0.0,0.0,0.0,0.0,0.0,0.0,0.0,0.0,0.0,0.0,0.0,0.0,0.0,0.0,0.0,0.0,0.0,0.0,0.0,0.0,0.0,0.0,0.0,0.0,0.0,0.0,0.0,0.0,0.0,0.0,0.0,0.0,0.0,0.0,0.0,0.0,0.0,0.0,0.0,0.0,0.0,0.0,0.0,0.0,0.0,0.0,0.0,0.0,0.0,0.0,0.0,0.0,0.0,0.0,0.0,0.0,0.0,0.0,0.0,0.0,0.0,0.0,0.0,0.0,0.0,0.0,0.0,0.0,0.0,0.0,0.0,0.0,0.0,0.0,0.0,0.0,0.0,0.0,0.0,0.0,0.0,0.0,0.0,0.0,0.0,0.0,0.0,0.0,0.0,0.0,0.0,0.0,0.0,0.0,0.0,0.0,0.0,0.0,0.0,0.0,0.0,0.0,0.0,0.0,0.0,0.0,0.0,0.0,0.0,0.0,0.0,0.0,0.0,0.0,0.0,0.0,0.0,0.0,0.0,0.0,0.0,0.0,0.0,0.0,0.0,0.0,0.0,0.0,0.0,0.0,0.0,0.0,0.0,0.0,0.0,0.0,0.0,0.0,0.0,0.0,0.0,0.0,0.0,0.0,0.0,0.0,0.0,0.0,0.0,0.0,0.0,0.0,0.0,0.0,0.0,0.0,0.0,0.0,0.0,0.0,-1.8207,0.0,0.0,0.0,0.0,0.0,0.0,0.0,0.0,0.0,0.0,0.0,0.0,0.0,0.0,0.0,0.0,0.0,0.0,0.0,0.0,0.0,0.0,0.0,0.0,-1.0464,-1.056,-1.0121,-1.0478,-1.0554,-1.0135,0.0,0.0,0.0,0.0,0.0,-1.0148,-1.0174,-1.039,-1.0773,-1.0787,-1.1428,-1.2657,-1.2535,-1.1839,-1.0635,0.0,0.0,0.0,0.0,0.0,0.0,0.0,0.0,0.0,0.0,0.0,0.0,0.0,0.0,0.0,0.0,0.0,0.0,0.0,0.0,0.0,0.0,0.0,0.0,0.0,0.0,0.0,0.0,0.0,0.0,0.0,0.0,0.0,0.0,0.0,0.0,0.0,0.0,0.0,0.0,0.0,0.0,0.0,0.0,0.0,0.0,0.0,0.0,0.0,0.0,0.0,0.0,0.0,0.0,0.0,0.0,0.0,0.0,0.0,0.0,0.0,0.0,0.0,0.0,0.0,0.0,0.0,0.0,0.0,0.0,0.0,-1.8785,0.0,0.0,0.0,0.0,0.0,0.0,0.0,0.0,0.0,0.0,0.0,0.0,0.0,0.0,0.0,0.0,0.0,0.0,0.0,0.0,0.0,-1.0177,-1.0392,-1.102,-1.1205,-1.0695,-1.112,-1.1108,-1.039,0.0,0.0,0.0,0.0,-1.0193,-1.0193,-1.0351,-1.0759,-1.1413,-1.1851,-1.2812,-1.4259,-1.5261,0.0,0.0,-1.1959,0.0,0.0,0.0,0.0,0.0,0.0,0.0,0.0,0.0,0.0,0.0,0.0,0.0,0.0,0.0,0.0,0.0,0.0,0.0,0.0,0.0,0.0,0.0,0.0,0.0,0.0,0.0,0.0,0.0,0.0,0.0,0.0,0.0,0.0,0.0,0.0,0.0,0.0,0.0,0.0,0.0,0.0,0.0,0.0,0.0,0.0,0.0,0.0,0.0,0.0,0.0,0.0,0.0,0.0,0.0,0.0,0.0,0.0,0.0,0.0,0.0,0.0,0.0,-2.3271,-2.363,-2.3573,-2.4842,-2.5099,-2.4362,-2.1756,-2.1078,-2.1687,0.0,0.0,0.0,0.0,0.0,0.0,0.0,0.0,0.0,0.0,0.0,0.0,0.0,0.0,0.0,0.0,0.0,0.0,0.0,0.0,-1.04,-1.123,-1.1422,-1.1754,-1.2402,-1.1854,-1.1442,-1.1327,0.0,0.0,0.0,-1.0206,-1.0194,-1.0204,-1.0937,-1.1389,-1.1496,-1.3691,-1.4899,-1.5151,0.0,0.0,0.0,-1.4307,-1.4004,0.0,0.0,0.0,0.0,0.0,0.0,0.0,0.0,0.0,0.0,0.0,0.0,0.0,0.0,0.0,0.0,0.0,0.0,0.0,0.0,0.0,0.0,0.0,0.0,0.0,0.0,0.0,0.0,0.0,0.0,0.0,0.0,0.0,0.0,0.0,0.0,0.0,0.0,0.0,0.0,0.0,0.0,-1.4722,-1.5806,0.0,0.0,0.0,0.0,0.0,0.0,0.0,0.0,0.0,0.0,0.0,0.0,0.0,0.0,-2.4127,-2.6182,-2.6967,-2.6557,-2.7856,-2.8183,-2.7629,-2.7818,-2.7853,-2.7715,-2.6695,0.0,-2.3249,-2.2529,0.0,0.0,0.0,0.0,0.0,0.0,0.0,0.0,0.0,0.0,0.0,0.0,0.0,0.0,0.0,0.0,0.0,0.0,0.0,0.0,0.0,-1.2377,-1.3102,-1.3504,-1.4033,-1.376,0.0,0.0,0.0,-1.0247,-1.0125,-1.0334,-1.0862,-1.1731,-1.2882,-1.4359,-1.6472,-1.7496,0.0,0.0,0.0,0.0,0.0,0.0,0.0,0.0,0.0,0.0,0.0,0.0,0.0,0.0,0.0,0.0,0.0,0.0,0.0,0.0,0.0,0.0,0.0,0.0,0.0,0.0,0.0,0.0,0.0,0.0,0.0,0.0,0.0,0.0,0.0,0.0,0.0,0.0,0.0,0.0,0.0,0.0,0.0,0.0,0.0,0.0,0.0,-1.4229,-1.676,-1.7559,-1.7948,-1.7894,0.0,0.0,0.0,0.0,0.0,0.0,0.0,0.0,0.0,-2.2961,-2.5124,-2.6464,-2.6854,-2.8216,-2.8767,-2.8541,-2.9111,-2.9265,-2.899,-2.9369,-2.9317,-2.8853,-2.9042,-2.8168,-2.6584,-2.521,-2.3371,-2.1516,0.0,0.0,0.0,0.0,0.0,-2.2781,0.0,0.0,0.0,0.0,0.0,0.0,0.0,0.0,0.0,0.0,0.0,0.0,-1.2029,-1.3498,-1.458,-1.5,0.0,0.0,0.0,0.0,0.0,-1.056,-1.0357,-1.0594,-1.1325,-1.2863,-1.4811,0.0,0.0,0.0,0.0,0.0,0.0,0.0,0.0,0.0,0.0,0.0,0.0,0.0,0.0,0.0,0.0,0.0,0.0,0.0,0.0,0.0,0.0,0.0,0.0,0.0,0.0,0.0,0.0,0.0,0.0,0.0,0.0,0.0,0.0,0.0,0.0,0.0,0.0,0.0,0.0,0.0,0.0,0.0,0.0,0.0,0.0,0.0,0.0,0.0,0.0,-1.6044,-1.8317,-1.9263,-1.9769,-1.9896,0.0,0.0,0.0,0.0,0.0,0.0,-2.1438,-2.3939,-2.5504,-2.5768,-2.7896,-2.9144,-2.9368,-3.0229,-3.059,-3.0465,-3.0409,-3.039,-3.0407,-3.097,-3.0837,-3.0172,-3.0827,-3.048,-2.9346,-2.7429,-2.5527,-2.3967,-2.443,-2.3853,-2.2886,-2.4185,-2.507,-2.5658,0.0,0.0,0.0,0.0,0.0,0.0,0.0,0.0,0.0,0.0,0.0,-1.2058,0.0,0.0,0.0,0.0,0.0,0.0,0.0,0.0,0.0,-1.1346,-1.1093,-1.1034,-1.1211,-1.4507,0.0,0.0,0.0,0.0,0.0,0.0,0.0,0.0,0.0,0.0,0.0,0.0,0.0,0.0,0.0,0.0,0.0,0.0,0.0,0.0,0.0,0.0,0.0,0.0,0.0,0.0,0.0,0.0,0.0,0.0,0.0,0.0,0.0,0.0,0.0,0.0,0.0,0.0,0.0,0.0,0.0,0.0,0.0,0.0,0.0,0.0,0.0,0.0,0.0,0.0,0.0,0.0,0.0,-2.1079,-2.1401,0.0,0.0,0.0,0.0,-1.9264,-2.1867,-2.367,-2.3986,-2.5547,-2.6883,-2.7927,-2.9928,-3.1292,-3.2019,-3.3259,-3.3619,-3.3119,-3.3119,-3.3102,-3.3119,-3.3152,-3.2985,-3.2731,-3.2766,-3.1972,-3.0471,-2.8716,-2.7879,-2.7675,-2.7142,-2.68,-2.6666,-2.713,-2.7982,-2.8805,0.0,0.0,0.0,-0.9995,-1.002,-1.0044,-1.0091,-1.0097,-1.0102,-1.0094,-1.0872,0.0,0.0,0.0,0.0,0.0,0.0,0.0,0.0,0.0,0.0,-1.2871,-1.2177,-1.3092,-1.5903,-1.7729,-1.9563,0.0,0.0,0.0,0.0,0.0,0.0,0.0,0.0,0.0,0.0,0.0,0.0,0.0,0.0,0.0,0.0,0.0,0.0,0.0,0.0,0.0,0.0,0.0,0.0,0.0,0.0,0.0,0.0,0.0,0.0,0.0,0.0,0.0,0.0,0.0,0.0,0.0,0.0,0.0,0.0,0.0,0.0,0.0,0.0,0.0,0.0,0.0,0.0,0.0,0.0,0.0,0.0,-2.2005,-2.2632,0.0,0.0,-2.3608,-2.3774,-2.3161,-2.4561,-2.561,-2.6057,-2.8163,-2.953,-3.004,-3.1645,-3.2819,-3.3408,-3.3203,-3.3152,-3.3296,-3.2911,-3.2735,-3.2735,-3.263,-3.2673,-3.2824,-3.2891,-3.2727,-3.2389,-3.1939,-3.0557,-2.8766,-2.8682,-2.8528,-2.8391,-2.8678,-2.9257,-2.9911,-0.9875,-0.9857,0.0,-0.9927,-0.9944,-0.9984,-1.002,-1.0054,-1.0176,-1.047,-1.1512,0.0,0.0,0.0,0.0,0.0,0.0,0.0,0.0,0.0,-1.3597,-1.3664,-1.327,-1.4885,-1.8843,-1.9847,0.0,0.0,0.0,0.0,0.0,0.0,0.0,0.0,0.0,0.0,0.0,0.0,0.0,0.0,0.0,0.0,-1.4396,0.0,0.0,0.0,0.0,0.0,0.0,0.0,0.0,0.0,0.0,0.0,0.0,0.0,0.0,0.0,0.0,0.0,0.0,0.0,0.0,0.0,0.0,0.0,0.0,0.0,0.0,0.0,0.0,0.0,0.0,0.0,0.0,0.0,0.0,0.0,-2.14,-2.2743,-2.3617,-2.4337,-2.4876,-2.553,-2.5913,-2.5913,-2.6594,-2.7175,-2.7541,-2.9435,-3.0875,-3.1686,-3.2679,-3.3483,-3.4074,-3.3539,-3.3342,-3.3433,-3.3036,-3.2865,-3.2802,-3.2707,-3.2859,-3.3251,-3.3278,-3.3405,-3.3573,-3.3755,-3.2655,-3.0788,-3.0657,-3.0364,-2.998,-3.0159,-3.0608,-3.1217,-0.9801,-0.9801,-0.9796,-0.9793,-0.9857,-0.9888,-0.9906,-0.9959,-1.0302,-1.1188,0.0,0.0,0.0,0.0,0.0,0.0,0.0,0.0,0.0,-1.4907,-1.341,-1.3664,-1.442,-1.6366,-1.9604,0.0,0.0,0.0,0.0,0.0,0.0,0.0,0.0,0.0,0.0,0.0,0.0,0.0,0.0,0.0,0.0,0.0,-1.7747,0.0,0.0,0.0,0.0,0.0,0.0,0.0,0.0,0.0,0.0,0.0,0.0,0.0,0.0,0.0,0.0,0.0,0.0,0.0,0.0,0.0,0.0,0.0,0.0,0.0,0.0,0.0,0.0,0.0,0.0,0.0,0.0,0.0,-2.0319,-2.1383,-2.2498,-2.3437,-2.4374,-2.4921,-2.4865,-2.6286,-2.718,-2.718,-2.7877,-2.8347,-2.857,-2.9367,-3.0794,-3.2838,-3.3014,-3.3405,-3.4084,-3.4545,-3.4431,-3.3834,-3.3783,-3.3716,-3.3582,-3.3598,-3.3762,-3.4136,-3.4136,-3.4057,-3.3968,-3.3968,-3.3951,-3.3865,-3.3127,-3.2312,-3.1585,-3.1627,-3.2126,-3.287,-0.9665,-0.9661,-0.9655,-0.9662,-0.9705,-0.9759,-0.9823,-0.9837,-1.0182,0.0,0.0,0.0,0.0,0.0,0.0,0.0,0.0,0.0,0.0,0.0,-1.3978,-1.5142,-1.7162,0.0,0.0,0.0,0.0,0.0,0.0,0.0,0.0,0.0,0.0,0.0,0.0,0.0,0.0,0.0,0.0,0.0,0.0,0.0,-1.8508,0.0,0.0,0.0,0.0,0.0,0.0,0.0,0.0,0.0,0.0,0.0,0.0,0.0,0.0,0.0,0.0,0.0,0.0,0.0,0.0,0.0,0.0,0.0,0.0,0.0,0.0,0.0,0.0,0.0,0.0,0.0,0.0,-2.1016,-2.1215,-2.2373,-2.3539,-2.4495,-2.5236,-2.5931,-2.6491,-2.8005,-2.8978,-2.8978,-2.9502,-3.0053,-3.0449,-3.2079,-3.3014,-3.295,-3.3501,-3.4072,-3.4593,-3.4018,-3.3832,-3.4034,-3.3626,-3.3435,-3.3366,-3.3277,-3.3703,-3.4471,-3.4454,-3.4818,-3.5446,-3.5555,-3.5246,-3.4572,-3.3859,-3.3374,-3.3106,-3.3146,-3.3599,-3.4285,-0.9609,-0.9607,-0.9594,-0.9591,-0.964,-0.9688,-0.9743,-0.975,-1.0229,-1.1529,0.0,0.0,0.0,0.0,0.0,0.0,0.0,0.0,-1.6564,-1.5129,-1.5123,0.0,0.0,0.0,0.0,0.0,0.0,0.0,0.0,0.0,0.0,0.0,0.0,0.0,0.0,0.0,0.0,0.0,0.0,0.0,0.0,0.0,-2.0873,-1.8834,-1.7771,-1.7161,-1.5687,-1.5427,-1.5666,-1.4806,0.0,0.0,0.0,0.0,0.0,0.0,0.0,0.0,0.0,0.0,0.0,0.0,0.0,0.0,0.0,0.0,0.0,0.0,0.0,0.0,0.0,0.0,0.0,0.0,-2.0791,-2.2134,-2.2662,-2.3423,-2.4294,-2.5227,-2.6005,-2.6863,-2.7908,-2.9155,-3.0046,-3.0288,-3.0639,-3.1187,-3.2045,-3.3217,-3.3998,-3.4282,-3.4535,-3.4716,-3.4823,-3.4415,-3.4074,-3.3916,-3.3719,-3.3471,-3.3096,-3.3058,-3.3435,0.0,-3.4235,-3.4816,-3.5739,-3.5854,-3.5745,0.0,0.0,0.0,0.0,0.0,-3.4526,-3.4959,-0.9559,-0.9585,-0.9575,-0.9578,-0.9568,-0.9609,-0.9673,-0.9681,-1.0291,-1.2015,0.0,0.0,0.0,0.0,0.0,0.0,0.0,0.0,0.0,0.0,0.0,0.0,0.0,0.0,0.0,0.0,0.0,0.0,0.0,0.0,0.0,0.0,0.0,0.0,0.0,0.0,0.0,0.0,0.0,0.0,0.0,0.0,-2.3696,-2.1251,-2.0335,-2.0029,-1.7703,-1.6909,-1.6794,-1.5909,0.0,0.0,0.0,0.0,0.0,0.0,0.0,0.0,0.0,0.0,0.0,0.0,0.0,0.0,0.0,0.0,0.0,0.0,0.0,0.0,0.0,0.0,0.0,0.0,-2.1816,-2.3303,-2.4346,-2.4571,-2.4952,-2.5821,-2.6666,-2.7671,-2.9011,-2.9832,-3.0591,-3.1286,-3.1426,-3.2057,-3.3356,0.0,0.0,0.0,0.0,-3.5153,-3.4852,-3.5153,-3.4726,-3.3707,-3.3989,-3.3787,-3.3131,-3.3131,-3.3423,-3.3986,-3.4021,-3.4611,-3.5542,-3.5588,-3.5895,-3.619,-3.5435,-3.4641,-3.4042,-3.4769,-3.5083,-3.5261,-0.9421,-0.9439,-0.9439,-0.943,-0.943,-0.9456,-0.9535,-0.9534,-0.995,-1.1128,-1.1972,0.0,0.0,0.0,0.0,0.0,0.0,0.0,0.0,0.0,0.0,0.0,0.0,0.0,0.0,0.0,0.0,0.0,0.0,0.0,0.0,0.0,0.0,0.0,0.0,0.0,0.0,0.0,0.0,0.0,0.0,0.0,-2.3479,-2.1748,-2.111,-2.0933,-1.9179,-1.8981,-1.9417,-1.8489,-1.7745,-1.7174,-1.701,0.0,0.0,0.0,0.0,0.0,0.0,0.0,0.0,0.0,0.0,0.0,0.0,0.0,0.0,0.0,0.0,0.0,0.0,0.0,0.0,-2.2529,-2.3402,-2.4237,-2.5572,-2.5957,-2.6233,-2.6569,-2.7183,-2.8025,-2.9134,-3.0323,-3.1351,-3.2215,-3.2929,-3.356,-3.4222,-3.4223,0.0,-3.5102,-3.4767,-3.4577,-3.4519,-3.4577,-3.4457,-3.426,0.0,0.0,-3.4519,-3.4519,-3.4936,-3.5663,-3.6168,-3.6339,-3.6422,-3.6881,-3.6758,-3.6191,-3.6053,-3.5814,-3.5591,-3.5845,-3.6099,-3.6274,-0.9157,-0.9282,-0.9393,-0.9393,-0.9412,-0.9412,-0.9439,-0.9474,-0.984,-1.0782,-1.128,0.0,0.0,0.0,0.0,0.0,0.0,0.0,0.0,0.0,0.0,0.0,0.0,0.0,0.0,0.0,0.0,0.0,0.0,0.0,0.0,0.0,0.0,0.0,0.0,0.0,0.0,0.0,0.0,0.0,0.0,0.0,-2.394,-2.2431,-2.1855,-2.164,-2.015,-1.9876,-2.0184,-1.9709,-1.9252,-1.8814,-1.8389,-1.7337,-1.5995,0.0,0.0,0.0,0.0,0.0,0.0,0.0,0.0,0.0,0.0,0.0,0.0,0.0,0.0,-1.8367,0.0,0.0,-2.2069,-2.3385,-2.4267,-2.5138,-2.6226,-2.6471,-2.6704,-2.7098,-2.772,-2.8544,-2.9765,-3.0814,-3.1847,-3.3002,-3.356,-3.4248,-3.5147,-3.5179,-3.5419,-3.5939,-3.5792,-3.5612,-3.5476,-3.5536,-3.5306,-3.4804,-3.4893,-3.4827,-3.462,-3.462,-3.4951,-3.5538,-3.5796,-3.6261,-3.6863,-3.7302,-3.7025,-3.6233,-3.6233,-3.6191,-3.6122,-3.6318,-3.6509,-3.6764,-0.888,-0.9106,-0.9327,-0.9364,-0.9383,-0.9402,-0.9403,-0.9448,-0.9734,-1.0457,-1.0737,-1.1146,-1.1917,-1.192,-1.1929,0.0,0.0,0.0,0.0,0.0,0.0,0.0,0.0,0.0,0.0,0.0,0.0,0.0,0.0,0.0,0.0,0.0,0.0,0.0,0.0,0.0,0.0,0.0,0.0,0.0,0.0,0.0,-2.4428,-2.2954,-2.2363,-2.2136,-2.07,-2.0067,-1.9925,-1.9916,-1.9755,-1.945,-1.8754,-1.8402,-1.7852,-1.5697,-1.4887,0.0,0.0,0.0,0.0,0.0,0.0,0.0,0.0,0.0,-1.7513,-1.8678,-1.9303,-1.9982,-2.1274,-2.2649,-2.3684,-2.3954,-2.5001,-2.6033,-2.6741,-2.6831,-2.7025,-2.7503,-2.815,-2.9092,-3.0361,-3.117,-3.2199,-3.369,-3.3923,-3.4587,-3.5861,-3.5929,-3.6211,-3.6862,-3.6816,-3.6693,-3.6429,-3.6461,-3.6075,-3.5308,-3.5401,-3.5171,-3.4726,-3.4726,-3.4904,-3.5225,-3.5117,-3.5835,-3.7136,-3.7132,-3.6784,-3.6301,-3.6301,-3.6276,-3.6251,-3.6468,-3.6615,-3.6816,-0.8738,-0.8885,-0.9075,-0.9212,-0.9318,-0.9392,-0.9402,-0.9412,-0.9457,-0.9617,-1.0268,-1.0765,-1.0876,-1.1386,-1.1937,-1.249,0.0,0.0,0.0,0.0,0.0,0.0,0.0,0.0,0.0,0.0,0.0,0.0,0.0,0.0,0.0,0.0,0.0,0.0,0.0,0.0,0.0,0.0,0.0,0.0,0.0,0.0,-2.4348,-2.2863,-2.2344,-2.2198,-2.066,-1.9612,-1.8954,-1.8887,-1.8364,-1.7679,-1.7585,-1.7027,-1.6347,-1.6035,0.0,-1.4595,-1.413,-1.4825,0.0,-1.8076,-1.8244,-1.835,0.0,0.0,-1.9483,-2.0214,-2.0744,-2.1304,-2.2066,-2.2946,-2.3984,-2.5196,-2.6004,-2.6756,-2.753,-2.7685,-2.767,-2.7784,-2.8475,-2.9429,-3.0627,-3.1275,-3.2306,-3.3912,-3.4213,-3.4864,-3.6052,-3.6014,-3.615,-3.6554,-3.6304,-3.61,-3.6037,-3.5894,-3.5785,-3.5646,-3.5563,-3.5597,-3.5824,-3.5824,-3.5997,-3.6307,-3.5764,-3.6336,-3.7624,-3.6344,-3.6027,-3.6301,-3.6301,-3.6301,-3.6301,-3.6343,-3.6343,-3.6451,-0.8563,-0.8778,-0.8996,-0.8979,-0.9174,-0.9346,-0.9346,-0.9385,-0.9403,-0.9448,-0.9735,-0.9942,-0.995,-1.0447,-1.1051,-1.1727,-1.3885,0.0,0.0,0.0,0.0,0.0,0.0,0.0,0.0,0.0,0.0,0.0,0.0,0.0,0.0,0.0,0.0,0.0,0.0,0.0,0.0,0.0,0.0,0.0,0.0,0.0,-2.4226,-2.2795,-2.2257,-2.2085,-2.0576,-1.9477,0.0,0.0,-1.8125,-1.7385,-1.7346,-1.7089,-1.6701,-1.6151,-1.6016,0.0,-1.6816,0.0,0.0,0.0,-2.0129,-2.0132,-2.0942,-2.0311,-1.9827,-2.0828,-2.0991,-2.128,-2.2454,-2.3703,-2.4834,0.0,-2.6482,-2.731,-2.7645,-2.774,-2.779,-2.779,-2.8792,-2.9637,-3.0158,-3.1205,-3.2456,-3.4037,-3.4334,-3.504,-3.6304,-3.6322,-3.6367,-3.6492,-3.6352,-3.6289,-3.6289,-3.6037,-3.5894,-3.5894,-3.5619,-3.5619,-3.5831,-3.5831,-3.6085,-3.6631,-3.6943,-3.715,-3.7269,-3.7003,-3.6655,-3.6301,-3.6301,-3.6301,-3.6301,-3.6301,-3.6301,-3.6409,-0.8441,-0.8665,-0.8863,-0.8784,-0.9022,-0.9231,-0.9271,-0.9311,-0.9339,-0.9345,-0.9338,-0.9409,-0.9587,-0.9893,-1.0489,-1.1479,-1.3541,-1.5203,0.0,0.0,0.0,0.0,0.0,0.0,0.0,0.0,0.0,0.0,0.0,0.0,0.0,0.0,0.0,0.0,0.0,0.0,0.0,0.0,0.0,0.0,0.0,0.0,-2.3876,-2.2656,-2.1906,-2.1352,-2.0085,-1.9075,0.0,0.0,-1.7374,-1.6578,-1.6565,-1.6541,-1.6411,-1.5959,-1.6478,-1.7442,-1.8639,0.0,0.0,-2.1152,-2.1513,-2.1479,-2.1309,-2.0603,-2.0213,-2.0937,-2.1073,-2.1384,-2.2468,-2.408,0.0,-2.5568,-2.6871,-2.7784,-2.7655,-2.7891,-2.7986,-2.7755,-2.8929,-2.9795,-2.9872,-3.1152,-3.2581,-3.3885,-3.4294,-3.4983,-3.6153,-3.6384,-3.6492,-3.6492,-3.6492,-3.6492,-3.6492,-3.6163,-3.5973,-3.5973,-3.5683,-3.5554,-3.5638,-3.5638,-3.6022,-3.6646,-3.7137,-3.7141,-3.6783,-3.7102,-3.6847,-3.6174,-3.6259,-3.6301,-3.6301,-3.6301,-3.6301,-3.6409,-0.8409,-0.8512,-0.862,-0.8696,-0.8875,-0.9056,-0.9191,-0.9212,-0.9201,-0.9206,-0.9206,-0.9424,-1.0017,-1.0079,-1.0736,-1.2319,-1.3365,-1.4604,-1.6194,-1.7329,0.0,0.0,0.0,0.0,0.0,0.0,0.0,0.0,0.0,0.0,0.0,0.0,0.0,0.0,0.0,0.0,0.0,0.0,0.0,0.0,0.0,0.0,-2.3163,-2.2447,-2.1194,-1.967,-1.8985,0.0,0.0,0.0,-1.5471,-1.4596,-1.4663,-1.4577,0.0,-1.5384,-1.6588,0.0,0.0,0.0,-2.0893,-2.1527,-2.1892,-2.1924,-2.1339,-2.1216,-2.1063,-2.0457,-2.1252,-2.206,-2.2004,-2.3833,-2.5393,-2.5568,-2.7275,-2.8338,-2.7715,-2.8282,-2.8447,-2.77,-2.8877,-2.9848,0.0,-3.1192,-3.2383,-3.3326,-3.4075,-3.4783,-3.5476,-3.6138,-3.6492,-3.6492,-3.6492,-3.6492,-3.6492,-3.6163,-3.5973,-3.5973,-3.5683,-3.5504,-3.5504,-3.5504,-3.5876,-3.6461,-3.5753,-3.5776,-3.632,-3.6042,-3.5894,-3.5871,-3.6174,-3.6301,-3.6301,-3.6301,-3.6301,-3.6385,-0.8431,-0.8495,-0.8583,-0.8575,-0.8778,-0.893,-0.888,-0.906,-0.9386,-0.9939,-1.0418,0.0,0.0,0.0,0.0,0.0,-1.3698,-1.4748,-1.5324,-1.6926,0.0,0.0,0.0,0.0,0.0,0.0,0.0,0.0,0.0,0.0,0.0,0.0,0.0,0.0,0.0,0.0,0.0,0.0,0.0,0.0,0.0,0.0,-2.3041,-2.2194,-2.0971,-1.957,0.0,0.0,0.0,0.0,0.0,0.0,-1.453,0.0,0.0,-1.5941,0.0,0.0,0.0,0.0,-2.1766,-2.2511,-2.2627,-2.2358,-2.153,-2.1318,-2.1115,-2.0442,-2.0458,-2.0835,-2.1614,-2.2532,-2.3583,-2.4626,-2.6272,-2.7483,-2.7741,-2.8839,-2.9478,-2.9236,-3.0114,0.0,0.0,0.0,0.0,-3.3295,-3.3928,-3.4634,-3.5445,-3.6122,-3.6492,-3.6492,-3.6492,-3.6492,-3.6492,-3.6289,-3.6085,-3.5973,-3.5782,-3.5638,-3.5653,-3.5797,-3.5973,-3.6321,-3.6276,-3.6366,-3.6548,-3.658,-3.6452,-3.631,-3.632,-3.6301,-3.6301,-3.6301,-3.6301,-3.6385,-0.8504,-0.8715,-0.8851,-0.8608,-0.8935,0.0,0.0,0.0,0.0,0.0,0.0,0.0,0.0,0.0,0.0,0.0,0.0,-1.4579,-1.4908,0.0,0.0,0.0,0.0,0.0,0.0,0.0,0.0,0.0,0.0,0.0,0.0,0.0,0.0,0.0,0.0,0.0,0.0,0.0,0.0,0.0,0.0,0.0,-2.2021,-2.1161,-1.9933,0.0,0.0,0.0,0.0,0.0,0.0,0.0,0.0,0.0,0.0,0.0,0.0,-1.9794,0.0,-2.2016,-2.2309,-2.3018,-2.3195,-2.2869,-2.1685,-2.1502,-2.1326,-2.0221,-2.0002,-2.0226,-2.0826,-2.1538,-2.2459,-2.3835,-2.5582,-2.6939,-2.7509,-2.8822,-2.964,-2.9362,-3.0201,0.0,0.0,0.0,0.0,-3.3326,-3.4217,-3.4879,-3.546,-3.6122,-3.6492,-3.6492,-3.6492,-3.6492,-3.6492,-3.6274,-3.6148,-3.5973,-3.5894,-3.5831,-3.5831,-3.5894,-3.6022,-3.6211,-3.6399,-3.6487,-3.6524,-3.6662,-3.6589,-3.6447,-3.6406,-3.6343,-3.6402,-3.6444,-3.6402,-3.6385,-0.8673,-0.9124,-0.9354,0.0,0.0,0.0,0.0,0.0,0.0,0.0,0.0,0.0,0.0,0.0,0.0,0.0,0.0,0.0,0.0,0.0,0.0,0.0,0.0,0.0,-1.7306,-1.8079,0.0,0.0,0.0,0.0,0.0,0.0,0.0,0.0,0.0,0.0,0.0,0.0,0.0,0.0,0.0,0.0,-2.0243,-1.9575,0.0,0.0,0.0,0.0,0.0,0.0,0.0,0.0,0.0,0.0,0.0,0.0,0.0,-2.0643,-2.218,-2.253,-2.2593,-2.31,-2.3562,-2.3453,-2.1837,-2.1827,-2.1671,-1.9809,-1.987,-2.0143,0.0,0.0,-2.1953,-2.3188,-2.5148,-2.6623,-2.6989,-2.8383,-2.91,0.0,0.0,0.0,0.0,0.0,0.0,-3.338,0.0,-3.5476,-3.5476,-3.6122,-3.6492,-3.6492,-3.6492,-3.6492,-3.6492,-3.6274,-3.6148,-3.6037,-3.5973,-3.5973,-3.5973,-3.5831,-3.5879,-3.6196,-3.61,-3.6076,-3.6079,-3.6309,-3.6305,-3.6195,-3.6406,-3.6502,-3.6544,-3.6643,-3.6602,-3.6502,0.0,0.0,0.0,0.0,0.0,0.0,0.0,0.0,0.0,0.0,0.0,0.0,0.0,0.0,0.0,0.0,0.0,0.0,0.0,0.0,0.0,0.0,0.0,0.0,0.0,0.0,0.0,0.0,0.0,0.0,0.0,0.0,0.0,0.0,0.0,0.0,0.0,0.0,0.0,0.0,0.0,0.0,-2.0263,0.0,0.0,0.0,0.0,0.0,0.0,0.0,0.0,0.0,0.0,0.0,-1.9769,0.0,0.0,-2.2188,-2.2445,-2.2947,-2.3368,-2.3359,-2.3605,-2.3481,-2.2276,-2.2172,-2.1855,-2.0122,-1.9743,-1.9578,-1.9127,0.0,0.0,-2.1834,-2.3891,0.0,-2.7067,-2.8848,0.0,0.0,0.0,-3.1238,-3.1588,-3.2608,0.0,0.0,-3.4544,-3.5339,-3.5476,-3.6122,-3.6492,-3.6492,-3.6492,-3.6492,-3.6492,-3.6274,-3.6211,-3.6148,-3.6037,-3.5973,-3.5973,-3.5973,-3.5973,-3.6037,-3.6289,-3.6214,-3.5978,-3.6123,-3.6186,-3.6195,-3.611,-3.6301,-3.6643,-3.6702,-3.6702,-3.6643,0.0,0.0,0.0,0.0,0.0,0.0,0.0,0.0,0.0,0.0,0.0,0.0,0.0,0.0,0.0,0.0,0.0,0.0,0.0,0.0,0.0,0.0,0.0,0.0,0.0,0.0,0.0,0.0,0.0,0.0,0.0,0.0,0.0,0.0,0.0,0.0,0.0,0.0,0.0,0.0,0.0,0.0,0.0,0.0,0.0,0.0,0.0,0.0,0.0,0.0,0.0,-1.8863,-1.9579,-2.0317,-2.0987,-2.1298,0.0,-2.275,-2.2923,-2.3249,-2.3463,-2.3383,-2.3528,-2.3414,-2.2259,-2.2219,-2.1888,-2.0071,-1.966,0.0,0.0,0.0,0.0,0.0,0.0,0.0,-2.6394,-2.8079,-2.9504,0.0,-3.0726,0.0,-3.1713,-3.2695,-3.3239,0.0,-3.451,-3.5319,-3.5444,-3.6152,-3.6492,-3.6492,-3.6492,-3.6492,-3.6492,-3.6414,-3.6352,-3.6352,-3.6226,-3.6241,-3.6241,-3.6163,-3.6085,-3.607,0.0,-3.5814,-3.5742,-3.5545,-3.56,-3.5794,-3.5915,-3.6156,-3.6444,-3.6708,-3.6806,-3.6766,0.0,0.0,0.0,0.0,0.0,0.0,0.0,0.0,0.0,0.0,0.0,0.0,0.0,0.0,0.0,0.0,0.0,0.0,0.0,0.0,0.0,0.0,0.0,0.0,0.0,0.0,0.0,0.0,0.0,0.0,0.0,0.0,0.0,0.0,0.0,0.0,0.0,0.0,0.0,0.0,0.0,0.0,0.0,0.0,0.0,0.0,0.0,0.0,0.0,0.0,-1.9882,-2.0123,-2.1665,-2.207,-2.21,-2.2794,-2.2901,-2.2908,-2.3458,-2.343,-2.3247,-2.3313,-2.3406,-2.321,-2.2128,-2.2106,-2.1776,-1.9944,0.0,0.0,-1.8489,0.0,-1.9487,-2.0292,0.0,-2.3798,-2.541,-2.6823,-2.818,-2.9455,-3.0079,-3.0676,-3.1412,-3.2457,-3.3087,-3.3087,-3.438,-3.519,-3.54,-3.5943,-3.6289,-3.6352,-3.6352,-3.6414,-3.6492,-3.6492,-3.6492,-3.6492,-3.6492,-3.6492,-3.6492,-3.6259,-3.6182,-3.6165,0.0,0.0,-3.5365,-3.481,-3.4816,-3.5234,-3.5819,-3.6097,-3.6266,-3.6811,-3.6948,-3.6851,0.0,0.0,0.0,0.0,0.0,0.0,0.0,0.0,0.0,0.0,0.0,0.0,0.0,0.0,0.0,0.0,0.0,0.0,0.0,0.0,0.0,0.0,0.0,0.0,0.0,0.0,0.0,0.0,0.0,0.0,0.0,0.0,0.0,0.0,0.0,0.0,0.0,0.0,0.0,0.0,0.0,0.0,0.0,0.0,0.0,0.0,0.0,0.0,0.0,0.0,-2.2027,-2.2707,-2.2922,-2.3427,-2.3913,-2.3953,-2.3895,-2.3817,-2.3717,-2.3624,-2.3513,-2.3407,-2.3157,-2.2823,-2.2402,-2.1961,0.0,0.0,0.0,-1.9258,-1.7801,-1.7956,0.0,-1.9256,0.0,0.0,0.0,0.0,-2.8343,0.0,0.0,0.0,0.0,0.0,0.0,0.0,0.0,0.0,-3.532,-3.4927,-3.4993,-3.5593,-3.5593,-3.5879,-3.6492,-3.6492,-3.6492,-3.6492,-3.6492,-3.6492,-3.6476,-3.5907,-3.5892,-3.6352,0.0,0.0,-3.4961,-3.4542,-3.463,-3.5152,-3.556,-3.6139,-3.6851,-3.697,-3.6987,-3.6987,0.0,0.0,0.0,0.0,0.0,0.0,0.0,-1.2457,-1.3636,-1.479,-1.4585,-1.431,0.0,0.0,0.0,0.0,0.0,0.0,0.0,0.0,0.0,0.0,0.0,0.0,0.0,0.0,0.0,0.0,0.0,0.0,0.0,0.0,0.0,0.0,0.0,0.0,0.0,0.0,0.0,0.0,0.0,0.0,0.0,0.0,0.0,0.0,0.0,0.0,0.0,0.0,-2.2052,-2.3245,-2.3754,-2.4146,-2.4393,-2.4284,-2.4229,-2.4116,-2.3756,-2.3544,-2.341,-2.3247,-2.2919,-2.2535,-2.2153,0.0,0.0,0.0,0.0,-1.9095,-1.7881,0.0,0.0,0.0,0.0,0.0,0.0,0.0,0.0,0.0,0.0,0.0,0.0,0.0,0.0,0.0,0.0,0.0,-3.4177,-3.4312,-3.4447,-3.4795,-3.4846,-3.4993,-3.5335,-3.5737,-3.5943,-3.5943,-3.6289,-3.6492,-3.6476,-3.6153,-3.5999,-3.5907,-3.4906,0.0,-3.4074,-3.385,-3.4105,-3.4591,-3.5311,-3.6011,-3.669,-3.6891,-3.6987,-3.6987,0.0,0.0,0.0,0.0,0.0,0.0,0.0,-1.3534,-1.477,-1.6115,-1.6197,-1.5936,-1.5401,-1.4554,-1.3955,0.0,0.0,0.0,0.0,0.0,0.0,0.0,0.0,0.0,0.0,0.0,0.0,0.0,0.0,0.0,0.0,0.0,0.0,0.0,0.0,0.0,0.0,0.0,0.0,0.0,0.0,0.0,0.0,0.0,0.0,0.0,0.0,0.0,0.0,0.0,-2.1313,-2.2575,-2.3648,-2.4132,-2.4284,-2.4247,-2.4229,-2.4135,-2.3714,-2.3477,-2.3271,-2.3077,-2.2764,-2.2415,-2.1899,-2.1415,0.0,0.0,0.0,-1.8893,-1.8068,0.0,0.0,0.0,0.0,0.0,0.0,0.0,0.0,0.0,0.0,0.0,0.0,0.0,0.0,0.0,0.0,0.0,-3.296,-3.3699,-3.4041,-3.4041,-3.4041,-3.4163,-3.4312,-3.5059,-3.54,-3.54,-3.6148,-3.6415,-3.6261,-3.6122,-3.5768,-3.5214,-3.4383,0.0,0.0,-3.3309,-3.3559,-3.4087,-3.5174,-3.5898,-3.6343,-3.6811,-3.6987,-3.6948,0.0,0.0,0.0,0.0,0.0,0.0,0.0,-1.4427,-1.6203,-1.7077,-1.707,-1.6941,-1.6831,-1.5955,-1.5126,0.0,0.0,0.0,0.0,0.0,0.0,0.0,0.0,0.0,0.0,0.0,0.0,0.0,0.0,0.0,0.0,0.0,0.0,0.0,0.0,0.0,0.0,0.0,0.0,0.0,0.0,0.0,0.0,0.0,0.0,0.0,0.0,0.0,0.0,0.0,0.0,-2.0871,-2.1692,-2.2923,-2.404,-2.4018,0.0,0.0,-2.3671,-2.3558,-2.3394,-2.3077,-2.2842,-2.2508,-2.1849,0.0,0.0,0.0,-1.9339,-1.8712,-1.7747,-1.728,0.0,0.0,0.0,0.0,0.0,0.0,0.0,0.0,0.0,0.0,0.0,0.0,0.0,0.0,0.0,0.0,0.0,-3.296,-3.3283,-3.3283,-3.3283,-3.363,-3.4312,-3.5059,-3.54,-3.54,-3.6148,-3.6168,-3.5553,-3.4937,-3.4629,-3.4491,0.0,0.0,0.0,-3.3309,-3.3559,-3.4087,-3.5174,-3.5898,-3.6343,-3.6811,-3.693,-3.6829,0.0,0.0,0.0,0.0,0.0,0.0,-1.2258,-1.4036,-1.5748,-1.6959,-1.6998,-1.7089,-1.7513,-1.7148,-1.6197,-1.454,0.0,0.0,0.0,0.0,0.0,0.0,0.0,0.0,0.0,0.0,0.0,0.0,0.0,0.0,0.0,0.0,0.0,0.0,0.0,0.0,0.0,0.0,0.0,0.0,0.0,0.0,0.0,0.0,0.0,0.0,0.0,0.0,0.0,0.0,0.0,0.0,-2.0589,-2.1401,0.0,0.0,-2.3654,-2.4089,-2.4222,-2.4123,-2.3883,-2.3537,-2.3313,-2.2886,-2.1757,0.0,0.0,-1.9839,-1.893,-1.812,-1.7585,-1.6824,-1.6287,0.0,0.0,0.0,0.0,0.0,0.0,0.0,0.0,0.0,0.0,0.0,0.0,0.0,0.0,0.0,0.0,-3.2283,-3.251,-3.2221,-3.2439,-3.2595,-3.261,-3.3582,-3.4312,-3.4714,-3.5075,-3.5338,-3.546,-3.4783,-3.4245,-3.3798,0.0,0.0,0.0,-3.319,-3.3732,-3.4495,-3.5311,-3.6071,-3.6731,-3.693,-3.6987,-3.6908,0.0,0.0,0.0,0.0,0.0,-1.1395,-1.2171,-1.3681,-1.5278,-1.677,-1.6894,-1.7088,-1.782,-1.7794,-1.7002,-1.5174,-1.4744,0.0,0.0,0.0,0.0,0.0,0.0,0.0,0.0,0.0,0.0,0.0,0.0,0.0,0.0,0.0,0.0,0.0,0.0,0.0,0.0,0.0,0.0,0.0,0.0,0.0,0.0,0.0,0.0,0.0,0.0,0.0,0.0,0.0,0.0,0.0,0.0,0.0,0.0,0.0,-2.3079,-2.3637,-2.4139,-2.4098,-2.3831,-2.3416,-2.3193,-2.2798,0.0,0.0,-2.0299,-1.9803,-1.8703,-1.7774,-1.7557,-1.6587,-1.5808,0.0,-1.5484,-1.5915,0.0,0.0,0.0,0.0,0.0,0.0,0.0,0.0,0.0,0.0,0.0,0.0,0.0,-3.1853,-3.1869,-3.135,-3.1621,-3.1717,-3.1527,-3.2542,-3.3291,-3.3821,-3.4044,-3.4343,-3.4666,-3.4176,-3.3652,-3.3106,0.0,0.0,0.0,-3.3065,-3.3713,-3.448,-3.5283,-3.6011,-3.6632,-3.6891,-3.6948,-3.6908,0.0,0.0,0.0,0.0,0.0,0.0,-1.2175,-1.3598,-1.5154,-1.6713,-1.6898,-1.7151,-1.7837,-1.7856,-1.744,-1.6552,-1.5749,0.0,0.0,0.0,0.0,0.0,0.0,0.0,0.0,0.0,0.0,0.0,0.0,0.0,0.0,0.0,0.0,0.0,0.0,0.0,0.0,0.0,0.0,0.0,0.0,0.0,0.0,0.0,0.0,0.0,0.0,0.0,0.0,0.0,0.0,0.0,0.0,0.0,0.0,0.0,-2.2325,-2.2353,-2.3029,-2.3119,-2.2919,-2.2515,-2.226,-2.1982,0.0,-2.0991,-2.0416,-1.9818,-1.875,-1.784,-1.7544,-1.6441,-1.5591,-1.5513,-1.5334,0.0,0.0,0.0,0.0,0.0,0.0,0.0,0.0,0.0,0.0,0.0,0.0,0.0,0.0,-3.1527,-3.1323,-3.0936,-3.0908,-3.113,-3.1513,-3.226,-3.2585,-3.2667,-3.3383,-3.3336,-3.2747,-3.2747,-3.2631,0.0,0.0,0.0,0.0,-3.3065,-3.3425,-3.373,-3.5071,-3.5633,-3.5705,-3.6673,-3.6869,-3.6702,0.0,0.0,0.0,0.0,0.0,0.0,0.0,-1.2314,-1.3498,-1.506,-1.5208,-1.5663,-1.6893,-1.7007,-1.6841,-1.6536,-1.5749,0.0,0.0,0.0,0.0,0.0,0.0,0.0,0.0,0.0,0.0,0.0,0.0,0.0,0.0,0.0,0.0,0.0,0.0,0.0,0.0,0.0,0.0,0.0,0.0,0.0,0.0,0.0,0.0,0.0,0.0,0.0,0.0,0.0,0.0,0.0,0.0,0.0,0.0,-2.0809,0.0,0.0,-2.3379,-2.3588,-2.3388,-2.3038,-2.2845,-2.2377,-2.1086,-2.0483,-2.0024,-1.9406,-1.8341,-1.7368,-1.6941,-1.584,-1.5165,-1.5725,0.0,0.0,0.0,0.0,0.0,0.0,0.0,0.0,0.0,0.0,0.0,0.0,0.0,0.0,0.0,-3.0185,-3.0569,-3.0432,-3.0754,-3.0798,-3.0643,-3.1179,-3.1696,-3.2211,-3.194,-3.2434,-3.3411,-3.2447,0.0,0.0,0.0,0.0,0.0,-3.3065,-3.3555,-3.3984,-3.5161,-3.581,-3.6156,-3.6771,-3.6908,-3.6771,0.0,0.0,0.0,0.0,0.0,0.0,0.0,-1.1544,-1.2671,-1.3902,-1.4272,-1.4879,-1.6055,-1.6442,-1.6567,-1.6514,-1.6037,0.0,0.0,0.0,0.0,0.0,0.0,0.0,0.0,0.0,0.0,0.0,0.0,0.0,0.0,0.0,0.0,0.0,0.0,0.0,0.0,0.0,0.0,0.0,0.0,0.0,-2.2829,0.0,0.0,0.0,0.0,0.0,0.0,0.0,0.0,0.0,0.0,0.0,0.0,0.0,-2.0565,-2.1224,0.0,-2.3089,-2.3062,-2.282,-2.2413,-2.1827,-2.0857,-2.0143,-1.9564,-1.9058,-1.8159,-1.7271,-1.6617,-1.562,-1.505,-1.5441,0.0,0.0,0.0,0.0,0.0,0.0,0.0,0.0,0.0,0.0,0.0,0.0,0.0,0.0,0.0,0.0,-2.9876,-2.9951,-3.0285,-3.0345,-3.0192,-3.0502,-3.0881,-3.1324,-3.139,-3.2009,-3.3126,-3.2404,0.0,0.0,0.0,0.0,0.0,-3.292,-3.3519,-3.4217,-3.5068,-3.5688,-3.6199,-3.669,-3.6806,-3.6731,0.0,0.0,0.0,0.0,0.0,0.0,0.0,-1.1174,-1.2449,-1.3126,-1.3918,-1.4662,-1.5351,-1.6088,-1.6512,-1.647,0.0,0.0,0.0,0.0,0.0,0.0,0.0,0.0,0.0,0.0,0.0,0.0,-2.0529,-2.1292,-2.2678,0.0,0.0,0.0,0.0,0.0,0.0,0.0,0.0,0.0,0.0,-2.2743,0.0,0.0,0.0,0.0,0.0,0.0,0.0,0.0,0.0,0.0,0.0,0.0,0.0,0.0,0.0,0.0,0.0,-2.1823,-2.204,-2.1982,-2.129,-2.0632,-2.0712,-1.9929,0.0,-1.8741,-1.8173,-1.7434,-1.6448,-1.5768,-1.521,-1.4843,0.0,0.0,0.0,0.0,0.0,0.0,0.0,0.0,0.0,0.0,0.0,0.0,0.0,0.0,0.0,0.0,-2.913,-2.9498,-2.9568,-2.9757,-3.0123,-3.0137,-3.0137,-3.0202,-3.1268,-3.1922,-3.2046,-3.2422,0.0,0.0,0.0,0.0,0.0,-3.2827,-3.3441,-3.4327,-3.4818,-3.5386,-3.595,-3.6527,-3.6643,-3.6626,0.0,0.0,0.0,0.0,0.0,0.0,0.0,0.0,0.0,0.0,-1.3109,-1.3833,-1.45,-1.5291,-1.5879,0.0,0.0,0.0,0.0,0.0,0.0,0.0,0.0,0.0,0.0,0.0,0.0,-2.0264,-2.0831,-2.167,-2.2695,-2.2832,0.0,0.0,0.0,0.0,0.0,0.0,0.0,0.0,-2.3071,-2.283,0.0,0.0,0.0,0.0,-1.8731,-1.8133,0.0,0.0,0.0,0.0,0.0,0.0,0.0,0.0,-1.8941,-1.8706,-1.9724,0.0,-2.0982,-2.1303,-2.1103,-2.0681,0.0,-1.9675,0.0,0.0,0.0,-1.7374,-1.6327,-1.5692,-1.5371,0.0,0.0,0.0,0.0,0.0,0.0,0.0,0.0,0.0,0.0,0.0,0.0,0.0,0.0,0.0,0.0,0.0,-2.8956,-2.8919,-2.9242,-2.9547,-2.975,-2.975,-2.975,-2.975,-3.0031,-3.1051,-3.2712,-3.1812,0.0,0.0,0.0,0.0,-3.2453,-3.3224,-3.3658,-3.4,-3.5078,-3.5603,-3.5865,-3.6481,-3.6702,-3.671,0.0,0.0,0.0,0.0,0.0,0.0,0.0,0.0,0.0,0.0,0.0,0.0,0.0,0.0,0.0,0.0,0.0,0.0,0.0,0.0,0.0,0.0,0.0,0.0,0.0,0.0,0.0,0.0,0.0,-2.1461,0.0,0.0,0.0,0.0,0.0,0.0,0.0,0.0,0.0,0.0,-2.2557,0.0,0.0,0.0,0.0,0.0,-1.7642,-1.7361,0.0,-1.7967,-1.761,-1.73,0.0,0.0,0.0,0.0,-1.8258,-1.7978,-1.8303,-1.9225,-2.0235,-2.0847,-2.0565,-2.0019,-1.9696,0.0,0.0,0.0,0.0,0.0,-1.5956,0.0,0.0,0.0,0.0,0.0,0.0,0.0,0.0,0.0,0.0,0.0,0.0,0.0,0.0,0.0,0.0,0.0,0.0,0.0,-2.7736,-2.7908,-2.8352,-2.8858,-2.9477,-2.9477,-2.9477,-2.9554,-3.0306,-3.1337,-3.252,-3.1943,-3.254,0.0,0.0,0.0,-3.1836,-3.2273,-3.2736,-3.3225,-3.4074,-3.4848,-3.5604,-3.571,-3.5723,-3.5814,0.0,0.0,0.0,0.0,0.0,0.0,0.0,0.0,0.0,0.0,0.0,0.0,0.0,0.0,0.0,0.0,0.0,0.0,0.0,0.0,0.0,0.0,0.0,0.0,0.0,0.0,0.0,0.0,0.0,0.0,0.0,0.0,0.0,0.0,0.0,0.0,0.0,0.0,0.0,0.0,0.0,0.0,0.0,0.0,0.0,0.0,0.0,0.0,0.0,-1.7708,-1.7462,-1.7117,-1.8407,0.0,0.0,0.0,0.0,0.0,-1.7254,-1.8238,-1.9467,-2.0319,-1.9843,-1.9169,-1.9288,0.0,0.0,0.0,0.0,0.0,0.0,0.0,0.0,0.0,0.0,0.0,0.0,0.0,0.0,0.0,0.0,0.0,0.0,0.0,0.0,0.0,0.0,0.0,0.0,0.0,0.0,-2.6711,-2.7229,-2.796,-2.9073,-2.9219,-2.9254,-2.9366,-3.0845,-3.1657,-3.1824,-3.1974,-3.249,0.0,0.0,0.0,-3.1032,-3.1021,-3.1598,-3.2569,-3.2861,-3.3828,-3.5052,-3.4988,-3.4689,-3.4581,0.0,0.0,0.0,0.0,0.0,0.0,0.0,0.0,0.0,0.0,0.0,0.0,0.0,0.0,0.0,0.0,0.0,0.0,0.0,0.0,0.0,0.0,0.0,0.0,0.0,0.0,0.0,0.0,0.0,0.0,-2.1524,-2.2073,-2.2004,0.0,0.0,0.0,0.0,0.0,0.0,0.0,0.0,0.0,0.0,0.0,0.0,0.0,0.0,0.0,0.0,-1.668,-1.6595,-1.6604,-1.72,0.0,0.0,0.0,0.0,0.0,-1.7455,-1.7749,-1.7966,-1.8946,-1.907,-1.8968,0.0,0.0,0.0,0.0,0.0,0.0,0.0,0.0,0.0,0.0,0.0,0.0,0.0,0.0,0.0,0.0,0.0,0.0,0.0,0.0,0.0,0.0,0.0,0.0,0.0,0.0,0.0,-2.5643,-2.639,-2.7094,-2.776,-2.8293,-2.8747,-2.9162,-2.9435,-3.0026,-3.0969,-3.0425,-3.0683,0.0,0.0,-3.0541,-3.082,-3.1341,-3.2161,-3.3007,-3.3296,-3.3613,-3.4119,-3.5527,-3.5153,-3.3964,0.0,0.0,0.0,0.0,0.0,0.0,0.0,0.0,0.0,0.0,0.0,0.0,0.0,0.0,0.0,0.0,0.0,0.0,0.0,0.0,0.0,0.0,0.0,0.0,0.0,0.0,0.0,0.0,0.0,-2.1526,-2.1182,-2.1323,-2.1101,-2.0693,0.0,0.0,0.0,0.0,0.0,0.0,0.0,0.0,0.0,0.0,0.0,0.0,0.0,0.0,0.0,0.0,-1.6052,-1.5957,-1.6215,0.0,0.0,0.0,0.0,0.0,-1.6169,-1.6699,-1.718,-1.7332,-1.8209,-1.9018,0.0,0.0,0.0,0.0,0.0,0.0,0.0,0.0,0.0,0.0,0.0,0.0,0.0,0.0,0.0,0.0,0.0,0.0,0.0,0.0,0.0,0.0,0.0,0.0,0.0,0.0,0.0,0.0,-2.5664,-2.6426,-2.6995,-2.7318,-2.769,-2.8241,-2.8831,-2.9348,-2.9839,-2.9689,-2.9834,-3.0304,0.0,-2.9537,-2.9895,-3.0305,-3.0973,-3.175,-3.2224,-3.2882,-3.3646,-3.4968,-3.4736,-3.3882,0.0,0.0,0.0,0.0,0.0,0.0,0.0,0.0,0.0,0.0,0.0,0.0,0.0,0.0,0.0,0.0,0.0,0.0,0.0,0.0,0.0,0.0,0.0,0.0,0.0,0.0,-1.9457,-2.0083,-2.1017,-2.1293,-2.0926,-2.0745,-2.0526,0.0,0.0,0.0,0.0,0.0,0.0,-2.1152,0.0,0.0,0.0,0.0,0.0,0.0,0.0,0.0,0.0,0.0,0.0,0.0,0.0,0.0,0.0,-1.5521,-1.5507,-1.5418,-1.5153,-1.5877,-1.667,-1.6409,0.0,-1.8741,0.0,0.0,0.0,0.0,0.0,0.0,0.0,0.0,0.0,0.0,0.0,0.0,0.0,0.0,0.0,0.0,0.0,0.0,0.0,0.0,0.0,0.0,0.0,0.0,0.0,0.0,0.0,0.0,-2.4853,-2.5741,-2.6412,-2.6399,-2.6717,-2.7468,-2.8369,-2.8788,-2.8792,-2.9033,-2.9265,-2.9339,-2.8673,-2.8747,-2.9277,-2.9441,-2.9984,-3.0764,-3.1317,-3.2279,-3.3386,-3.4119,-3.416,-3.3917,0.0,0.0,0.0,0.0,0.0,0.0,0.0,0.0,0.0,0.0,0.0,0.0,0.0,0.0,0.0,0.0,0.0,0.0,0.0,0.0,0.0,0.0,0.0,0.0,0.0,-1.9259,-1.9615,-2.0296,-2.0663,-2.0909,-2.1007,-2.1087,-2.1166,-2.1195,0.0,0.0,0.0,0.0,0.0,-2.0286,-2.0164,0.0,0.0,0.0,0.0,0.0,0.0,0.0,0.0,0.0,0.0,0.0,0.0,0.0,-1.5255,-1.5041,-1.478,-1.4721,-1.5384,-1.5889,-1.6368,-1.6968,0.0,0.0,0.0,0.0,0.0,0.0,0.0,0.0,0.0,0.0,0.0,0.0,0.0,0.0,0.0,0.0,0.0,0.0,0.0,0.0,0.0,0.0,0.0,0.0,0.0,0.0,0.0,0.0,0.0,0.0,0.0,-2.4734,-2.5964,-2.5854,-2.6272,-2.7248,-2.772,-2.7982,-2.7925,-2.8307,-2.851,-2.8488,-2.8427,-2.8936,-2.9722,-2.956,-3.0182,-3.1295,-3.1623,-3.2382,-3.3302,-3.3535,-3.3688,-3.3807,0.0,0.0,0.0,0.0,0.0,0.0,0.0,0.0,0.0,0.0,0.0,0.0,0.0,0.0,0.0,0.0,0.0,0.0,0.0,0.0,0.0,0.0,0.0,-1.7255,-1.8173,-1.8973,-1.9659,-2.0304,-2.0475,-2.0794,-2.1245,-2.0844,0.0,0.0,0.0,0.0,0.0,0.0,0.0,0.0,-1.961,-1.8563,0.0,0.0,0.0,0.0,0.0,0.0,0.0,0.0,-1.5344,-1.5118,-1.5058,-1.4904,-1.4732,-1.4606,-1.4433,-1.4268,-1.4426,-1.5122,-1.5787,-1.5607,0.0,0.0,0.0,0.0,0.0,0.0,0.0,0.0,0.0,0.0,0.0,0.0,0.0,0.0,0.0,0.0,0.0,0.0,0.0,0.0,0.0,0.0,0.0,0.0,0.0,0.0,0.0,0.0,0.0,0.0,0.0,-2.5425,-2.5893,-2.5839,-2.6118,-2.6776,-2.7107,-2.7462,-2.7816,-2.8238,-2.8415,-2.8396,-2.87,-2.9152,-2.9649,-2.9842,-3.03,-3.0902,-3.1718,-3.2548,-3.3255,-3.3569,-3.3726,-3.3815,0.0,0.0,0.0,0.0,0.0,0.0,0.0,0.0,0.0,0.0,0.0,0.0,0.0,0.0,0.0,0.0,0.0,0.0,0.0,0.0,0.0,0.0,0.0,-1.6853,-1.7504,-1.8346,-1.9089,-1.9741,-1.9954,-2.0308,-2.0698,0.0,0.0,0.0,0.0,0.0,0.0,0.0,0.0,0.0,-1.8788,-1.7835,0.0,0.0,0.0,0.0,0.0,0.0,0.0,0.0,-1.5088,-1.4856,-1.4794,-1.4624,-1.4401,-1.4351,-1.4265,-1.4246,-1.4138,-1.4849,-1.5595,0.0,0.0,0.0,0.0,0.0,0.0,0.0,0.0,0.0,0.0,0.0,0.0,0.0,0.0,0.0,0.0,0.0,0.0,0.0,0.0,0.0,0.0,0.0,0.0,0.0,0.0,0.0,0.0,0.0,0.0,0.0,0.0,-2.5729,-2.5893,-2.5839,-2.615,-2.6707,-2.6849,-2.724,-2.779,-2.8201,-2.8411,-2.846,-2.892,-2.9273,-2.9649,-3.0017,-3.051,-3.1067,-3.2004,-3.2777,-3.3368,-3.368,-3.3807,-3.3842,0.0,0.0,0.0,0.0,0.0,0.0,0.0,0.0,0.0,0.0,0.0,0.0,0.0,0.0,0.0,0.0,0.0,0.0,0.0,0.0,0.0,0.0,0.0,-1.6933,-1.7441,-1.7459,-1.78,-1.849,-1.9089,-1.931,-1.9192,-1.931,0.0,0.0,0.0,0.0,0.0,0.0,0.0,0.0,-1.7717,-1.6892,-1.5696,0.0,0.0,0.0,0.0,0.0,0.0,0.0,-1.4982,-1.4937,-1.4596,-1.4501,-1.4452,-1.4181,-1.4345,-1.4598,-1.4655,-1.5171,0.0,0.0,0.0,0.0,0.0,0.0,0.0,0.0,0.0,0.0,0.0,0.0,0.0,0.0,0.0,0.0,0.0,0.0,0.0,0.0,0.0,0.0,0.0,0.0,0.0,0.0,0.0,0.0,0.0,0.0,0.0,0.0,0.0,-2.5286,-2.5893,-2.5784,-2.619,-2.7122,-2.6953,-2.724,-2.784,-2.8201,-2.8411,-2.846,-2.8904,-2.9348,-2.981,-3.0103,-3.0908,-3.2056,-3.2601,-3.3124,-3.3587,-3.3753,-3.3807,-3.3842,0.0,0.0,0.0,0.0,0.0,0.0,0.0,0.0,0.0,0.0,0.0,0.0,0.0,0.0,0.0,0.0,0.0,0.0,0.0,0.0,0.0,0.0,0.0,0.0,0.0,0.0,-1.6742,-1.7818,-1.8485,-1.8882,0.0,0.0,0.0,-1.9125,0.0,0.0,0.0,0.0,0.0,0.0,0.0,-1.7331,-1.592,0.0,0.0,0.0,0.0,0.0,0.0,0.0,0.0,0.0,-1.4246,-1.4313,-1.4327,-1.3887,-1.4016,-1.4272,-1.4063,0.0,0.0,0.0,0.0,0.0,0.0,0.0,0.0,0.0,0.0,0.0,0.0,0.0,0.0,0.0,0.0,0.0,0.0,0.0,0.0,0.0,0.0,0.0,0.0,0.0,0.0,0.0,0.0,0.0,0.0,0.0,0.0,0.0,-2.5063,-2.5729,-2.5893,-2.5839,-2.6244,-2.7122,-2.7071,-2.7444,-2.825,-2.8348,-2.8411,-2.8444,-2.9227,-2.9589,-2.9649,-3.0172,-3.0965,-3.1823,-3.223,-3.2827,-3.3481,-3.3726,-3.3921,-3.4105,0.0,0.0,0.0,0.0,0.0,0.0,0.0,0.0,0.0,0.0,0.0,0.0,0.0,0.0,0.0,0.0,0.0,0.0,0.0,0.0,0.0,0.0,0.0,0.0,0.0,-1.5637,-1.6137,0.0,0.0,0.0,0.0,0.0,0.0,-1.8951,0.0,-1.8687,0.0,0.0,0.0,0.0,0.0,-1.6815,-1.5588,0.0,0.0,0.0,0.0,0.0,0.0,0.0,0.0,0.0,-1.3967,0.0,-1.4059,-1.3886,-1.4211,-1.4607,-1.4688,0.0,0.0,0.0,0.0,0.0,0.0,0.0,0.0,0.0,0.0,0.0,0.0,0.0,0.0,0.0,0.0,0.0,0.0,0.0,0.0,0.0,0.0,0.0,0.0,0.0,0.0,0.0,0.0,0.0,0.0,0.0,0.0,0.0,-2.5177,-2.5893,-2.5893,-2.5893,-2.6297,-2.7122,-2.7122,-2.756,-2.8411,-2.8411,-2.8493,-2.8748,-2.9661,-3.007,-3.0113,-3.0788,-3.1249,-3.1593,-3.2298,-3.2943,-3.3459,-3.3716,-3.3957,-3.4245,0.0,0.0,-1.2054,-1.1933,0.0,0.0,0.0,0.0,0.0,0.0,0.0,-1.1985,0.0,0.0,0.0,-1.2375,0.0,0.0,0.0,0.0,0.0,0.0,0.0,0.0,0.0,0.0,0.0,0.0,0.0,0.0,0.0,0.0,-1.756,-1.8622,0.0,-1.7901,0.0,0.0,0.0,0.0,-1.6338,-1.5817,-1.501,-1.4913,0.0,0.0,0.0,0.0,0.0,0.0,0.0,0.0,-1.3782,-1.3721,-1.3783,-1.4014,-1.4612,-1.5338,0.0,0.0,0.0,0.0,0.0,0.0,0.0,0.0,0.0,0.0,0.0,0.0,0.0,0.0,0.0,0.0,0.0,0.0,0.0,0.0,0.0,0.0,0.0,0.0,0.0,0.0,0.0,0.0,0.0,0.0,0.0,0.0,0.0,0.0,-2.4792,-2.5725,-2.5725,-2.5781,-2.6226,0.0,-2.7034,-2.747,-2.8319,-2.8381,-2.8653,-2.9212,-3.0038,-3.0576,-3.0935,-3.164,-3.1666,-3.1455,-3.2666,-3.325,-3.3484,-3.3723,-3.3952,-3.4203,0.0,0.0,-1.2096,-1.2066,0.0,0.0,0.0,0.0,-1.2123,-1.1933,-1.197,-1.2015,-1.208,-1.1938,0.0,-1.208,-1.1726,0.0,0.0,0.0,0.0,0.0,0.0,0.0,0.0,0.0,0.0,0.0,0.0,0.0,0.0,0.0,0.0,-1.729,0.0,-1.6539,0.0,0.0,0.0,-1.5524,-1.6158,-1.5958,-1.5319,-1.5271,-1.4836,0.0,0.0,0.0,0.0,0.0,0.0,0.0,-1.3323,-1.3661,-1.394,-1.3307,-1.4124,-1.5106,0.0,0.0,0.0,0.0,0.0,0.0,0.0,0.0,0.0,0.0,0.0,0.0,0.0,0.0,0.0,0.0,0.0,0.0,0.0,0.0,0.0,0.0,0.0,0.0,0.0,0.0,0.0,0.0,0.0,0.0,0.0,0.0,0.0,-2.3204,-2.4052,-2.4512,-2.4512,-2.4938,-2.5621,0.0,-2.632,-2.6782,-2.7626,-2.8165,-2.8842,-2.9661,-2.9677,-3.0172,-3.0912,-3.1162,-3.1418,-3.1681,-3.2315,-3.2827,-3.3244,-3.3647,-3.3899,-3.4099,0.0,0.0,0.0,0.0,0.0,0.0,0.0,0.0,-1.1897,-1.1776,-1.1776,-1.1776,-1.1733,-1.1711,0.0,0.0,-1.1608,-1.146,0.0,0.0,0.0,0.0,0.0,0.0,0.0,0.0,0.0,0.0,0.0,0.0,0.0,0.0,0.0,-1.7314,0.0,-1.6244,0.0,0.0,0.0,-1.5148,-1.5494,-1.5383,-1.4975,-1.4892,-1.4498,-1.3894,-1.3682,0.0,0.0,0.0,0.0,0.0,0.0,0.0,-1.3156,-1.3023,-1.378,-1.4581,0.0,0.0,0.0,0.0,0.0,0.0,0.0,0.0,0.0,0.0,0.0,0.0,0.0,0.0,0.0,0.0,0.0,0.0,0.0,0.0,0.0,0.0,0.0,0.0,0.0,0.0,0.0,0.0,0.0,0.0,0.0,-2.1409,-2.2102,-2.2906,-2.3696,-2.4118,-2.4118,-2.4566,-2.5128,-2.5707,-2.5838,-2.6236,-2.6934,-2.786,-2.8645,-2.9351,-2.9735,-3.0284,-3.0952,-3.1334,-3.1634,-3.1925,-3.2419,-3.2898,-3.3273,-3.3524,-3.3744,-3.3956,0.0,0.0,0.0,0.0,0.0,0.0,0.0,0.0,0.0,-1.1601,-1.1556,-1.1511,-1.1534,-1.1489,-1.1489,0.0,0.0,0.0,-1.1376,0.0,0.0,0.0,0.0,0.0,0.0,0.0,0.0,0.0,0.0,0.0,0.0,0.0,0.0,-1.7571,0.0,0.0,0.0,0.0,-1.4803,-1.4517,-1.4317,-1.4119,-1.3881,-1.3785,-1.3458,-1.3032,-1.3133,-1.3103,-1.3082,-1.3148,0.0,0.0,0.0,0.0,-1.2267,-1.2798,-1.3406,-1.3994,0.0,0.0,0.0,0.0,0.0,0.0,0.0,0.0,0.0,0.0,0.0,0.0,0.0,0.0,0.0,0.0,0.0,0.0,0.0,0.0,0.0,0.0,0.0,0.0,0.0,0.0,0.0,0.0,0.0,0.0,-2.0329,-2.1095,-2.1725,-2.2142,-2.32,-2.3794,-2.3794,-2.4127,-2.4549,-2.5029,-2.5452,-2.5773,-2.6086,-2.7121,-2.7965,-2.8637,-2.9459,-3.0071,-3.0566,-3.1185,-3.1528,-3.1756,-3.257,-3.2979,-3.3081,-3.3322,-3.3522,-3.3773,0.0,0.0,0.0,0.0,0.0,0.0,0.0,0.0,0.0,0.0,-1.1593,-1.1615,-1.1674,-1.1674,-1.1696,-1.1762,-1.1556,-1.1353,0.0,0.0,0.0,0.0,0.0,0.0,0.0,0.0,0.0,0.0,0.0,0.0,0.0,0.0,0.0,-1.6795,0.0,0.0,0.0,0.0,0.0,-1.2607,-1.219,-1.1858,-1.1538,-1.1482,-1.1339,-1.1212,-1.1619,-1.1706,-1.1754,-1.2201,-1.2282,0.0,0.0,0.0,0.0,0.0,0.0,0.0,0.0,0.0,0.0,0.0,0.0,0.0,0.0,0.0,0.0,0.0,0.0,0.0,0.0,0.0,0.0,0.0,0.0,0.0,0.0,0.0,0.0,0.0,0.0,0.0,0.0,0.0,0.0,0.0,0.0,0.0,-1.9202,-2.022,-2.0777,-2.0878,-2.189,-2.2423,-2.2423,-2.2909,-2.3549,-2.4412,-2.5046,-2.5106,-2.461,-2.5315,-2.645,-2.785,-2.7874,-2.8289,-2.9001,-2.9338,-2.9642,-3.0058,-3.2117,-3.236,-3.1724,-3.2942,-3.3424,-3.3484,0.0,0.0,0.0,0.0,0.0,0.0,0.0,0.0,0.0,0.0,0.0,-1.179,-1.1869,-1.1681,-1.1557,-1.1637,-1.1362,0.0,0.0,0.0,0.0,0.0,0.0,0.0,0.0,0.0,0.0,0.0,0.0,0.0,0.0,-1.4213,-1.5042,0.0,0.0,0.0,0.0,0.0,0.0,-1.216,-1.1957,-1.2087,-1.2301,0.0,-1.1763,-1.2567,-1.1915,0.0,0.0,-1.214,-1.2029,-1.1763,0.0,0.0,0.0,0.0,0.0,0.0,0.0,0.0,0.0,0.0,0.0,0.0,0.0,0.0,0.0,0.0,0.0,0.0,0.0,0.0,0.0,0.0,0.0,0.0,0.0,0.0,0.0,0.0,0.0,0.0,0.0,0.0,0.0,0.0,0.0,-1.8881,-1.9239,-2.0055,-2.0623,-2.0921,-2.1602,-2.1996,-2.1996,-2.2404,-2.3048,-2.3911,-2.4219,-2.4326,-2.4317,-2.461,-2.5607,-2.7106,-2.7372,-2.797,-2.8716,-2.8977,-2.9246,-2.9609,-3.0826,-3.1288,-3.1446,-3.2661,-3.2661,-3.2206,0.0,0.0,0.0,0.0,0.0,0.0,0.0,0.0,0.0,0.0,0.0,-1.1718,-1.1805,0.0,0.0,0.0,-1.1164,0.0,0.0,0.0,0.0,0.0,0.0,0.0,0.0,0.0,0.0,0.0,0.0,0.0,-1.3686,-1.3813,-1.4621,0.0,-1.5612,0.0,0.0,0.0,0.0,-1.2149,-1.2016,-1.2291,-1.2709,-1.1866,-1.2342,-1.3388,0.0,0.0,0.0,0.0,0.0,0.0,0.0,0.0,0.0,0.0,0.0,0.0,0.0,0.0,0.0,0.0,0.0,0.0,0.0,0.0,0.0,0.0,0.0,0.0,0.0,0.0,0.0,0.0,0.0,0.0,0.0,0.0,0.0,0.0,0.0,0.0,0.0,0.0,0.0,0.0,0.0,-1.8946,-1.9344,-1.9952,-2.0472,-2.0871,-2.1458,-2.1746,-2.1712,-2.2184,-2.2678,-2.3246,-2.3465,-2.3767,-2.4135,-2.4261,-2.4961,-2.6188,-2.676,-2.7375,-2.7998,-2.8311,-2.8612,-2.8971,-2.9408,-2.9964,-3.0659,-3.184,-3.1935,-3.1697,0.0,0.0,0.0,0.0,0.0,0.0,0.0,0.0,0.0,0.0,0.0,-1.1178,-1.1316,-1.133,-1.1339,-1.14,-1.1094,0.0,0.0,0.0,0.0,0.0,0.0,0.0,0.0,0.0,0.0,0.0,0.0,0.0,-1.3162,-1.3531,-1.4372,-1.5508,-1.5395,-1.4979,-1.4401,0.0,0.0,0.0,-1.1778,-1.1422,-1.1317,-1.2125,-1.2238,-1.1942,0.0,0.0,0.0,0.0,0.0,0.0,0.0,0.0,0.0,0.0,0.0,0.0,0.0,0.0,0.0,0.0,0.0,0.0,0.0,0.0,0.0,0.0,0.0,0.0,0.0,0.0,0.0,0.0,0.0,0.0,0.0,0.0,0.0,0.0,0.0,0.0,0.0,0.0,0.0,0.0,0.0,-1.8905,-1.9182,-1.9708,-2.0042,-2.0042,-2.1055,-2.1568,-2.1423,-2.2091,-2.237,-2.2263,-2.3157,-2.3595,-2.3638,-2.4094,-2.4549,-2.4989,-2.541,-2.5761,-2.6085,-2.648,-2.6911,-2.7402,-2.8159,-2.8425,-2.8557,-3.0071,-3.1547,-3.2882,0.0,0.0,0.0,0.0,0.0,0.0,0.0,0.0,0.0,0.0,0.0,0.0,0.0,-1.1224,-1.1108,-1.1141,-1.0849,0.0,0.0,0.0,0.0,0.0,0.0,0.0,0.0,0.0,0.0,0.0,0.0,-1.0352,-1.2345,-1.2838,-1.3504,-1.4312,-1.5062,-1.4994,-1.4262,-1.3789,0.0,0.0,0.0,-1.2764,0.0,-1.2451,-1.3182,-1.4541,0.0,0.0,0.0,0.0,0.0,0.0,0.0,-1.1124,-1.102,-1.1306,0.0,0.0,0.0,0.0,0.0,0.0,0.0,0.0,0.0,0.0,0.0,0.0,0.0,0.0,0.0,0.0,0.0,0.0,0.0,0.0,0.0,0.0,0.0,0.0,0.0,0.0,0.0,0.0,0.0,0.0,0.0,0.0,-1.9052,-1.9668,-2.0016,-2.0016,-2.061,-2.1068,-2.1277,-2.1746,-2.2123,-2.2388,-2.274,-2.3187,-2.3739,-2.3909,-2.4177,-2.4533,-2.4942,-2.5422,-2.5917,-2.6241,-2.6572,-2.6925,-2.741,-2.7739,-2.7977,-2.8723,-2.9387,-3.0204,0.0,0.0,0.0,-1.1245,0.0,-1.127,-1.1173,-1.115,-1.1127,-1.1127,0.0,0.0,0.0,0.0,-1.1142,-1.0934,-1.0729,0.0,0.0,0.0,0.0,0.0,0.0,0.0,0.0,0.0,0.0,0.0,0.0,0.0,0.0,-1.2002,-1.2659,-1.3426,-1.4053,-1.4336,0.0,0.0,0.0,-1.3283,0.0,0.0,-1.4597,0.0,-1.4484,0.0,0.0,0.0,0.0,0.0,0.0,0.0,0.0,-1.1302,-1.0897,-1.1115,0.0,0.0,0.0,0.0,0.0,0.0,0.0,0.0,0.0,0.0,0.0,0.0,0.0,0.0,0.0,0.0,0.0,0.0,0.0,0.0,0.0,0.0,0.0,0.0,0.0,0.0,0.0,0.0,0.0,0.0,0.0,0.0,-1.8573,-1.9032,-1.9321,-1.9471,-1.9705,-2.0035,-2.0576,-2.1003,-2.1476,-2.1893,-2.2321,-2.2875,-2.3566,-2.3739,-2.3967,-2.4302,-2.4679,-2.5153,-2.568,-2.601,-2.6365,-2.6725,-2.6956,-2.7244,-2.76,-2.8029,-2.8198,-2.8589,-1.1576,-1.1897,-1.195,-1.084,-1.09,-1.1057,-1.0808,-1.0697,-1.0648,-1.0661,0.0,0.0,0.0,0.0,0.0,0.0,0.0,-1.0828,-1.0777,0.0,0.0,0.0,0.0,0.0,0.0,0.0,0.0,0.0,0.0,0.0,0.0,0.0,-1.1883,0.0,-1.2369,-1.2954,-1.4339,0.0,-1.4362,-1.4385,0.0,-1.4419,-1.4614,0.0,0.0,0.0,-1.6204,-1.5882,0.0,0.0,0.0,0.0,0.0,-1.1841,-1.1172,-1.1206,0.0,0.0,0.0,0.0,0.0,0.0,0.0,0.0,0.0,0.0,0.0,0.0,0.0,0.0,0.0,0.0,0.0,0.0,0.0,0.0,0.0,0.0,0.0,0.0,0.0,0.0,0.0,0.0,0.0,0.0,0.0,-1.7387,-1.7762,-1.781,-1.7989,-1.8376,-1.8295,-1.8562,-1.9248,-1.9854,-2.0334,-2.0699,-2.1851,-2.2651,-2.3054,-2.3537,-2.3952,-2.4302,-2.4655,-2.4918,-2.523,-2.568,-2.6189,-2.6691,-2.6691,-2.6891,-2.7279,-2.7922,-2.8205,-2.8451,-1.1723,-1.2047,-1.2265,-1.1709,-1.1688,-1.1878,-1.2297,-1.1927,-1.179,0.0,0.0,0.0,0.0,0.0,0.0,0.0,0.0,-1.1242,-1.055,-1.0411,-1.0261,-1.0059,-0.9619,0.0,0.0,0.0,0.0,0.0,0.0,0.0,0.0,0.0,0.0,0.0,-1.2236,-1.2787,-1.3548,-1.3442,0.0,0.0,-1.4502,-1.5129,0.0,0.0,0.0,0.0,0.0,-1.6991,0.0,0.0,-1.5593,-1.4383,0.0,0.0,0.0,-1.1168,-1.1519,0.0,-1.2175,0.0,0.0,0.0,0.0,0.0,0.0,0.0,0.0,0.0,0.0,0.0,0.0,0.0,0.0,0.0,0.0,0.0,0.0,0.0,0.0,0.0,0.0,0.0,0.0,0.0,0.0,0.0,-1.7569,-1.7714,-1.7941,-1.7858,-1.7858,-1.7941,-1.8201,-1.8423,-1.8655,-1.9349,-1.9714,-1.9818,-2.0398,-2.1163,-2.2105,-2.2482,-2.3118,-2.3967,-2.4302,-2.4614,-2.4958,-2.5513,-2.599,-2.6364,-2.6607,-2.6758,-2.6891,-2.7413,-2.7864,-2.8294,-1.1513,-1.2252,-1.2788,-1.2078,-1.2187,-1.2534,-1.2952,-1.2659,-1.2507,0.0,0.0,0.0,0.0,0.0,0.0,0.0,0.0,-1.1642,-1.0984,-1.0593,-1.0211,-0.988,-0.9514,-0.9313,0.0,0.0,0.0,0.0,0.0,0.0,0.0,0.0,0.0,0.0,0.0,-1.1781,-1.2734,-1.2354,0.0,0.0,-1.4966,0.0,0.0,-1.65,-1.691,0.0,0.0,0.0,-1.7381,-1.7288,-1.6284,0.0,0.0,0.0,-1.1469,-1.1583,0.0,0.0,0.0,0.0,0.0,0.0,0.0,0.0,0.0,0.0,0.0,0.0,0.0,0.0,0.0,0.0,0.0,0.0,0.0,0.0,0.0,0.0,0.0,0.0,0.0,0.0,0.0,0.0,0.0,-1.6902,-1.7042,-1.718,-1.7352,-1.7168,-1.7029,-1.7029,-1.7202,-1.7372,-1.7541,-1.8388,-1.8919,-1.9064,-1.9686,-2.0454,-2.1241,-2.1441,-2.2201,-2.3375,-2.3542,-2.4066,-2.4815,-2.5192,-2.5589,-2.6026,-2.6347,-2.6486,-2.6572,-2.7095,-2.7496,-2.7752,0.0,-1.2428,-1.3303,-1.2313,-1.2633,-1.3095,-1.3291,-1.3164,-1.3095,0.0,-1.3794,0.0,0.0,0.0,0.0,0.0,0.0,-1.202,-1.1693,-1.0779,-1.0084,-0.975,-0.9393,-0.919,-0.912,0.0,0.0,0.0,0.0,0.0,0.0,0.0,0.0,0.0,-0.9809,-1.0415,-1.189,-1.1451,0.0,-1.4545,-1.5383,-1.5821,0.0,0.0,-1.7082,0.0,-1.7764,-1.7852,-1.745,-1.7392,-1.639,0.0,0.0,-1.2907,-1.2876,-1.2335,-1.2541,0.0,0.0,0.0,0.0,0.0,0.0,0.0,-1.4393,-1.4181,0.0,0.0,0.0,0.0,0.0,0.0,0.0,0.0,0.0,0.0,0.0,0.0,0.0,0.0,0.0,0.0,0.0,-1.5957,-1.612,-1.6275,-1.6231,-1.6275,-1.6392,-1.6175,-1.6044,-1.5988,-1.5869,-1.5957,-1.6238,-1.7237,-1.7874,-1.8259,-1.9228,-1.9961,-2.0415,-2.0457,-2.1207,-2.2476,-2.2559,-2.33,-2.4476,-2.4618,-2.5089,-2.5738,-2.6043,-2.6168,-2.6274,-2.6908,-2.7117,-2.7075,-1.1872,-1.2465,-1.3123,-1.3586,-1.3714,-1.4167,-1.5253,-1.4495,-1.4336,-1.59,0.0,0.0,0.0,0.0,0.0,0.0,0.0,-1.2208,-1.1492,-1.0472,-0.975,-0.9408,-0.9328,-0.9286,-0.9259,-0.9286,0.0,0.0,0.0,0.0,0.0,0.0,0.0,0.0,-0.9733,-1.0128,-1.0961,-1.1844,0.0,-1.3673,-1.4234,0.0,-1.6657,-1.6865,-1.7283,-1.7821,-1.8015,-1.8027,-1.7932,0.0,-1.691,-1.6081,0.0,0.0,0.0,0.0,0.0,-1.3879,-1.3684,-1.3891,-1.4017,0.0,0.0,0.0,0.0,-1.3071,0.0,0.0,0.0,0.0,0.0,0.0,0.0,0.0,0.0,0.0,0.0,0.0,0.0,0.0,0.0,0.0,0.0,-1.6471,-1.6484,-1.668,-1.6479,-1.6362,-1.6392,-1.6231,-1.6088,-1.5988,-1.5957,-1.5957,-1.5913,-1.638,-1.6832,-1.7213,-1.7684,-1.841,-1.9322,-1.9585,-2.0172,-2.1024,-2.1643,-2.2064,-2.2373,-2.3515,-2.4659,-2.5701,-2.5775,-2.5954,-2.6239,-2.6606,-2.6859,-2.7051,-1.213,-1.3022,-1.3855,-1.4027,-1.4252,-1.4715,-1.5712,-1.5329,-1.5403,0.0,0.0,0.0,0.0,0.0,0.0,0.0,0.0,0.0,0.0,-1.0744,-0.9995,-0.9366,-0.9393,-0.9393,-0.9354,-0.9094,0.0,0.0,0.0,0.0,0.0,0.0,0.0,0.0,0.0,0.0,0.0,0.0,-1.2914,-1.391,-1.4766,0.0,-1.6534,-1.679,-1.731,-1.7878,-1.7878,-1.7825,-1.7679,-1.7174,-1.6681,0.0,0.0,-1.4947,-1.4695,0.0,-1.4435,-1.4539,0.0,0.0,-1.4458,-1.3882,0.0,0.0,0.0,0.0,0.0,0.0,0.0,0.0,0.0,0.0,0.0,0.0,0.0,0.0,0.0,0.0,0.0,0.0,0.0,0.0,0.0,-1.6938,-1.6964,-1.6863,-1.6522,-1.6318,-1.6392,-1.6275,-1.6188,-1.6219,-1.6088,-1.5957,-1.5913,-1.6151,-1.6411,-1.6595,-1.6976,-1.751,-1.822,-1.8371,-1.9017,-2.0074,-2.0644,-2.1233,-2.1759,-2.2678,-2.3705,-2.4826,-2.5443,-2.5791,-2.6026,-2.6486,-2.6742,-2.6905,-1.222,-1.3402,-1.4381,-1.4083,-1.4447,-1.5019,-1.5637,-1.5722,-1.5971,0.0,0.0,0.0,0.0,0.0,0.0,0.0,0.0,0.0,0.0,0.0,0.0,-0.9785,-0.9581,-0.9521,-0.9578,-0.9038,-0.899,0.0,0.0,0.0,0.0,0.0,0.0,0.0,0.0,0.0,0.0,0.0,0.0,-1.4369,0.0,-1.5986,-1.6208,-1.6666,-1.7108,-1.7461,-1.7461,-1.7468,-1.7353,-1.6795,0.0,-1.6084,-1.5452,-1.5257,0.0,0.0,0.0,0.0,0.0,0.0,0.0,0.0,0.0,-1.4359,0.0,0.0,0.0,-1.4511,0.0,0.0,0.0,0.0,0.0,0.0,0.0,0.0,0.0,0.0,0.0,0.0,0.0,0.0,0.0,-1.7489,-1.7516,-1.6993,-1.6502,-1.6256,-1.6392,-1.6318,-1.6275,-1.6306,-1.6175,-1.6032,-1.5957,-1.6151,-1.6269,-1.6312,-1.6637,-1.6947,-1.7323,-1.7352,-1.8017,-1.9125,-1.9581,-2.0318,-2.1237,-2.1759,-2.247,-2.3425,-2.4778,-2.5496,-2.5742,-2.6147,-2.6489,-2.6738,-1.2269,-1.2775,-1.3416,-1.4055,-1.4537,-1.5051,-1.5764,-1.5336,-1.5393,0.0,0.0,0.0,0.0,0.0,0.0,0.0,0.0,0.0,-1.3411,0.0,0.0,-1.0997,-0.9992,-0.9689,-1.0282,-0.9641,-0.9375,-0.9497,0.0,0.0,0.0,0.0,-1.0246,-1.0891,-1.1374,0.0,0.0,0.0,-1.3889,0.0,-1.4875,-1.5445,0.0,-1.6184,-1.6522,-1.6877,-1.6877,-1.7166,-1.7479,0.0,-1.6887,-1.7048,0.0,-1.582,0.0,0.0,0.0,0.0,0.0,0.0,0.0,0.0,-1.404,0.0,0.0,0.0,-1.3023,-1.315,0.0,0.0,0.0,0.0,0.0,0.0,0.0,0.0,0.0,0.0,0.0,0.0,0.0,0.0,0.0,0.0,-1.8238,-1.7235,-1.6532,-1.6208,-1.638,-1.6392,-1.6262,-1.6032,-1.6262,-1.6175,-1.5836,-1.5957,-1.6107,-1.6312,-1.6367,-1.6582,-1.696,-1.7282,-1.7474,-1.7692,-1.8377,-1.8965,-1.9461,-2.0338,-2.1001,-2.1572,-2.3346,-2.4724,-2.5619,-2.504,-2.5627,-2.6606,-1.2211,-1.3023,-1.3656,-1.3678,-1.4356,-1.5006,-1.5301,-1.6335,-1.732,0.0,0.0,0.0,0.0,0.0,0.0,0.0,0.0,-1.4815,0.0,0.0,0.0,-1.2025,-1.1279,-1.0702,-1.0346,-0.9749,-0.9329,-0.9105,-0.9168,0.0,0.0,0.0,-1.0638,-1.191,-1.1868,0.0,-1.3949,0.0,0.0,0.0,0.0,0.0,0.0,-1.5704,-1.6173,-1.6609,-1.6816,-1.6837,-1.6683,0.0,-1.6178,0.0,0.0,0.0,0.0,0.0,0.0,0.0,0.0,0.0,0.0,0.0,0.0,0.0,0.0,0.0,-1.3265,0.0,0.0,0.0,0.0,0.0,0.0,0.0,0.0,0.0,0.0,0.0,0.0,0.0,0.0,0.0,0.0,0.0,0.0,0.0,0.0,-1.5488,-1.6355,-1.6318,-1.6275,-1.6306,-1.6275,-1.6188,-1.6013,-1.6001,-1.5988,-1.5988,-1.5988,-1.6207,-1.6552,-1.6947,-1.724,-1.7516,-1.8187,-1.8745,-1.9153,-1.9678,-2.0355,-2.1112,-2.1901,-2.297,-2.4128,-2.4,-2.4563,-2.5372,-1.2431,0.0,0.0,0.0,-1.4357,-1.5041,-1.5167,-1.7119,-1.8579,0.0,0.0,0.0,-1.966,-1.8822,0.0,0.0,0.0,-1.5756,0.0,0.0,-1.3616,-1.3192,-1.2492,0.0,0.0,-1.0334,-0.9719,-0.9227,-0.9132,0.0,0.0,0.0,0.0,-1.2411,0.0,-1.3252,-1.476,0.0,0.0,-1.467,-1.4767,-1.4756,-1.4801,-1.5428,-1.5897,-1.6253,-1.6563,-1.6408,-1.6091,-1.5963,-1.5614,0.0,-1.559,0.0,0.0,0.0,0.0,0.0,-1.5108,0.0,0.0,0.0,0.0,0.0,0.0,0.0,0.0,0.0,0.0,0.0,0.0,0.0,0.0,0.0,0.0,0.0,0.0,0.0,0.0,0.0,0.0,0.0,0.0,0.0,0.0,0.0,0.0,0.0,-1.6191,-1.6095,-1.6083,-1.6293,-1.6275,-1.6231,-1.6144,-1.61,-1.6001,-1.5836,-1.5836,-1.5913,-1.6194,-1.668,-1.7073,-1.7352,-1.8068,-1.8592,-1.895,-1.9221,-1.9812,-2.0572,-2.0755,-2.143,-2.2417,-2.2905,-2.3703,-2.4458,-1.3121,-1.3291,0.0,0.0,0.0,-1.5229,-1.5864,-1.7069,-1.7957,0.0,0.0,0.0,0.0,0.0,0.0,0.0,0.0,-1.6716,-1.6151,0.0,-1.4359,0.0,-1.3301,-1.2673,0.0,-1.1676,-1.0816,-1.0359,-0.9836,-0.9915,0.0,0.0,0.0,0.0,0.0,-1.344,-1.4001,-1.5149,-1.5647,-1.562,-1.5162,-1.5097,-1.5289,0.0,-1.5614,-1.5816,-1.5751,0.0,0.0,-1.5498,-1.5568,0.0,0.0,0.0,0.0,0.0,0.0,0.0,0.0,0.0,0.0,-1.391,0.0,0.0,0.0,0.0,-1.303,0.0,0.0,0.0,0.0,0.0,0.0,0.0,0.0,0.0,0.0,0.0,0.0,0.0,0.0,0.0,0.0,0.0,0.0,0.0,0.0,0.0,-1.5898,-1.569,-1.5605,-1.5824,-1.6175,-1.6262,-1.5988,-1.6144,-1.6144,-1.5988,-1.5881,-1.5792,-1.5836,-1.6625,-1.6976,-1.696,-1.772,-1.8226,-1.8539,-1.8831,-1.9124,-1.9516,-2.0091,-2.0472,-2.0805,-2.1773,-2.3112,-2.4329,0.0,0.0,0.0,0.0,0.0,-1.5542,-1.6571,-1.7812,0.0,0.0,0.0,0.0,0.0,0.0,-1.8832,0.0,0.0,-1.7501,-1.7154,-1.6459,0.0,0.0,0.0,-1.4118,0.0,0.0,-1.1875,-1.0943,-1.089,-1.0978,0.0,0.0,0.0,0.0,0.0,-1.357,0.0,0.0,0.0,0.0,0.0,-1.4935,-1.5312,0.0,0.0,-1.576,-1.5748,-1.5823,0.0,-1.5641,-1.561,-1.5578,-1.5313,-1.521,-1.521,-1.5108,-1.5108,0.0,0.0,0.0,-1.5004,-1.4281,0.0,0.0,0.0,0.0,0.0,0.0,0.0,0.0,0.0,0.0,0.0,0.0,0.0,0.0,0.0,0.0,0.0,0.0,0.0,0.0,0.0,0.0,0.0,0.0,0.0,0.0,0.0,-1.5991,-1.6055,-1.625,-1.6275,-1.6231,-1.6144,-1.61,-1.6044,-1.5988,-1.5881,-1.5836,-1.5957,-1.6655,-1.6993,-1.7005,-1.7707,-1.8201,-1.8542,-1.8793,-1.9058,-1.9295,-1.9797,-2.022,-2.0628,-2.1376,-2.2155,-2.2962,-1.464,0.0,0.0,0.0,0.0,0.0,0.0,0.0,0.0,0.0,-2.0016,0.0,-2.069,0.0,-1.921,0.0,-1.883,-1.8152,-1.7774,-1.7443,0.0,-1.6704,-1.6169,0.0,0.0,0.0,-1.3004,-1.1878,-1.1777,-1.1784,0.0,0.0,0.0,0.0,0.0,0.0,0.0,0.0,-1.5557,0.0,0.0,-1.4921,0.0,0.0,-1.5671,-1.5715,0.0,-1.5748,-1.5715,-1.5715,-1.5614,-1.5468,-1.539,-1.5345,-1.5267,-1.521,-1.5153,-1.5108,-1.5051,-1.5017,0.0,-1.4456,-1.4078,0.0,-1.3237,0.0,0.0,0.0,0.0,0.0,0.0,0.0,0.0,0.0,0.0,0.0,0.0,0.0,0.0,0.0,0.0,0.0,0.0,0.0,-1.4383,-1.51,0.0,0.0,0.0,0.0,-1.5885,-1.6136,-1.6219,-1.6231,-1.62,-1.6088,-1.6044,-1.5988,-1.5913,-1.5913,-1.6032,-1.6625,-1.6964,-1.7089,-1.7585,-1.8002,-1.8333,-1.8655,-1.8945,-1.9244,-1.9711,-2.017,-2.0662,-2.1071,-2.1645,-2.2338,0.0,0.0,0.0,0.0,-1.6396,0.0,0.0,0.0,-1.9893,0.0,-1.9894,-2.0261,-2.0221,-1.9799,-1.9693,-2.0131,-1.9334,0.0,-1.8101,-1.7955,0.0,0.0,-1.6761,-1.6438,-1.5645,0.0,0.0,0.0,-1.2552,0.0,0.0,0.0,0.0,0.0,-1.2947,0.0,-1.3852,-1.5337,-1.58,-1.5468,-1.5198,-1.5108,-1.5108,-1.5379,0.0,-1.5715,-1.5748,-1.5748,-1.5715,-1.5715,-1.5614,-1.5513,-1.5468,-1.539,-1.5312,-1.5312,-1.521,-1.5062,-1.4949,-1.4903,-1.4801,-1.4347,0.0,0.0,0.0,0.0,-1.4396,0.0,0.0,0.0,0.0,0.0,0.0,0.0,0.0,0.0,0.0,0.0,0.0,0.0,0.0,0.0,0.0,0.0,-1.3905,-1.445,-1.3912,0.0,0.0,0.0,-1.5194,-1.5529,-1.6118,-1.6362,-1.62,-1.62,-1.6144,-1.6001,-1.6001,-1.5988,-1.6001,-1.6466,-1.685,-1.7199,-1.7393,-1.7679,-1.8028,-1.8344,-1.8769,-1.9244,-1.9839,-2.0376,-2.0794,-2.0909,-2.1554,-2.2432,-1.599,-1.6403,-1.692,0.0,-1.7629,-1.801,0.0,0.0,0.0,0.0,-1.9925,-2.0023,-2.0473,-2.0039,-1.9711,-1.9759,-1.9531,0.0,0.0,0.0,0.0,-1.7638,-1.7364,-1.6903,-1.6206,-1.5194,0.0,-1.4274,0.0,0.0,-1.2249,0.0,0.0,0.0,0.0,0.0,-1.4274,-1.5106,-1.5495,-1.5468,-1.5198,-1.5108,0.0,0.0,-1.5357,-1.5447,-1.5703,-1.5792,-1.5748,-1.5715,-1.5671,-1.5614,-1.539,-1.5357,-1.5267,-1.5165,-1.5062,-1.496,-1.4903,-1.488,-1.4823,-1.4756,-1.4461,-1.4209,0.0,0.0,0.0,0.0,0.0,0.0,0.0,0.0,0.0,0.0,0.0,0.0,0.0,0.0,0.0,0.0,0.0,0.0,0.0,-1.43,-1.4667,-1.4164,-1.4714,0.0,0.0,0.0,0.0,-1.5856,-1.6275,-1.6436,-1.6362,-1.6231,-1.62,-1.6144,-1.5969,-1.5836,-1.5881,-1.6238,-1.6582,-1.685,-1.7201,-1.7585,-1.7949,-1.8358,-1.8769,-1.9244,-1.9639,-2.0185,-2.081,-2.1401,-2.1895,-2.2281,-1.687,0.0,0.0,-1.8867,0.0,0.0,-1.8707,0.0,0.0,-1.9946,-1.9972,0.0,-2.0182,-1.9952,-1.9747,-1.9708,-1.9708,0.0,0.0,0.0,0.0,-1.7793,-1.7706,-1.7305,-1.6559,-1.5865,0.0,-1.4709,0.0,0.0,-1.1851,0.0,0.0,0.0,0.0,-1.3494,0.0,-1.4917,-1.533,-1.539,-1.5198,0.0,0.0,-1.5267,-1.5312,-1.5357,-1.557,-1.5659,-1.5659,-1.5715,-1.5671,-1.5614,-1.548,-1.5402,-1.5312,-1.521,-1.5028,-1.4846,-1.4846,-1.4754,-1.4673,-1.4743,-1.4586,-1.4484,-1.454,-1.4618,-1.4606,0.0,0.0,0.0,0.0,0.0,0.0,0.0,0.0,0.0,0.0,0.0,0.0,0.0,0.0,0.0,0.0,-1.397,-1.4345,-1.3791,-1.4253,0.0,0.0,0.0,0.0,-1.5658,-1.6059,-1.6325,-1.6392,-1.6318,-1.6275,-1.62,-1.6057,-1.5969,-1.5969,-1.6337,-1.6655,-1.6993,-1.7242,-1.7639,-1.8043,-1.8293,-1.8769,-1.9434,-2.012,-2.0527,-2.086,-2.1462,-2.1853,-2.2096,0.0,0.0,0.0,0.0,0.0,0.0,0.0,-1.9723,0.0,-1.9659,0.0,-2.0186,-1.9781,-1.9762,-1.9798,-1.9798,0.0,-1.961,-1.9158,-1.9407,-1.9058,-1.7695,-1.7915,-1.7618,-1.6701,-1.6502,0.0,0.0,0.0,0.0,0.0,0.0,0.0,0.0,0.0,0.0,0.0,-1.4759,-1.5312,0.0,-1.5165,-1.5108,-1.5108,-1.521,-1.5255,-1.5312,-1.5435,-1.5513,-1.5558,-1.5626,-1.557,-1.5513,-1.5614,-1.5435,-1.5255,-1.5255,-1.504,-1.4822,-1.4787,-1.4627,-1.4477,-1.4569,-1.4684,-1.4776,-1.4787,-1.4846,-1.4903,-1.4903,-1.4903,-1.496,0.0,0.0,0.0,0.0,0.0,0.0,0.0,0.0,0.0,0.0,0.0,0.0,0.0,-1.3463,-1.3755,-1.3371,0.0,0.0,0.0,0.0,0.0,-1.5119,-1.571,0.0,-1.6323,0.0,-1.6362,-1.6244,-1.62,-1.62,-1.6156,-1.6509,-1.6879,-1.7229,-1.7421,-1.7774,-1.8189,-1.8189,-1.8755,-1.9728,-2.0778,-2.1071,-2.0926,-2.123,-2.1524,-2.1853,0.0,0.0,0.0,0.0,0.0,-2.0087,-1.9557,-1.9651,-1.9907,-2.0186,-2.0038,-1.9851,-1.9813,-1.9799,-1.9798,-1.9798,-1.9798,0.0,0.0,0.0,0.0,-1.8278,-1.8316,-1.7814,-1.6701,-1.6124,-1.5517,0.0,-1.4213,-1.3,0.0,0.0,0.0,0.0,0.0,0.0,-1.4323,-1.49,0.0,-1.5424,-1.5198,-1.5108,-1.5108,-1.5108,-1.5153,-1.5153,-1.53,-1.5492,-1.5614,-1.5447,-1.5435,-1.5468,-1.5289,-1.5153,-1.5153,-1.5153,-1.5017,-1.488,-1.4822,-1.4684,-1.4569,-1.4581,-1.4627,-1.4673,-1.4776,-1.4846,-1.4903,-1.4903,-1.5006,-1.5062,-1.5108,0.0,0.0,0.0,0.0,0.0,0.0,0.0,0.0,0.0,0.0,0.0,0.0,0.0,0.0,0.0,0.0,0.0,0.0,0.0,0.0,0.0,0.0,0.0,0.0,0.0,-1.6534,-1.6362,-1.6231,-1.6069,-1.5881,-1.6349,-1.668,-1.6909,-1.7201,-1.7693,-1.8279,-1.8228,-1.8808,-1.9859,-2.0761,-2.1038,-2.0893,-2.0909,-2.1119,-2.1479,0.0,0.0,0.0,0.0,0.0,0.0,0.0,-2.0004,0.0,-2.0025,-1.9898,-1.9722,-1.9722,-1.9788,-1.9798,-1.9798,-1.9798,-1.9685,-1.9409,-1.9447,-1.9054,-1.8078,-1.804,0.0,-1.6816,-1.63,-1.572,-1.5144,-1.416,-1.2995,0.0,0.0,0.0,0.0,0.0,-1.3226,0.0,0.0,0.0,-1.5289,-1.5153,-1.5108,-1.5108,-1.5165,-1.5165,-1.5108,-1.5345,-1.548,-1.557,-1.5537,-1.5435,-1.539,-1.5334,-1.5198,-1.5108,-1.5108,-1.4983,-1.4846,-1.4846,-1.4662,-1.4523,-1.4581,-1.4627,-1.4684,-1.4684,-1.4789,-1.4903,-1.4903,-1.4949,-1.5006,-1.5108,-1.4868,0.0,0.0,0.0,0.0,0.0,0.0,0.0,0.0,0.0,0.0,0.0,0.0,0.0,0.0,0.0,0.0,0.0,0.0,0.0,0.0,0.0,0.0,0.0,0.0,0.0,-1.6436,-1.6362,-1.6231,-1.6132,-1.6667,-1.6964,-1.706,-1.7693,-1.8147,-1.845,-1.8907,-1.9427,-2.0015,-2.0793,-2.1006,-2.0893,-2.0877,-2.1039,-2.1371,0.0,-2.1499,0.0,0.0,-2.0777,0.0,0.0,-2.0315,-1.9851,-2.0044,-1.9846,-1.97,-1.97,-1.9787,-1.9798,-1.9798,-1.9698,-1.9459,-1.9008,-1.9005,-1.8583,-1.7715,-1.7721,-1.7408,-1.6846,-1.6552,-1.6076,0.0,0.0,0.0,0.0,0.0,-1.1903,-1.0951,0.0,0.0,0.0,0.0,-1.5255,-1.5198,-1.5198,-1.5198,-1.5198,-1.53,-1.53,-1.5244,-1.5468,-1.5513,-1.5513,-1.5659,-1.5525,-1.5345,-1.5379,-1.5289,-1.5108,-1.5062,-1.4937,-1.4811,-1.4823,-1.4651,-1.4477,-1.4523,-1.4673,-1.473,-1.4627,-1.4743,-1.4903,-1.4903,-1.4903,-1.5006,-1.5153,-1.5153,0.0,0.0,0.0,0.0,0.0,0.0,0.0,0.0,0.0,0.0,0.0,0.0,0.0,0.0,0.0,0.0,0.0,0.0,0.0,0.0,0.0,-1.5441,-1.5678,0.0,-1.6522,0.0,-1.6436,-1.6392,-1.6436,-1.7076,-1.7366,-1.7352,-1.8266,-1.8644,-1.8673,-1.9558,-2.0,-2.017,-2.081,-2.099,-2.0893,-2.0861,-2.1007,-2.1246,0.0,0.0,0.0,0.0,0.0,0.0,0.0,-2.007,-2.0144,-2.1099,-2.0382,-1.9774,-1.9774,-1.9825,-1.9798,-1.9798,-1.9371,-1.9033,-1.8983,-1.8555,-1.8096,-1.7702,-1.7721,-1.732,-1.6534,-1.6748,-1.63,0.0,0.0,0.0,0.0,0.0,-1.3263,-1.3153,0.0,0.0,0.0,-1.5157,-1.5345,-1.5468,-1.5468,-1.5468,-1.5468,-1.5468,-1.5468,-1.5468,-1.5614,-1.5614,-1.5513,-1.5659,-1.5614,-1.5424,-1.5198,-1.5108,-1.5062,-1.4949,-1.4903,-1.4869,-1.4662,-1.4627,-1.4581,-1.443,-1.4523,-1.4627,-1.4581,-1.4743,-1.4903,-1.4903,-1.5006,-1.5153,-1.5424,-1.5244,-1.5142,0.0,0.0,0.0,0.0,0.0,0.0,0.0,0.0,0.0,0.0,0.0,0.0,0.0,0.0,0.0,0.0,0.0,0.0,-1.3953,0.0,-1.5413,-1.5248,-1.6185,0.0,-1.6522,-1.6479,-1.6479,-1.6436,-1.7269,-1.7612,-1.7585,-1.8422,-1.8851,-1.9017,-1.9747,-2.01,-2.0135,-2.0697,-2.0893,-2.0893,-2.0811,-2.0827,-2.0893,0.0,0.0,0.0,0.0,0.0,0.0,0.0,-2.0539,-2.0156,-2.1055,-2.0207,-1.9565,-1.9565,-1.9565,-1.9565,-1.9565,-1.9283,-1.8931,-1.8555,-1.8143,-1.7676,-1.7117,-1.7222,-1.7063,-1.6522,-1.6491,-1.6164,0.0,0.0,0.0,0.0,0.0,0.0,0.0,0.0,-1.4693,-1.4685,-1.5313,-1.5525,-1.5513,-1.5513,-1.5513,-1.5513,-1.5513,-1.5424,-1.539,-1.5525,-1.548,-1.539,-1.5447,-1.5435,-1.5345,-1.5255,-1.5165,-1.5062,-1.496,-1.4903,-1.4858,-1.4777,-1.4708,-1.4627,-1.4627,-1.4684,-1.473,-1.473,-1.4891,-1.5006,-1.5006,-1.5062,-1.5108,-1.5244,-1.5153,-1.5108,0.0,0.0,0.0,0.0,0.0,0.0,0.0,0.0,0.0,0.0,0.0,0.0,0.0,0.0,-1.2334,-1.2329,0.0,0.0,-1.3367,0.0,-1.5311,-1.521,-1.6106,-1.6565,-1.6522,-1.6522,-1.665,-1.6905,-1.7352,-1.7868,-1.833,-1.876,-1.8965,-1.9116,-1.9654,-1.994,-2.0096,-2.0444,-2.0712,-2.086,-2.0827,-2.0794,-2.086,-2.2948,0.0,-2.2189,0.0,-2.1389,-2.101,-2.1805,-2.066,-1.9901,-2.0547,-1.9798,-1.9198,-1.9251,-1.9368,-1.9368,-1.9316,-1.9033,-1.8606,-1.8074,-1.7559,-1.708,-1.6645,-1.6748,0.0,-1.6337,-1.6275,-1.61,-1.5748,-1.542,0.0,0.0,-1.4862,0.0,0.0,-1.4903,-1.4959,-1.4896,-1.5416,-1.557,-1.5513,-1.5513,-1.5513,-1.5558,-1.5558,-1.5525,-1.5435,-1.557,-1.548,-1.5345,-1.5345,-1.53,-1.5255,-1.5255,-1.5165,-1.5062,-1.496,-1.4903,-1.4915,-1.488,-1.4754,-1.4627,-1.473,-1.4776,-1.4787,-1.4787,-1.4949,-1.5108,-1.5108,-1.5108,-1.5108,-1.5108,-1.5108,-1.5108,-1.5062,0.0,0.0,0.0,0.0,0.0,0.0,0.0,-1.3177,0.0,0.0,0.0,0.0,0.0,-1.2243,-1.255,0.0,0.0,0.0,0.0,0.0,0.0,-1.6052,-1.6552,-1.6637,-1.6637,-1.6892,-1.7323,-1.7639,-1.8147,-1.8745,-1.8965,-1.9003,-1.9049,-1.9435,-1.9777,-2.0041,-2.0289,-2.0545,-2.0794,-2.0794,-2.0794,-2.086,-2.364,-2.3077,-2.2509,-2.2231,-2.1623,-2.1175,-2.1229,-2.0169,-1.9512,-1.9798,-1.9133,-1.8721,-1.8999,-1.9263,-1.9316,-1.904,-1.8425,-1.7894,-1.7642,-1.6745,-1.6287,0.0,0.0,-1.6262,-1.5988,-1.6262,-1.6188,-1.5715,0.0,0.0,-1.5013,-1.5115,-1.535,-1.5691,-1.5736,-1.5748,-1.5659,-1.5558,-1.5513,-1.5513,-1.5513,-1.557,-1.5715,-1.5715,-1.576,-1.5792,-1.5792,-1.5659,-1.5513,-1.5513,-1.5334,-1.5108,-1.5108,-1.5108,-1.5062,-1.496,-1.4903,-1.4869,-1.4811,-1.4684,-1.4581,-1.4581,-1.4684,-1.4787,-1.4787,-1.4949,-1.5108,-1.5108,-1.5108,-1.5108,-1.5108,-1.5108,-1.5062,-1.4903,0.0,0.0,0.0,0.0,0.0,0.0,0.0,-1.3557,-1.2957,0.0,0.0,0.0,0.0,0.0,0.0,0.0,0.0,-1.3881,-1.479,0.0,-1.521,-1.6052,-1.668,-1.6993,-1.6993,-1.716,-1.7516,-1.8187,-1.8539,-1.863,-1.8936,-1.8988,-1.8822,-1.9228,-1.9632,-2.0041,-2.0289,-2.0545,-2.0794,-2.0794,-2.0794,-2.0794,-2.2621,-2.2358,-2.2137,-2.2417,-2.1623,-2.114,-2.1554,-2.0321,-1.942,-1.9759,-1.9198,-1.8679,-1.8572,-1.8732,-1.8827,0.0,-1.8401,-1.814,0.0,-1.7178,-1.6683,-1.6663,-1.6516,-1.6262,-1.6001,-1.6088,-1.6001,-1.5715,0.0,0.0,0.0,-1.5485,-1.5492,-1.5715,-1.5614,-1.5614,-1.5715,-1.5659,-1.5659,-1.5691,-1.5691,-1.5748,-1.5748,-1.5715,-1.5703,-1.5724,-1.5647,-1.5558,-1.5468,-1.539,-1.53,-1.521,-1.5108,-1.5108,-1.5062,-1.496,-1.496,-1.5006,-1.488,-1.4834,-1.4789,-1.4776,-1.48,-1.4846,-1.4822,-1.4949,-1.5108,-1.5108,-1.5108,-1.5108,-1.5108,-1.5108,-1.5108,-1.5051,-1.5153,0.0,0.0,0.0,0.0,0.0,0.0,-1.3898,0.0,-1.3775,0.0,0.0,0.0,0.0,0.0,0.0,0.0,0.0,-1.4618,0.0,-1.521,-1.6052,-1.6552,-1.668,-1.6879,-1.7338,-1.7975,-1.8475,-1.876,-1.8851,-1.8874,-1.9209,-1.9705,-1.9971,-2.0311,-2.0643,-2.0952,-2.0967,-2.0857,-2.1316,-2.1189,-2.089,-2.2207,-2.1787,-2.1396,-2.1636,-2.1091,-2.0696,-2.1042,-2.0003,-1.9316,-1.9617,-1.9093,-1.8679,-1.8464,-1.8518,0.0,-1.841,-1.8246,-1.8154,-1.8001,-1.7339,-1.6869,-1.6642,-1.6636,-1.6466,-1.6158,0.0,0.0,-1.5956,-1.5843,-1.5792,-1.5812,-1.5647,-1.5614,-1.5715,-1.5659,-1.5659,-1.576,-1.5715,-1.5715,-1.5748,-1.5703,-1.5703,-1.5748,-1.5715,-1.5703,-1.5724,-1.5647,-1.5558,-1.5468,-1.539,-1.53,-1.521,-1.5108,-1.5108,-1.5062,-1.5006,-1.5051,-1.5062,-1.5006,-1.496,-1.4869,-1.4822,-1.4811,-1.4834,-1.4846,-1.4983,-1.5108,-1.5108,-1.5017,-1.4971,-1.4971,-1.488,-1.488,-1.5062,-1.5108,-1.5153,-1.5244,0.0,0.0,0.0,0.0,0.0,0.0,-1.4891,0.0,0.0,0.0,0.0,0.0,0.0,0.0,-1.3592,-1.4712,0.0,-1.5427,-1.6153,-1.6552,-1.668,-1.716,-1.7747,-1.8425,-1.8736,-1.8889,-1.8927,-1.895,-1.9349,-1.9955,-2.0177,-2.0697,-2.1341,-2.1528,-2.1595,-2.1632,-2.2058,-2.1948,-2.17,-2.2196,-2.1352,0.0,0.0,-2.0105,0.0,-1.9991,-1.9448,-1.9093,-1.9316,-1.8934,-1.8614,-1.8614,-1.8464,-1.8367,-1.8139,0.0,0.0,0.0,-1.7272,-1.6855,-1.6504,-1.6822,-1.6822,-1.6432,-1.6408,-1.6396,-1.636,-1.5942,-1.5659,-1.5513,-1.5659,-1.5715,-1.5715,-1.5748,-1.5792,-1.5792,-1.5715,-1.5715,-1.5715,-1.5558,-1.5614,-1.5715,-1.5671,-1.5695,-1.5775,-1.5763,-1.5617,-1.5482,-1.5472,-1.5279,-1.5063,-1.5063,-1.5063,-1.5051,-1.5074,-1.5062,-1.5108,-1.5062,-1.5006,-1.4915,-1.4811,-1.4822,-1.4811,-1.4823,-1.496,-1.5062,-1.5006,-1.4789,-1.4605,-1.4605,-1.4477,-1.4512,-1.4971,-1.5062,-1.5142,-1.5377,0.0,0.0,0.0,0.0,0.0,0.0,-1.597,-1.6348,0.0,0.0,0.0,0.0,0.0,-1.3638,-1.4576,-1.509,-1.5492,-1.5802,-1.6288,-1.668,-1.7034,-1.7707,-1.8279,-1.8822,-1.8941,-1.8941,-1.886,-1.9139,-1.9464,-1.9767,-2.0092,-2.0931,-2.1994,-2.2078,-2.2446,-2.2932,-2.2927,-2.2927,-2.2952,0.0,0.0,-2.0105,-2.0459,-2.0156,-1.985,-1.985,-1.9344,-1.904,-1.9105,-1.8987,-1.8893,-1.8732,-1.8625,-1.8506,-1.8506,-1.824,-1.8074,-1.7966,-1.7653,-1.7419,-1.7342,-1.7123,-1.6822,-1.6432,-1.6408,-1.6264,-1.5927,-1.5808,-1.5748,-1.5748,-1.5748,-1.5792,-1.5748,-1.576,-1.576,-1.5792,-1.5715,-1.5715,-1.5748,-1.5748,-1.5748,-1.576,-1.5369,-1.5441,-1.564,-1.5218,-1.5089,-1.5108,-1.5114,-1.4956,-1.4725,-1.4618,-1.4569,-1.4602,-1.468,-1.4891,-1.5062,-1.48,-1.4891,-1.5006,-1.4926,-1.488,-1.4789,-1.4455,-1.4455,-1.4466,-1.4035,-1.3894,-1.3847,-1.3847,-1.3905,-1.4093,-1.4512,-1.4662,-1.4722,-1.4658,-1.4653,0.0,0.0,-1.5131,-1.5471,-1.6395,-1.6648,-1.6587,0.0,0.0,0.0,0.0,-1.4874,-1.4663,-1.4615,-1.5299,-1.5716,-1.5815,-1.6288,-1.6808,-1.7393,-1.7707,-1.824,-1.8941,-1.904,-1.9191,-1.9413,-1.9213,-1.954,-2.0284,-2.1201,-2.1711,-2.2078,-2.3087,-2.3227,-2.2943,-2.348,-2.3338,-2.2995,-2.0156,-1.9798,-1.9552,-1.9798,-1.9656,-1.9448,-1.9448,-1.9198,-1.8987,-1.8987,-1.8987,-1.8999,-1.8893,-1.8786,-1.8679,-1.8679,-1.841,-1.8259,-1.8259,-1.8058,-1.7856,-1.7612,-1.7618,-1.744,-1.6961,-1.695,-1.6751,-1.6372,-1.6168,-1.6095,-1.6095,-1.59,-1.5792,-1.5792,-1.5748,-1.5748,-1.5792,-1.5525,-1.5435,-1.5468,-1.5187,-1.5234,-1.5394,-1.5137,-1.5284,-1.5615,-1.5275,-1.5049,-1.4941,-1.5068,-1.4723,-1.4306,-1.4369,-1.4345,-1.4222,-1.4063,-1.4419,-1.4846,-1.4673,-1.4708,-1.4697,-1.4305,-1.4212,-1.4165,-1.3884,-1.3941,-1.3952,-1.3763,-1.361,-1.3515,-1.3515,-1.3515,-1.3658,-1.4071,-1.414,-1.4193,-1.4339,-1.4204,0.0,-1.4958,-1.4938,-1.5362,-1.6527,-1.6637,-1.6553,-1.6414,0.0,0.0,-1.5569,-1.5732,-1.5631,-1.5259,-1.5578,-1.5888,-1.6111,-1.6371,-1.6765,-1.7256,-1.7557,-1.8002,-1.8697,-1.8988,-1.9265,-1.9487,-1.9398,-1.9767,-2.0439,-2.0974,-2.1458,-2.197,-2.2632,-2.2823,-2.2849,-2.3595,-2.3611,-2.3427,-1.9592,-1.9291,-1.8987,-1.8987,-1.8987,-1.8987,-1.8987,-1.8987,-1.8987,-1.8987,-1.8987,-1.8987,-1.8987,-1.8893,-1.8851,-1.8851,-1.8583,-1.8476,-1.8422,-1.8422,-1.8223,-1.7792,-1.8189,-1.8177,-1.7664,-1.7583,-1.7377,-1.702,-1.6669,-1.6444,-1.6408,-1.6071,-1.582,-1.5703,-1.5832,-1.5855,-1.5778,-1.5441,-1.5291,-1.5245,-1.4689,-1.474,-1.5083,-1.4999,-1.5245,-1.5593,-1.5468,-1.516,-1.4856,-1.507,-1.4664,-1.4014,-1.4262,-1.4125,-1.3826,-1.3478,-1.3894,-1.443,-1.443,-1.4384,-1.4186,-1.3563,-1.3467,-1.342,-1.3324,-1.342,-1.3515,-1.3573,-1.343,-1.3276,-1.3276,-1.318,-1.3266,-1.3637,-1.3647,-1.3732,-1.416,0.0,-1.3937,-1.4699,-1.4693,-1.5038,-1.6145,-1.6324,-1.6497,-1.6846,-1.6761,-1.6545,0.0,-1.6384,-1.6351,-1.6102,-1.5954,-1.6086,-1.6509,-1.6522,-1.668,-1.7076,-1.738,-1.7828,-1.8383,-1.8936,-1.925,-1.9413,-1.9617,-1.9945,-2.0277,-2.025,-2.0798,-2.1672,-2.1762,-2.2118,-2.2702,-2.3371,-2.3629,-2.3746,-1.9093,-1.904,-1.8987,-1.8987,-1.8987,-1.8987,-1.8987,-1.8987,-1.8987,-1.8987,-1.8987,-1.8987,-1.8987,-1.8999,-1.8999,-1.8999,-1.8839,-1.8691,-1.8572,-1.856,-1.8525,-1.8442,-1.8525,-1.8378,-1.7922,-1.7485,-1.7225,-1.7191,-1.6987,-1.6716,-1.6408,-1.6337,-1.5926,-1.5222,-1.5961,-1.6103,-1.5751,-1.6003,-1.6135,-1.6074,-1.5593,-1.5448,-1.544,-1.5088,-1.5172,-1.5434,-1.4954,-1.4794,-1.4804,-1.4974,-1.4538,-1.3936,-1.3951,-1.374,-1.3421,-1.3377,-1.3515,-1.361,-1.361,-1.3836,-1.3978,-1.3658,-1.3668,-1.3573,-1.2958,-1.2939,-1.2977,-1.2608,-1.2569,-1.2618,-1.2618,-1.2725,-1.291,-1.3266,-1.3362,-1.3523,-1.3692,0.0,-1.3903,-1.4192,-1.4718,-1.5327,-1.5976,-1.6522,-1.6791,-1.6718,-1.6718,-1.6637,-1.6439,-1.6471,-1.6484,-1.6439,-1.6384,-1.6434,-1.6522,-1.6522,-1.6808,-1.7434,-1.7639,-1.8068,-1.8745,-1.9221,-1.9457,-1.9493,-1.9654,-1.9728,-1.9768,-2.0287,-2.076,-2.1196,-2.185,-2.2399,-2.2765,-2.2786,-2.278,-2.2795,-1.8987,-1.8987,-1.8987,-1.8987,-1.8987,-1.8987,-1.8987,-1.8987,-1.8987,-1.8987,-1.8987,-1.8987,-1.8987,-1.8987,-1.8987,-1.8987,-1.8946,-1.8893,-1.8827,-1.8732,-1.8679,-1.8614,-1.8679,-1.8573,-1.8324,-1.8088,-1.7958,-1.7958,-1.7623,-1.7364,-1.7166,-1.6882,-1.6526,-1.6125,-1.655,-1.6451,-1.6033,-1.597,-1.5753,-1.5485,-1.5008,-1.4954,-1.5134,-1.4934,-1.5107,-1.5392,-1.5117,-1.4914,-1.4853,-1.5061,-1.4484,-1.3723,-1.384,-1.3526,-1.3075,-1.3115,-1.3286,-1.3362,-1.3314,-1.3228,-1.3132,-1.2949,-1.29,-1.2803,-1.2471,-1.2461,-1.2501,-1.2421,-1.248,-1.2529,-1.2578,-1.2725,-1.2822,-1.29,-1.3045,0.0,0.0,-1.3344,-1.3575,-1.3807,-1.4255,-1.4858,-1.5635,-1.6001,-1.6262,-1.6577,-1.6577,-1.6577,-1.6522,-1.6522,-1.6522,-1.6522,-1.6522,-1.6522,-1.6522,-1.6522,-1.6693,-1.7073,-1.7639,-1.8068,-1.8383,-1.9221,-1.953,-1.9472,-1.9654,-1.9654,-1.9516,-1.9797,-1.999,-2.0131,-2.0654,-2.0996,-2.126,-2.1848,-2.2025,-2.1999,-1.8987,-1.8987,-1.8987,-1.8987,-1.8987,-1.8987,-1.8987,-1.8987,-1.8987,-1.8987,-1.8987,-1.8987,-1.8987,-1.8987,-1.8987,-1.8987,-1.8987,-1.8987,-1.8987,-1.8893,-1.8786,-1.8721,-1.8786,-1.8786,-1.8721,-1.8667,-1.8679,-1.8679,-1.8213,-1.785,-1.7618,-1.7233,-1.6827,-1.6512,-1.6738,-1.6531,-1.6093,-1.5848,-1.5521,-1.5126,-1.4587,-1.4629,-1.4932,-1.4932,-1.5127,-1.541,-1.541,-1.5205,-1.498,-1.5148,-1.4596,-1.3848,-1.3903,-1.352,-1.3008,-1.291,-1.3104,-1.3276,-1.318,-1.2852,-1.2529,-1.2382,-1.2283,-1.2175,-1.2126,-1.2126,-1.2175,-1.2421,-1.248,-1.2578,-1.2676,-1.2832,-1.2881,-1.2783,0.0,0.0,0.0,-1.3084,-1.3314,-1.3573,-1.3915,-1.4419,-1.5187,-1.5424,-1.5736,-1.6349,-1.638,-1.6436,-1.6522,-1.6522,-1.6522,-1.6522,-1.6522,-1.6522,-1.6522,-1.6522,-1.6705,-1.6918,-1.7639,-1.8028,-1.8226,-1.9147,-1.9508,-1.9413,-1.9632,-1.9596,-1.9428,-1.9265,-1.9339,-1.9487,-1.9581,-1.9782,-2.0076,-2.098,-2.1237,-2.1228,-1.8987,-1.8987,-1.8987,-1.8987,-1.8987,-1.8987,-1.8987,-1.8987,-1.8987,-1.8987,-1.8987,-1.8987,-1.8987,-1.8987,-1.8987,-1.8987,-1.8987,-1.8987,-1.8987,-1.8987,-1.8999,-1.8987,-1.8999,-1.8999,-1.8987,-1.8839,-1.8798,-1.8798,-1.8632,-1.8042,-1.716,-1.7126,-1.6376,-1.5091,-1.5892,-1.5987,-1.5594,-1.6048,-1.6156,-1.5955,-1.5496,-1.5332,-1.5371,-1.5371,-1.5381,-1.541,-1.541,-1.5391,-1.5371,-1.54,-1.5098,-1.4629,-1.4194,-1.3828,-1.3379,-1.2998,-1.2929,-1.292,-1.2929,-1.2881,-1.2832,-1.2529,-1.248,-1.2431,-1.2175,-1.2175,-1.2274,-1.2323,-1.2529,-1.2686,-1.2676,-1.2832,-1.2881,-1.2881,0.0,0.0,-1.3122,-1.317,-1.3314,-1.3573,-1.4129,-1.4501,-1.4593,-1.5153,-1.5647,-1.5988,-1.6032,-1.6163,-1.6466,-1.6522,-1.6522,-1.6522,-1.6522,-1.6522,-1.6522,-1.662,-1.6989,-1.7639,-1.776,-1.8147,-1.8745,-1.9011,-1.9228,-1.9413,-1.9413,-1.9501,-1.9538,-1.9182,-1.9391,-1.9919,-1.956,-1.9833,-2.0426,-2.0419,-2.0381,-2.0381,-1.9059,-1.8987,-1.8987,-1.8987,-1.8987,-1.8987,-1.8987,-1.8987,-1.8987,-1.8987,-1.8987,-1.8987,-1.8987,-1.8987,-1.8881,-1.8483,-1.8429,-1.8267,-1.7929,-1.7863,-1.8201,-1.8987,-1.8655,-1.8429,-1.8429,-1.805,-1.7831,-1.7831,-1.7667,-1.7412,-1.7016,-1.6972,-1.6611,-1.6111,-1.6401,-1.6318,-1.5879,-1.6197,-1.6029,-1.5642,-1.5468,-1.541,-1.541,-1.541,-1.541,-1.541,-1.541,-1.541,-1.541,-1.541,-1.5127,-1.4756,-1.459,-1.4248,-1.3818,-1.35,-1.3244,-1.3027,-1.3027,-1.2881,-1.2725,-1.2529,-1.2431,-1.2332,-1.2126,-1.2126,-1.2175,-1.2274,-1.2382,-1.248,-1.2686,-1.2735,-1.2783,-1.2881,0.0,-1.292,-1.3007,-1.3007,-1.3152,-1.3573,-1.38,-1.4129,-1.4686,-1.4994,-1.5277,-1.5647,-1.5856,-1.6044,-1.6163,-1.6392,-1.6522,-1.6522,-1.6522,-1.6522,-1.662,-1.6675,-1.6876,-1.7282,-1.7612,-1.8054,-1.85,-1.8959,-1.9236,-1.9413,-1.9596,-1.9596,-1.9465,-1.9391,-1.9391,-1.9472,-1.9669,-1.9884,-2.0045,-2.0323,-2.0407,-2.0354,-1.9275,-1.9107,-1.8987,-1.8987,-1.8987,-1.8934,-1.8762,-1.8709,-1.8655,-1.8483,-1.8429,-1.8429,-1.8429,-1.8429,-1.8267,-1.7863,-1.782,-1.7644,-1.7257,-1.7202,-1.7589,-1.8375,-1.8038,-1.782,-1.782,-1.7424,-1.7202,-1.7202,-1.7101,-1.6944,-1.6775,-1.6673,-1.6513,-1.6343,-1.6343,-1.6171,-1.5884,-1.5961,-1.5778,-1.541,-1.541,-1.541,-1.541,-1.541,-1.541,-1.541,-1.541,-1.541,-1.541,-1.541,-1.5215,-1.4961,-1.4824,-1.4394,-1.3929,-1.3748,-1.3412,-1.3113,-1.3133,-1.2988,-1.2783,-1.2627,-1.248,-1.2332,-1.2175,-1.2126,-1.2126,-1.2224,-1.2274,-1.2382,-1.2578,-1.2676,-1.2735,-1.2881,-1.2881,-1.2881,-1.2881,-1.2881,-1.3065,-1.342,-1.3467,-1.38,-1.4547,-1.464,-1.4777,-1.5232,-1.5635,-1.5944,-1.6163,-1.6392,-1.6522,-1.6522,-1.6522,-1.6565,-1.6675,-1.6718,-1.6876,-1.7102,-1.7571,-1.7935,-1.8279,-1.8846,-1.9161,-1.9339,-1.9581,-1.9617,-1.9487,-1.9538,-1.9508,-1.9508,-2.0074,-2.0208,-2.0131,-2.0659,-2.068,-2.0407,-1.9562,-1.9348,-1.8987,-1.8987,-1.8987,-1.8762,-1.8201,-1.8093,-1.7863,-1.7257,-1.7202,-1.7202,-1.7202,-1.7202,-1.7202,-1.7202,-1.7202,-1.7202,-1.7202,-1.7202,-1.7202,-1.7202,-1.7202,-1.7202,-1.7202,-1.7202,-1.7202,-1.7202,-1.7202,-1.6866,-1.6301,-1.6301,-1.5968,-1.541,-1.541,-1.541,-1.541,-1.541,-1.541,-1.541,-1.541,-1.541,-1.541,-1.541,-1.541,-1.541,-1.541,-1.541,-1.541,-1.541,-1.541,-1.5342,-1.4922,-1.4316,-1.3719,-1.3729,-1.3491,-1.318,-1.3123,-1.3085,-1.3036,-1.2783,-1.2578,-1.248,-1.2323,-1.2175,-1.2076,-1.2076,-1.2224,-1.2323,-1.248,-1.2627,-1.2735,-1.2881,-1.2881,-1.2881,-1.2881,-1.2881,-1.2968,-1.317,-1.3218,-1.3409,-1.3973,-1.402,-1.4186,-1.4663,-1.5175,-1.578,-1.6479,-1.6466,-1.6522,-1.6522,-1.6522,-1.6565,-1.6675,-1.6846,-1.7018,-1.7312,-1.7585,-1.7882,-1.8189,-1.8606,-1.8898,-1.9101,-1.9384,-1.9566,-1.969,-1.9487,-1.9711,-2.0235,-2.0704,-2.0839,-2.084,-2.1412,-2.112,-2.0494,-1.7611,-1.7334,-1.7169,-1.7357,-1.7413,-1.7413,-1.7479,-1.7246,-1.7079,-1.6856,-1.6676,-1.662,-1.6856,-1.6856,-1.6743,-1.6585,-1.6585,-1.6358,-1.5968,-1.5911,-1.5911,-1.5911,-1.6358,-1.6585,-1.6585,-1.614,-1.5911,-1.5911,-1.5911,-1.5853,-1.569,-1.569,-1.5584,-1.541,-1.541,-1.541,-1.541,-1.541,-1.541,-1.541,-1.541,-1.541,-1.541,-1.541,-1.541,-1.541,-1.541,-1.541,-1.541,-1.541,-1.541,-1.5391,-1.5264,-1.4641,-1.4013,-1.4232,-1.3832,-1.3324,-1.318,-1.3162,-1.3036,-1.2783,-1.2686,-1.2627,-1.248,-1.2431,-1.2382,-1.2382,-1.2421,-1.248,-1.2627,-1.2676,-1.2735,-1.2881,-1.2881,-1.2881,-1.2881,-1.2881,-1.2968,-1.317,-1.3372,-1.3621,-1.3973,-1.4104,-1.4176,-1.4351,-1.464,-1.513,-1.5976,-1.602,-1.6151,-1.6479,-1.6522,-1.6565,-1.6675,-1.6876,-1.6989,-1.7102,-1.7378,-1.7747,-1.8202,-1.8307,-1.8644,-1.9101,-1.9325,-1.9362,-1.9288,-1.9339,-1.9435,-1.9596,-1.9993,-2.0198,-2.0373,-2.0811,-2.0832,-2.061,-1.6984,-1.6747,-1.6507,-1.6676,-1.6687,-1.6687,-1.6574,-1.6404,-1.6167,-1.5891,-1.5776,-1.5833,-1.5891,-1.5958,-1.5968,-1.5806,-1.5806,-1.57,-1.5362,-1.5362,-1.541,-1.541,-1.5748,-1.5911,-1.5911,-1.5584,-1.541,-1.541,-1.541,-1.541,-1.541,-1.541,-1.541,-1.541,-1.541,-1.541,-1.541,-1.541,-1.541,-1.541,-1.541,-1.541,-1.541,-1.541,-1.541,-1.541,-1.541,-1.541,-1.541,-1.541,-1.5294,-1.5177,-1.5352,-1.4821,-1.4235,-1.444,-1.4114,-1.3644,-1.3364,-1.319,-1.3104,-1.2929,-1.2783,-1.2676,-1.2578,-1.2529,-1.248,-1.248,-1.248,-1.2529,-1.2676,-1.2676,-1.2735,-1.2881,-1.2881,-1.2881,-1.2881,-1.2881,-1.2968,-1.3238,-1.3372,-1.3573,-1.3973,-1.4057,-1.4129,-1.4316,-1.4408,-1.4858,-1.5744,-1.5788,-1.602,-1.6479,-1.6522,-1.6565,-1.6675,-1.6876,-1.7002,-1.7002,-1.7212,-1.7502,-1.7828,-1.8135,-1.8528,-1.886,-1.9228,-1.9339,-1.9213,-1.9302,-1.9398,-1.956,-2.0032,-2.0274,-2.0388,-2.0805,-2.0879,-2.0711,-1.7063,-1.6801,-1.6461,-1.6518,-1.6518,-1.6291,-1.5671,-1.5497,-1.5264,-1.4588,-1.4725,-1.4843,-1.4715,-1.4843,-1.497,-1.497,-1.5088,-1.5156,-1.5156,-1.5313,-1.5352,-1.5352,-1.5352,-1.5352,-1.5352,-1.541,-1.541,-1.541,-1.541,-1.541,-1.541,-1.541,-1.541,-1.541,-1.541,-1.541,-1.541,-1.541,-1.541,-1.541,-1.541,-1.541,-1.541,-1.541,-1.5352,-1.5352,-1.5352,-1.5352,-1.5352,-1.541,-1.5099,-1.4718,-1.5225,-1.485,-1.4277,-1.4409,-1.4162,-1.3841,-1.3387,-1.317,-1.3084,-1.2968,-1.2774,-1.2627,-1.2676,-1.2627,-1.2529,-1.2529,-1.2529,-1.2578,-1.2676,-1.2725,-1.2783,-1.2881,-1.2881,-1.2881,-1.2881,-1.2881,-1.3027,-1.3316,-1.3286,-1.3467,-1.3915,-1.3868,-1.3999,-1.4408,-1.4373,-1.4731,-1.5656,-1.57,-1.5976,-1.6436,-1.6479,-1.6577,-1.6718,-1.6918,-1.7002,-1.7002,-1.717,-1.724,-1.7323,-1.8121,-1.85,-1.8592,-1.9139,-1.9339,-1.9339,-1.9339,-1.9508,-1.9812,-2.0533,-2.0819,-2.0816,-2.1288,-2.1252,-2.0984,-1.5046,-1.4871,-1.4697,-1.4923,-1.4982,-1.4991,-1.5128,-1.4883,-1.4697,-1.4529,-1.43,-1.4309,-1.4529,-1.4597,-1.4715,-1.497,-1.5039,-1.5039,-1.5039,-1.5088,-1.5088,-1.5088,-1.5088,-1.5088,-1.5088,-1.5303,-1.541,-1.541,-1.541,-1.541,-1.541,-1.541,-1.5478,-1.5614,-1.5478,-1.5478,-1.5614,-1.5478,-1.541,-1.541,-1.541,-1.541,-1.541,-1.541,-1.5177,-1.4824,-1.4824,-1.4824,-1.4883,-1.5294,-1.4965,-1.4525,-1.5197,-1.4612,-1.3723,-1.3849,-1.3275,-1.2565,-1.2283,-1.2215,-1.2166,-1.2026,-1.1977,-1.2076,-1.2725,-1.2832,-1.2832,-1.2832,-1.2832,-1.2832,-1.2832,-1.2881,-1.2881,-1.2881,-1.2881,-1.2881,-1.2881,-1.2881,-1.2929,-1.2978,-1.343,-1.3705,-1.3668,-1.3868,-1.3962,-1.3952,-1.3858,-1.4082,-1.4766,-1.5096,-1.5501,-1.6076,-1.6448,-1.6705,-1.6846,-1.696,-1.7002,-1.7002,-1.7225,-1.7597,-1.7989,-1.8189,-1.8528,-1.8988,-1.9055,-1.904,-1.895,-1.9055,-1.9153,-1.9325,-2.002,-2.0645,-2.1228,-2.1686,-2.209,-2.2359,-1.4497,-1.4378,-1.4318,-1.4497,-1.4488,-1.4547,-1.4625,-1.4497,-1.4369,-1.424,-1.424,-1.43,-1.4369,-1.4478,-1.4538,-1.4684,-1.4784,-1.4843,-1.4843,-1.497,-1.497,-1.497,-1.497,-1.497,-1.497,-1.5137,-1.5196,-1.5196,-1.5254,-1.5313,-1.5313,-1.5362,-1.5536,-1.5672,-1.5604,-1.5604,-1.5672,-1.5303,-1.5118,-1.5059,-1.4824,-1.4893,-1.5059,-1.4824,-1.4883,-1.5001,-1.4765,-1.4715,-1.4715,-1.4715,-1.4332,-1.3902,-1.4523,-1.4038,-1.3257,-1.3368,-1.2965,-1.2398,-1.2068,-1.1918,-1.1877,-1.1819,-1.1728,-1.1819,-1.2224,-1.2332,-1.2332,-1.2234,-1.2224,-1.2224,-1.2116,-1.2067,-1.2067,-1.2067,-1.2529,-1.2881,-1.2881,-1.2881,-1.2968,-1.32,-1.3344,-1.3478,-1.3668,-1.3821,-1.3915,-1.3915,-1.3821,-1.4046,-1.4582,-1.4812,-1.522,-1.6001,-1.6318,-1.659,-1.6876,-1.696,-1.7044,-1.7115,-1.7253,-1.7461,-1.7733,-1.7895,-1.8214,-1.8644,-1.8644,-1.8721,-1.8822,-1.8889,-1.8927,-1.8988,-1.9398,-2.0044,-2.0788,-2.1239,-2.205,-2.2785,-1.4515,-1.4515,-1.4515,-1.4515,-1.4515,-1.4455,-1.4327,-1.4327,-1.4267,-1.4139,-1.4309,-1.4488,-1.4327,-1.4428,-1.4488,-1.4327,-1.4547,-1.4656,-1.4656,-1.4852,-1.4911,-1.4911,-1.4911,-1.4852,-1.4734,-1.4725,-1.4852,-1.497,-1.5088,-1.5156,-1.5156,-1.5245,-1.5362,-1.5556,-1.5498,-1.5488,-1.5439,-1.4951,-1.4775,-1.4715,-1.4309,-1.4359,-1.4715,-1.43,-1.4538,-1.5001,-1.4588,-1.441,-1.43,-1.407,-1.37,-1.339,-1.3821,-1.3528,-1.2922,-1.2946,-1.2729,-1.2366,-1.1875,-1.1713,-1.1678,-1.1678,-1.1578,-1.1469,-1.1469,-1.1628,-1.1678,-1.1578,-1.1528,-1.1469,-1.1259,-1.12,-1.12,-1.12,-1.1968,-1.2627,-1.2725,-1.2832,-1.2968,-1.318,-1.3055,-1.321,-1.3763,-1.3858,-1.3915,-1.401,-1.402,-1.4186,-1.4571,-1.4652,-1.5028,-1.5812,-1.6088,-1.6405,-1.6778,-1.6947,-1.7073,-1.7199,-1.7199,-1.724,-1.7282,-1.7557,-1.7922,-1.8268,-1.8279,-1.85,-1.8784,-1.8784,-1.8784,-1.8822,-1.9003,-1.9546,-2.0289,-2.0892,-2.1873,-2.2857,-1.4515,-1.4515,-1.4515,-1.4515,-1.4515,-1.4506,-1.4455,-1.4446,-1.4455,-1.4455,-1.4446,-1.4506,-1.4446,-1.4506,-1.4506,-1.4446,-1.4506,-1.4506,-1.4506,-1.4565,-1.4575,-1.4575,-1.4575,-1.4318,-1.3692,-1.3692,-1.4121,-1.497,-1.5029,-1.5039,-1.5029,-1.4902,-1.4893,-1.5088,-1.4775,-1.4647,-1.4656,-1.4419,-1.4547,-1.4893,-1.4775,-1.4834,-1.4893,-1.4775,-1.4291,-1.3571,-1.3502,-1.3216,-1.2981,-1.3769,-1.37,-1.339,-1.3821,-1.3415,-1.2722,-1.2622,-1.1921,-1.1134,-1.0931,-1.0797,-1.0675,-1.0675,-1.0667,-1.0667,-1.0667,-1.1226,-1.1669,-1.1678,-1.1578,-1.1469,-1.1469,-1.1309,-1.12,-1.12,-1.1309,-1.156,-1.1909,-1.252,-1.2578,-1.1651,-1.2608,-1.3498,-1.3847,-1.4035,-1.4129,-1.4176,-1.4057,-1.4057,-1.4269,-1.4525,-1.4801,-1.504,-1.5832,-1.6324,-1.6367,-1.6892,-1.7199,-1.7199,-1.7199,-1.7352,-1.7639,-1.7679,-1.8002,-1.8553,-1.8383,-1.85,-1.8784,-1.8784,-1.8784,-1.886,-1.9273,-1.9908,-2.0752,-2.2003,-2.2697,-2.3,-1.3941,-1.4258,-1.4515,-1.4515,-1.4515,-1.4515,-1.4515,-1.4515,-1.4515,-1.4515,-1.4515,-1.4515,-1.4515,-1.4515,-1.4327,-1.395,-1.4267,-1.4327,-1.395,-1.3941,-1.4139,-1.4455,-1.413,-1.401,-1.407,-1.407,-1.407,-1.4181,-1.3932,-1.3743,-1.3743,-1.3743,-1.4043,-1.4529,-1.4025,-1.3965,-1.4282,-1.3554,-1.3312,-1.3425,-1.313,-1.3191,-1.3425,-1.3139,-1.3078,-1.3078,-1.2826,-1.2589,-1.2474,-1.2789,-1.2789,-1.2666,-1.2972,-1.2744,-1.2282,-1.2016,-1.1498,-1.0909,-1.0771,-1.068,-1.0616,-1.0616,-1.0675,-1.0718,-1.0718,-1.1023,-1.1217,-1.1074,-1.0922,-1.082,-1.082,-1.0608,-1.0403,-1.0403,-1.06,-1.0854,-1.1099,-1.161,-1.2017,-1.2116,-1.2725,-1.3258,-1.3705,-1.38,-1.3988,-1.428,-1.4244,-1.4244,-1.4326,-1.4455,-1.464,-1.4903,-1.5355,-1.5844,-1.6312,-1.6637,-1.6947,-1.7199,-1.7199,-1.7282,-1.7434,-1.7365,-1.7557,-1.7988,-1.7948,-1.8161,-1.845,-1.8581,-1.8606,-1.8644,-1.8974,-1.9827,-2.1051,-2.1869,-2.2568,-2.2948]}]]